[[{"header":{"parameterUnit":"m.s-1","parameterCategory":1,"la1":30.6,"la2":29.2853,"lo1":-89.7004,"lo2":-87.6739,"dy":0.0162,"dx":0.0183,"nx":112,"ny":82,"refTime":"2023-03-11T06:00:00:Z","depth":0,"parameterNumber":2,"parameterNumberName":"U-component_of_WINDS"},"data":[0.0,0.0,0.0,0.0,0.0,0.0,0.0,0.0,0.0,0.0,0.0,0.0,0.0,0.0,0.0,0.0,0.0,0.0,0.0,0.0,0.0,0.0,0.0,0.0,0.0,0.0,0.0,0.0,0.0,0.0,0.0,0.0,0.0,0.0,0.0,0.0,0.0,0.0,0.0,0.0,0.0,0.0,0.0,0.0,0.0,0.0,0.0,0.0,0.0,0.0,0.0,0.0,0.0,0.0,0.0,0.0,0.0,0.0,0.0,0.0,0.0,0.0,0.0,0.0,0.0,0.0,0.0,0.0,0.0,0.0,0.0,0.0,0.0,0.0,0.0,0.0,0.0,0.0,0.0,0.0,0.0,0.0,0.0,0.0,0.0,0.0,0.0,0.0,0.0,0.0,-4.947,-5.1669,-5.7067,-6.1223,-6.2859,-6.3389,-6.2025,-5.8349,0.0,0.0,0.0,0.0,0.0,0.0,0.0,0.0,0.0,0.0,0.0,0.0,0.0,0.0,0.0,0.0,0.0,0.0,0.0,0.0,0.0,0.0,0.0,0.0,0.0,0.0,0.0,0.0,0.0,0.0,0.0,0.0,0.0,0.0,0.0,0.0,0.0,0.0,0.0,0.0,0.0,0.0,0.0,0.0,0.0,0.0,0.0,0.0,0.0,0.0,0.0,0.0,0.0,0.0,0.0,0.0,0.0,0.0,0.0,0.0,0.0,0.0,0.0,0.0,0.0,0.0,0.0,0.0,0.0,0.0,0.0,0.0,0.0,0.0,0.0,0.0,0.0,0.0,0.0,0.0,0.0,0.0,0.0,0.0,0.0,0.0,0.0,0.0,0.0,0.0,0.0,0.0,0.0,0.0,0.0,0.0,0.0,0.0,0.0,0.0,0.0,0.0,0.0,0.0,-5.2057,-5.6194,-6.0019,-6.2859,-6.4191,-6.3852,-6.2608,-5.9916,0.0,0.0,0.0,0.0,0.0,0.0,0.0,0.0,0.0,0.0,0.0,0.0,0.0,0.0,0.0,0.0,0.0,0.0,0.0,0.0,0.0,0.0,0.0,0.0,0.0,0.0,0.0,0.0,0.0,0.0,0.0,0.0,0.0,0.0,0.0,0.0,0.0,0.0,0.0,0.0,0.0,0.0,0.0,0.0,0.0,0.0,0.0,0.0,0.0,0.0,0.0,0.0,0.0,0.0,0.0,0.0,0.0,0.0,0.0,0.0,0.0,0.0,0.0,0.0,0.0,0.0,0.0,0.0,0.0,0.0,0.0,0.0,0.0,0.0,0.0,0.0,0.0,0.0,0.0,0.0,0.0,0.0,0.0,0.0,0.0,0.0,0.0,0.0,0.0,0.0,0.0,0.0,0.0,0.0,0.0,0.0,0.0,0.0,0.0,0.0,0.0,0.0,0.0,-5.2282,-5.468,-5.8621,-6.1274,-6.3467,-6.4951,-6.4507,-6.3048,-6.0421,-5.9193,0.0,0.0,0.0,0.0,0.0,0.0,0.0,0.0,0.0,0.0,0.0,0.0,0.0,0.0,0.0,0.0,0.0,0.0,0.0,0.0,0.0,0.0,0.0,0.0,0.0,0.0,0.0,0.0,0.0,0.0,0.0,0.0,0.0,0.0,0.0,0.0,0.0,0.0,0.0,0.0,0.0,0.0,0.0,0.0,0.0,0.0,0.0,0.0,0.0,0.0,0.0,0.0,0.0,0.0,0.0,0.0,0.0,0.0,0.0,0.0,0.0,0.0,0.0,0.0,0.0,0.0,0.0,0.0,0.0,0.0,0.0,0.0,0.0,0.0,0.0,0.0,0.0,0.0,0.0,0.0,0.0,0.0,0.0,0.0,0.0,0.0,0.0,0.0,0.0,0.0,0.0,0.0,0.0,0.0,0.0,0.0,0.0,0.0,0.0,0.0,0.0,0.0,-5.4822,-5.6801,-5.9887,-6.1962,-6.375,-6.5083,-6.4534,-6.3071,-6.0588,-5.9516,0.0,0.0,0.0,0.0,0.0,0.0,0.0,0.0,0.0,0.0,0.0,0.0,0.0,0.0,0.0,0.0,0.0,0.0,0.0,0.0,0.0,0.0,0.0,0.0,0.0,0.0,0.0,0.0,0.0,0.0,0.0,0.0,0.0,0.0,0.0,0.0,0.0,0.0,0.0,0.0,0.0,0.0,0.0,0.0,0.0,0.0,0.0,0.0,0.0,0.0,0.0,0.0,0.0,0.0,0.0,0.0,0.0,0.0,0.0,0.0,0.0,0.0,0.0,0.0,0.0,0.0,0.0,0.0,0.0,0.0,0.0,0.0,0.0,0.0,0.0,0.0,0.0,0.0,0.0,0.0,0.0,0.0,0.0,0.0,0.0,0.0,0.0,0.0,0.0,0.0,0.0,0.0,0.0,0.0,0.0,0.0,0.0,0.0,0.0,0.0,0.0,0.0,-5.5917,-5.7747,-5.999,-6.2663,-6.4456,-6.4587,-6.3567,-6.2417,-6.1136,-5.8993,0.0,0.0,0.0,0.0,0.0,0.0,0.0,0.0,0.0,0.0,0.0,0.0,0.0,0.0,0.0,0.0,0.0,0.0,0.0,0.0,0.0,0.0,0.0,0.0,0.0,0.0,0.0,0.0,0.0,0.0,0.0,0.0,0.0,0.0,0.0,0.0,0.0,0.0,0.0,0.0,0.0,0.0,0.0,0.0,0.0,0.0,0.0,0.0,0.0,0.0,0.0,0.0,0.0,0.0,0.0,0.0,0.0,0.0,0.0,0.0,0.0,0.0,0.0,0.0,0.0,0.0,0.0,0.0,0.0,0.0,0.0,0.0,0.0,0.0,0.0,0.0,0.0,0.0,0.0,0.0,0.0,0.0,0.0,0.0,0.0,0.0,0.0,0.0,0.0,0.0,0.0,0.0,0.0,0.0,0.0,0.0,0.0,0.0,0.0,0.0,0.0,0.0,-5.6662,-5.8927,-6.0779,-6.3077,-6.4665,-6.5031,-6.4665,-6.3463,-6.1267,0.0,0.0,0.0,0.0,0.0,0.0,0.0,0.0,0.0,0.0,0.0,0.0,0.0,0.0,0.0,0.0,0.0,0.0,0.0,0.0,0.0,0.0,0.0,0.0,0.0,0.0,0.0,0.0,0.0,0.0,0.0,0.0,0.0,0.0,0.0,0.0,0.0,0.0,0.0,0.0,0.0,0.0,0.0,0.0,0.0,0.0,0.0,0.0,0.0,0.0,0.0,0.0,0.0,0.0,0.0,0.0,0.0,0.0,0.0,0.0,0.0,0.0,0.0,0.0,0.0,0.0,0.0,0.0,0.0,0.0,0.0,0.0,0.0,0.0,0.0,0.0,0.0,0.0,0.0,0.0,0.0,0.0,0.0,0.0,0.0,0.0,0.0,0.0,0.0,0.0,0.0,0.0,0.0,0.0,0.0,0.0,0.0,0.0,0.0,0.0,0.0,0.0,-5.5207,-5.741,-5.9711,-6.1991,-6.3857,-6.5318,-6.5867,-6.5266,-6.4012,-6.2051,0.0,0.0,0.0,0.0,0.0,0.0,0.0,0.0,0.0,0.0,0.0,0.0,0.0,0.0,0.0,0.0,0.0,0.0,0.0,0.0,0.0,0.0,0.0,0.0,0.0,0.0,0.0,0.0,0.0,0.0,0.0,0.0,0.0,0.0,0.0,0.0,0.0,0.0,0.0,0.0,0.0,0.0,0.0,0.0,0.0,0.0,0.0,0.0,0.0,0.0,0.0,0.0,0.0,0.0,0.0,0.0,0.0,0.0,0.0,0.0,0.0,0.0,0.0,0.0,0.0,0.0,0.0,0.0,0.0,0.0,0.0,0.0,0.0,0.0,0.0,0.0,0.0,0.0,0.0,0.0,0.0,0.0,0.0,0.0,0.0,0.0,0.0,0.0,0.0,0.0,0.0,0.0,0.0,0.0,0.0,0.0,0.0,0.0,0.0,0.0,0.0,0.0,-5.6491,-5.8142,-6.0423,-6.3596,-6.5261,-6.6521,-6.7044,-6.5005,-6.3698,0.0,0.0,0.0,0.0,0.0,0.0,0.0,0.0,0.0,0.0,0.0,0.0,0.0,0.0,0.0,0.0,0.0,0.0,0.0,0.0,0.0,0.0,0.0,0.0,0.0,0.0,0.0,0.0,0.0,0.0,0.0,0.0,0.0,0.0,0.0,0.0,0.0,0.0,0.0,0.0,0.0,0.0,0.0,0.0,0.0,0.0,0.0,0.0,0.0,0.0,0.0,0.0,0.0,0.0,0.0,0.0,0.0,0.0,0.0,0.0,0.0,0.0,0.0,0.0,0.0,0.0,0.0,0.0,0.0,0.0,0.0,0.0,0.0,0.0,0.0,0.0,0.0,0.0,0.0,0.0,0.0,0.0,0.0,0.0,0.0,0.0,0.0,0.0,0.0,0.0,0.0,0.0,0.0,0.0,0.0,0.0,0.0,0.0,0.0,0.0,0.0,0.0,0.0,-5.657,-5.7921,-6.0124,-6.3689,-6.5537,-6.6614,-6.7122,-6.6495,-6.5395,-6.3882,0.0,0.0,0.0,0.0,0.0,0.0,0.0,0.0,0.0,0.0,0.0,0.0,0.0,0.0,0.0,0.0,0.0,0.0,0.0,0.0,0.0,0.0,0.0,0.0,0.0,0.0,0.0,0.0,0.0,0.0,0.0,0.0,0.0,0.0,0.0,0.0,0.0,0.0,0.0,0.0,0.0,0.0,0.0,0.0,0.0,0.0,0.0,0.0,0.0,0.0,0.0,0.0,0.0,0.0,0.0,0.0,0.0,0.0,0.0,0.0,0.0,0.0,0.0,0.0,0.0,0.0,0.0,0.0,0.0,0.0,0.0,0.0,0.0,0.0,0.0,0.0,0.0,0.0,0.0,0.0,0.0,0.0,0.0,0.0,0.0,0.0,0.0,0.0,0.0,0.0,0.0,0.0,0.0,0.0,0.0,0.0,0.0,0.0,0.0,0.0,0.0,0.0,-5.7323,-5.863,-6.0659,-6.4572,-6.5899,-6.6925,-6.7763,-6.7152,-6.5718,-6.3852,0.0,0.0,0.0,0.0,0.0,0.0,0.0,0.0,0.0,0.0,0.0,0.0,0.0,0.0,0.0,0.0,0.0,0.0,0.0,0.0,0.0,0.0,0.0,0.0,0.0,0.0,0.0,0.0,0.0,0.0,0.0,0.0,0.0,0.0,0.0,0.0,0.0,0.0,0.0,0.0,0.0,0.0,0.0,0.0,0.0,0.0,0.0,0.0,0.0,0.0,0.0,0.0,0.0,0.0,0.0,0.0,0.0,0.0,0.0,0.0,0.0,0.0,0.0,0.0,0.0,0.0,0.0,0.0,0.0,0.0,0.0,0.0,0.0,0.0,0.0,0.0,0.0,0.0,0.0,0.0,0.0,0.0,0.0,0.0,0.0,0.0,0.0,0.0,0.0,0.0,0.0,0.0,0.0,0.0,0.0,0.0,0.0,0.0,0.0,0.0,0.0,0.0,-5.8554,-5.9615,-6.1697,-6.5554,-6.6398,-6.7256,-6.8937,-6.722,-6.5324,-6.3632,0.0,0.0,0.0,0.0,0.0,0.0,0.0,0.0,0.0,0.0,0.0,0.0,0.0,0.0,0.0,0.0,0.0,0.0,0.0,0.0,0.0,0.0,0.0,0.0,0.0,0.0,0.0,0.0,0.0,0.0,0.0,0.0,0.0,0.0,0.0,0.0,0.0,0.0,0.0,0.0,0.0,0.0,0.0,0.0,0.0,0.0,0.0,0.0,0.0,0.0,0.0,0.0,0.0,0.0,0.0,0.0,0.0,0.0,0.0,0.0,-3.7199,-3.7932,0.0,0.0,0.0,0.0,0.0,0.0,0.0,0.0,0.0,0.0,0.0,0.0,0.0,0.0,0.0,0.0,0.0,0.0,0.0,0.0,0.0,0.0,0.0,0.0,0.0,0.0,0.0,0.0,0.0,0.0,0.0,0.0,0.0,0.0,0.0,0.0,0.0,0.0,0.0,0.0,-6.0236,-6.0518,-6.1785,-6.5604,-6.6942,-6.7775,-6.845,-6.8066,-6.6898,-6.4907,-6.2357,0.0,0.0,0.0,0.0,0.0,0.0,0.0,0.0,0.0,0.0,0.0,0.0,0.0,0.0,0.0,0.0,0.0,0.0,0.0,0.0,0.0,0.0,0.0,0.0,0.0,0.0,0.0,0.0,0.0,0.0,0.0,0.0,0.0,0.0,0.0,0.0,0.0,0.0,0.0,0.0,0.0,0.0,0.0,0.0,0.0,0.0,0.0,0.0,0.0,0.0,0.0,0.0,0.0,0.0,0.0,0.0,0.0,0.0,0.0,-4.0242,-4.0163,0.0,0.0,0.0,0.0,0.0,0.0,0.0,0.0,0.0,0.0,0.0,0.0,0.0,0.0,0.0,0.0,0.0,0.0,0.0,0.0,0.0,0.0,0.0,0.0,0.0,0.0,0.0,0.0,0.0,0.0,0.0,0.0,0.0,0.0,0.0,0.0,0.0,0.0,0.0,0.0,-6.124,-6.1542,-6.2596,-6.5723,-6.6556,-6.7284,-6.7989,-6.7304,-6.6112,-6.4133,-6.2164,0.0,0.0,0.0,0.0,0.0,0.0,0.0,0.0,0.0,0.0,0.0,0.0,0.0,0.0,0.0,0.0,0.0,0.0,0.0,0.0,0.0,0.0,0.0,0.0,0.0,0.0,0.0,0.0,0.0,0.0,0.0,0.0,0.0,0.0,0.0,0.0,0.0,0.0,0.0,0.0,0.0,0.0,0.0,0.0,0.0,0.0,0.0,0.0,0.0,0.0,0.0,0.0,0.0,-4.071,-4.1277,-4.1961,-4.234,-4.3303,-4.451,-4.4454,-4.3776,-4.3147,-4.5675,0.0,0.0,0.0,0.0,0.0,0.0,0.0,0.0,0.0,0.0,0.0,0.0,0.0,0.0,0.0,0.0,0.0,0.0,0.0,0.0,0.0,0.0,-5.9684,-6.0665,-6.1012,-6.0448,-5.7431,0.0,0.0,0.0,0.0,0.0,0.0,0.0,0.0,0.0,0.0,0.0,-6.1969,-6.2722,-6.3877,-6.5886,-6.6187,-6.6639,-6.7568,-6.6388,-6.4906,-6.335,-6.2044,-6.0337,0.0,0.0,0.0,0.0,0.0,0.0,0.0,0.0,0.0,0.0,0.0,0.0,0.0,0.0,0.0,0.0,0.0,0.0,0.0,0.0,0.0,0.0,0.0,0.0,0.0,0.0,0.0,0.0,0.0,0.0,0.0,0.0,-2.3384,-2.5319,0.0,0.0,0.0,0.0,0.0,0.0,0.0,0.0,0.0,0.0,0.0,0.0,0.0,-3.8723,-4.0431,-4.1325,-4.1939,-4.2136,-4.2638,-4.2922,-4.2988,-4.4841,-4.6058,-4.682,-5.0172,0.0,-4.8604,-4.8002,0.0,0.0,0.0,0.0,0.0,0.0,0.0,0.0,0.0,0.0,0.0,0.0,0.0,0.0,0.0,0.0,0.0,0.0,0.0,0.0,0.0,0.0,-6.0388,-6.1729,-6.1736,-6.1505,-6.1066,-6.0733,-6.0376,-5.9939,-5.9207,-5.9006,0.0,0.0,0.0,0.0,0.0,0.0,-6.2621,-6.3626,-6.4731,-6.5986,-6.6564,-6.6915,-6.7066,-6.689,-6.6237,-6.5032,-6.3048,-6.1943,-6.2069,-5.9307,0.0,0.0,0.0,0.0,0.0,0.0,0.0,0.0,0.0,0.0,0.0,0.0,0.0,0.0,0.0,0.0,0.0,0.0,0.0,0.0,0.0,0.0,0.0,0.0,0.0,0.0,0.0,0.0,0.0,-2.3024,-2.5338,-2.6508,-2.745,-2.8587,0.0,0.0,0.0,0.0,0.0,0.0,0.0,0.0,0.0,-3.855,-3.9848,-4.1022,-4.1717,-4.2507,-4.325,-4.4058,-4.4277,-4.5489,-4.7389,-4.8324,-5.0143,-5.2815,-5.4602,-5.5674,-5.589,-5.3151,-5.2335,-5.2981,0.0,0.0,0.0,0.0,-5.6295,-5.7477,-5.8235,-5.9162,-6.0014,-5.987,0.0,0.0,0.0,0.0,0.0,0.0,0.0,-6.1319,-6.1319,-6.2469,-6.3646,-6.3441,-6.3749,-6.4042,-6.4112,-6.3245,-6.2205,-6.1391,-6.1391,-6.1667,-6.2144,-6.1492,0.0,0.0,0.0,-6.2772,-6.3626,-6.4429,-6.5233,-6.6036,-6.6338,-6.6488,-6.6488,-6.6488,-6.6011,-6.4906,-6.335,-6.2144,-6.1441,-6.0035,-5.9433,0.0,0.0,0.0,0.0,0.0,0.0,0.0,0.0,0.0,0.0,0.0,0.0,0.0,0.0,0.0,0.0,0.0,0.0,0.0,0.0,0.0,0.0,0.0,0.0,0.0,0.0,0.0,0.0,-2.5062,-2.7144,-2.7607,-2.91,-3.0409,0.0,0.0,0.0,0.0,0.0,0.0,-3.7012,-3.827,-3.953,-4.1124,-4.2473,-4.3274,-4.3447,-4.4211,-4.4997,-4.6046,-4.6602,-4.8344,-5.1079,-5.2108,-5.4316,-5.7498,-5.812,-5.9527,-6.1319,-5.7475,-5.5753,-5.5386,-5.4873,-5.5242,-5.617,-5.7739,-5.8784,-5.9568,-6.0718,-6.1502,-6.1816,-6.098,-6.1204,-6.1577,-6.0415,0.0,0.0,0.0,0.0,-6.3123,-6.341,-6.4874,-6.6207,-6.592,-6.6184,-6.6644,-6.6631,-6.568,-6.4446,-6.2747,-6.2873,-6.3299,-6.345,-6.2647,0.0,-6.2948,-6.3174,-6.345,-6.3977,-6.4906,-6.566,-6.6061,-6.6112,-6.6112,-6.6112,-6.6112,-6.571,-6.4731,-6.3776,-6.2621,-6.124,-6.0763,-6.0161,-5.9357,0.0,0.0,0.0,0.0,0.0,0.0,0.0,0.0,0.0,0.0,0.0,0.0,0.0,0.0,0.0,0.0,0.0,0.0,0.0,0.0,0.0,0.0,0.0,0.0,0.0,0.0,0.0,0.0,0.0,-3.0043,-3.2407,0.0,0.0,0.0,0.0,-3.7084,-3.7895,-3.8973,-3.9878,-4.0417,-4.1636,-4.3621,-4.4718,-4.5553,-4.6545,-4.7397,-4.7946,-4.8034,-5.0136,-5.1408,-5.2317,-5.6045,-5.7951,-5.8832,-6.0805,-6.2182,-6.2522,-5.9594,-5.9333,-6.0561,-5.8941,-5.9307,-6.0718,-6.0248,-6.0823,-6.1738,-6.1267,-6.1502,-6.2234,-6.3776,-6.5057,-6.5815,-6.4587,-6.4247,0.0,0.0,-6.362,-6.3881,-6.4979,-6.5763,-6.6808,-6.8926,-6.9163,-6.8861,-6.9084,-6.8667,-6.7309,-6.4295,-6.2797,-6.2245,-6.2772,0.0,-6.1843,-6.1391,-6.3073,-6.4028,-6.3048,-6.4756,-6.6086,-6.6112,-6.6112,-6.6112,-6.6112,-6.6112,-6.586,-6.5283,-6.4705,-6.4128,-6.355,-6.1994,-6.1115,-6.1065,-5.9558,0.0,0.0,0.0,0.0,0.0,0.0,0.0,0.0,0.0,0.0,0.0,0.0,0.0,0.0,0.0,0.0,0.0,0.0,0.0,0.0,0.0,0.0,0.0,0.0,0.0,0.0,0.0,0.0,-3.3803,-3.625,0.0,-3.7368,-3.8712,-3.9687,-3.9687,-4.0848,-4.2193,-4.3379,-4.388,-4.4759,-4.6243,-4.6811,-4.7375,-4.7636,-4.8248,-4.9406,-5.0792,-5.2184,-5.4264,-5.6993,-5.9081,-6.0788,-6.2509,-6.3752,-6.4508,-6.5005,-6.4325,-6.3306,-6.2156,-6.1529,-6.145,-6.1738,-6.226,-6.294,-6.3698,-6.4247,-6.5057,-6.5815,-6.5684,-6.5188,-6.4587,-6.456,-6.4534,-6.4717,-6.5632,-6.6155,-6.6625,-6.741,-6.8324,-6.9161,-6.9605,-6.9657,-6.9455,-6.9316,-6.8846,-6.8018,-6.6686,-6.5735,-6.5157,-6.4982,-6.4178,-6.3651,-6.3802,-6.4203,-6.4454,-6.4429,-6.5409,-6.6112,-6.6112,-6.6112,-6.5961,-6.5609,-6.5584,-6.5208,-6.4329,-6.4078,-6.3726,-6.3149,-6.222,-6.1542,-6.119,-5.9885,-5.9382,0.0,0.0,0.0,0.0,0.0,0.0,0.0,0.0,0.0,0.0,0.0,0.0,0.0,0.0,0.0,0.0,0.0,0.0,0.0,0.0,0.0,0.0,0.0,0.0,0.0,-3.3206,-3.6014,-3.6305,-3.9392,-4.1275,-4.0966,-4.2225,-4.3162,-4.3312,-4.4532,-4.5456,-4.6243,-4.6723,-4.7357,-4.8187,-4.8645,-4.906,-4.9388,-5.049,-5.183,-5.3403,-5.532,-5.7751,-6.0574,-6.1939,-6.3361,-6.5162,-6.5737,-6.6312,-6.6913,-6.7462,-6.6573,-6.4796,-6.4221,-6.375,-6.3515,-6.4273,-6.4926,-6.5501,-6.6286,-6.7305,-6.8115,-6.7174,-6.6207,-6.5501,-6.5867,-6.5841,-6.5946,-6.707,-6.7671,-6.8115,-6.869,-6.971,-7.0598,-7.0572,-7.0714,-7.0533,-7.0189,-6.971,-6.9054,-6.8524,-6.7769,-6.7066,-6.6488,-6.5785,-6.5358,-6.5534,-6.5258,-6.5157,-6.5509,-6.5886,-6.6112,-6.6112,-6.6112,-6.5886,-6.5333,-6.5459,-6.5032,-6.3776,-6.3701,-6.335,-6.2571,-6.2195,-6.1743,-6.119,-6.006,-5.9684,-6.0035,0.0,0.0,0.0,0.0,0.0,0.0,0.0,0.0,0.0,0.0,0.0,0.0,0.0,0.0,0.0,0.0,0.0,0.0,0.0,0.0,0.0,0.0,0.0,-3.1288,-3.5012,-3.7681,-3.774,-4.1698,-4.4268,-4.3996,-4.6117,-4.775,-4.823,-4.8689,-4.8755,-4.8296,-4.8733,-4.9213,-4.9672,-5.0131,-5.083,-5.198,-5.4214,-5.5577,-5.6046,-5.949,-6.1685,-6.272,-6.4635,-6.5737,-6.6338,-6.6913,-6.7488,-6.8063,-6.8638,-6.8873,-6.8716,-6.7044,-6.639,-6.6364,-6.6364,-6.673,-6.72,-6.72,-6.7958,-6.8847,-6.8272,-6.8481,-6.8952,-6.8952,-6.856,-6.8089,-6.8089,-6.8115,-6.8246,-6.8795,-6.9814,-7.0964,-7.2062,-7.2323,-7.2278,-7.1756,-7.1244,-7.0681,-6.9631,-6.8572,-6.7668,-6.7116,-6.7015,-6.6815,-6.6237,-6.6137,0.0,-6.6112,-6.6112,-6.6112,-6.6112,-6.6137,-6.5911,-6.5333,-6.5785,-6.5409,-6.3802,-6.3651,-6.3149,-6.2044,-6.1994,-6.1718,-6.1165,-6.0085,-5.9508,-5.9508,0.0,0.0,0.0,0.0,0.0,0.0,0.0,0.0,0.0,0.0,0.0,0.0,0.0,0.0,0.0,0.0,0.0,0.0,0.0,0.0,0.0,-3.207,-3.3603,-3.391,-3.7605,-4.0644,-4.2076,-4.5377,-4.7848,-4.841,-4.8836,-4.9388,-5.0218,-5.0065,-5.0174,-5.0764,-5.0939,-5.107,-5.1201,-5.2921,-5.3942,-5.4237,-5.6514,-5.8386,-5.9675,-6.1366,-6.3064,-6.4661,-6.5896,-6.6659,-6.6887,-6.7488,-6.8089,-6.8664,-6.9239,-6.9448,-6.9422,-6.8952,-6.8507,-6.8141,-6.8141,-6.8769,-6.9631,-6.9631,-7.0389,-7.1252,-7.0651,-7.086,-7.1356,-7.1356,-7.0938,-7.0468,-7.0468,-7.0781,-7.1147,-7.1304,-7.1879,-7.2506,-7.282,-7.2585,-7.2174,-7.1775,-7.1165,-7.0681,-7.0145,-6.938,-6.8823,-6.8271,-6.817,-6.7844,-6.689,-6.6739,-6.6589,-6.6162,-6.6112,-6.6112,-6.6112,-6.6488,-6.6338,-6.5383,-6.5434,-6.4982,-6.3776,-6.2923,-6.232,-6.2019,-6.1617,-6.114,-6.0563,-6.0261,-6.0085,0.0,0.0,0.0,0.0,0.0,0.0,0.0,0.0,0.0,0.0,0.0,0.0,0.0,0.0,0.0,0.0,0.0,0.0,0.0,0.0,0.0,0.0,-3.4523,-3.6657,-3.7784,-4.0406,-4.3095,-4.4995,-4.7944,-5.0109,-5.0873,-5.0873,-5.1135,-5.1922,-5.1703,-5.1791,-5.2359,-5.2577,-5.3027,-5.3828,-5.5267,-5.6503,-5.7171,-5.9273,-6.1035,-6.2391,-6.3575,-6.4864,-6.6449,-6.7289,-6.7678,-6.788,-6.8716,-6.9265,-6.9631,-7.0442,-7.0781,0.0,0.0,0.0,0.0,0.0,-7.0494,-7.1304,-7.1304,-7.2062,-7.2872,-7.2062,-7.2167,-7.2585,-7.2376,-7.2062,-7.1775,-7.1775,-7.2036,-7.235,-7.2585,-7.3055,-7.3552,-7.3787,-7.363,-7.3217,-7.2476,-7.1936,-7.1397,-7.0674,-7.0311,0.0,-6.9401,-6.8924,-6.8472,-6.807,-6.7618,-6.7191,-6.6865,-6.6614,-6.6388,-6.6137,-6.6413,-6.6262,-6.5358,-6.5283,0.0,0.0,0.0,-6.1793,-6.1316,-6.0989,0.0,0.0,0.0,-6.0688,-6.0688,-6.1014,0.0,0.0,-5.996,-5.9859,0.0,0.0,0.0,0.0,0.0,0.0,0.0,0.0,0.0,0.0,0.0,0.0,0.0,0.0,0.0,0.0,-3.7165,-4.0063,-4.2305,-4.368,-4.5205,-4.7161,-4.9739,-5.1441,-5.1987,-5.2359,-5.2796,-5.3342,-5.332,-5.3342,-5.3451,-5.404,0.0,0.0,0.0,-5.8841,-6.0507,-6.2356,-6.3615,-6.4587,-6.5828,-6.6865,-6.7819,-6.8542,-6.8926,-6.9108,-7.0206,-7.0729,-7.086,-7.1958,-7.2402,-7.2193,-7.0206,-6.9736,-7.0311,-7.133,-7.2088,-7.2585,-7.2506,0.0,0.0,-7.2951,-7.2977,-7.3317,-7.282,-7.2637,-7.2585,-7.2585,-7.2585,-7.2716,-7.3186,-7.3709,-7.4232,-7.478,-7.4859,-7.4625,-7.3661,-7.291,-7.2394,-7.1452,-7.1083,-7.0932,-7.043,-6.9501,-6.8924,-6.93,-6.8522,-6.7869,-6.7819,-6.7317,-6.6764,-6.6262,0.0,0.0,-6.5434,-6.5383,-6.4957,-6.3927,-6.2822,-6.1692,-6.0563,-6.0512,-6.0713,-6.1165,-6.124,-6.1316,-6.1366,-6.1366,-6.1391,-6.1441,-6.0738,-6.0688,0.0,0.0,0.0,0.0,0.0,0.0,0.0,0.0,0.0,0.0,0.0,0.0,0.0,0.0,0.0,-3.7803,-4.0661,-4.3467,-4.6306,-4.7858,-4.8777,-4.9302,-5.1097,-5.2555,-5.3451,-5.3254,-5.3429,-5.4303,-5.4019,-5.415,-5.4914,-5.6592,-5.7672,-5.8411,-6.14,-6.3142,-6.3502,-6.5375,-6.6295,-6.6562,0.0,0.0,-6.8507,-6.8743,-6.937,-7.0285,-7.0964,-7.1513,-7.201,-7.2689,-7.2951,-7.2951,-7.3003,-7.3081,-7.3212,-7.3421,-7.3892,-7.4336,-7.3839,-7.4441,-7.5277,-7.4624,-7.478,-7.5199,-7.5094,-7.4754,0.0,-7.4414,-7.4414,-7.4441,-7.4519,-7.465,-7.4754,-7.4885,-7.4545,-7.3999,-7.3432,-7.3017,-7.2394,-7.182,-7.1452,-7.1058,-7.0932,-7.038,-6.9677,-6.8899,-6.8597,-6.8296,-6.7869,-6.7317,-6.694,-6.6815,-6.6815,-6.6589,-6.6011,-6.5961,-6.5685,-6.5032,-6.3952,-6.2847,-6.1718,-6.1667,-6.1517,-6.119,-6.1617,-6.2069,-6.2496,-6.2496,-6.2747,-6.3174,-6.1692,-6.109,0.0,0.0,0.0,0.0,0.0,0.0,0.0,0.0,0.0,0.0,0.0,-3.0226,-3.2274,0.0,-3.8255,-4.0548,-4.3597,-4.6322,-4.8441,-5.0549,-5.1617,-5.1124,-5.241,-5.3407,-5.3888,-5.415,-5.4499,-5.498,-5.5024,-5.5665,-5.7425,-5.8316,-5.9821,-6.1999,-6.391,-6.5133,-6.5708,-6.6581,-6.7383,-6.7958,-6.7958,-6.8586,-6.9736,-7.0311,-7.0886,-7.1487,-7.235,-7.2872,-7.3212,-7.4075,-7.4754,-7.5329,-7.5617,-7.4833,-7.363,-7.4232,-7.465,-7.4911,-7.4859,-7.5225,-7.5669,-7.5408,-7.5486,-7.5721,-7.5721,-7.5329,-7.4911,-7.4911,-7.4702,-7.4519,-7.4833,-7.4911,-7.499,-7.5251,-7.5068,-7.4755,-7.4309,-7.3786,-7.3314,-7.2851,-7.23,-7.1811,-7.1535,-7.1259,-7.0807,-6.9978,-6.9401,-6.8924,-6.8648,-6.8145,-6.7693,-6.7417,-6.7392,-6.7267,-6.699,-6.6438,-6.576,-6.4931,-6.4128,-6.3299,-6.2446,-6.2421,-6.2421,-6.2446,-6.2697,-6.3099,-6.3651,-6.3651,-6.3802,-6.4053,-6.3224,-6.2521,0.0,0.0,0.0,0.0,0.0,0.0,0.0,-2.4888,-2.6424,-2.8161,-3.081,-3.3374,-3.5417,-3.8713,-4.1582,-4.347,-4.6434,-4.9188,-5.0422,-5.2477,-5.3583,-5.3254,-5.3888,-5.4368,-5.4368,-5.5067,-5.5526,-5.5526,-5.6236,-5.7558,-5.9697,-6.0435,-6.2298,-6.5489,-6.5925,-6.6566,-6.7775,-6.7645,-6.8115,-6.9187,-6.9291,-6.9945,-7.1121,-7.2036,-7.2637,-7.3029,-7.4075,-7.4571,-7.4754,-7.5669,-7.661,-7.7473,-7.7473,-7.6035,-7.4075,-7.5042,-7.5329,-7.5303,-7.5748,-7.58,-7.5721,-7.5721,-7.5721,-7.5721,-7.5721,-7.5329,-7.4911,-7.4911,-7.4467,-7.4127,-7.4597,-7.4807,-7.5016,-7.546,-7.5643,-7.5484,-7.5019,-7.4652,-7.4124,-7.3559,-7.3142,-7.2715,-7.2163,-7.2062,-7.1836,-7.1184,-7.033,-6.9752,-6.9752,-6.92,-6.8622,-6.817,-6.7919,-6.7769,-6.7643,-6.6815,-6.5911,-6.5007,-6.4454,-6.3952,-6.3475,-6.335,-6.3475,-6.3827,-6.3952,-6.4203,-6.463,-6.4605,-6.4605,-6.463,-6.4555,-6.4028,-1.5371,-1.7384,-1.9547,-2.0675,-2.2369,-2.3888,0.0,-2.7115,-2.9696,-3.1366,-3.3707,-3.6381,-3.9466,-4.2545,-4.5413,-4.7587,-4.9903,-5.1884,-5.3321,-5.332,-5.3861,-5.557,-5.581,-5.5875,-5.5875,-5.5963,-5.6028,-5.6028,-5.7626,-5.9105,-6.0406,-6.3657,-6.6042,-6.7367,-6.8519,-6.9541,-7.0206,-6.9684,-6.9736,-7.0389,-7.0886,-7.1722,-7.282,-7.2951,-7.3866,-7.5382,-7.6035,-7.661,-7.7081,-7.7211,-7.7342,-7.7473,-7.7473,-7.7263,-7.7002,-7.7133,-7.6871,-7.6427,-7.6479,-7.6166,-7.5721,-7.5721,-7.5721,-7.5721,-7.5721,-7.5329,-7.4911,-7.4911,-7.4467,-7.4022,-7.4075,-7.4493,-7.4937,-7.499,-7.5355,-7.5354,-7.448,-7.4678,-7.4481,-7.3105,-7.3192,-7.3318,-7.274,-7.264,-7.2288,-7.1234,-7.0983,-7.0907,-7.0907,-7.0003,-6.9325,-6.9275,-6.8396,-6.7593,-6.7116,-6.694,-6.6815,-6.6714,-6.6162,-6.581,-6.576,-6.5283,-6.4806,-6.4379,-6.4856,-6.5132,-6.5208,-6.5276,-6.5276,-6.5183,-6.4737,-6.4437,-1.7802,-2.0263,-2.2551,-2.3405,-2.5034,-2.6752,-2.7985,-3.0253,-3.3011,-3.5968,-3.8143,-4.0262,-4.3534,-4.6,-4.7918,-4.9088,-5.1079,-5.2798,-5.34,-5.4015,-5.4636,-5.514,-5.6046,-5.636,-5.6159,-5.6356,-5.7166,-5.8503,-5.9657,-6.1538,-6.4602,-6.6266,-6.7739,-6.929,-6.9969,-7.0337,-7.0598,-7.0651,-7.099,-7.1592,-7.248,-7.3343,-7.4179,-7.4833,-7.5904,-7.7237,-7.7499,-7.7917,-7.844,-7.81,-7.8152,-7.8466,-7.8466,-7.8466,-7.8387,-7.7708,-7.7316,-7.7054,-7.6715,-7.6453,-7.6244,-7.6244,-7.6009,-7.5721,-7.5721,-7.5094,-7.431,-7.397,-7.3447,-7.3081,-7.3395,-7.3944,-7.4467,-7.4833,-7.5329,-7.5432,-7.4839,-7.4652,-7.4251,-7.3408,-7.3142,-7.3016,-7.2765,-7.274,-7.2565,-7.2113,-7.1761,-7.156,-7.156,-7.0606,-6.9803,-6.9476,-6.9024,-6.8673,-6.8447,-6.812,-6.7794,-6.7467,-6.6915,-6.6463,-6.6137,-6.5886,-6.566,-6.5434,-6.566,-6.576,-6.576,-6.5735,-6.5735,-6.576,-6.5464,-6.5333,-2.0455,-2.2928,-2.4877,-2.5979,-2.7644,-2.9488,-3.1389,-3.3751,-3.667,-4.0076,-4.1837,-4.3805,-4.7014,-4.8592,-4.9638,-5.0714,-5.2407,-5.3528,-5.3783,-5.4387,-5.4853,-5.501,-5.5686,-5.6349,-5.7039,-5.7415,-5.8612,-6.0546,-6.1959,-6.426,-6.7844,-6.8422,-6.9475,-7.1278,-7.1147,-7.1226,-7.1539,-7.1748,-7.2271,-7.3029,-7.3996,-7.4963,-7.5904,-7.7185,-7.8152,-7.8806,-7.8962,-7.9172,-7.9381,-7.8962,-7.8936,-7.9172,-7.9172,-7.9172,-7.9067,-7.8231,-7.7839,-7.7629,-7.7237,-7.6871,-7.6636,-7.6793,-7.6453,-7.5957,-7.5957,-7.5172,-7.4127,-7.3526,-7.2846,-7.2428,-7.2977,-7.3552,-7.4153,-7.4754,-7.5329,-7.5458,-7.4942,-7.4652,-7.4175,-7.3483,-7.3142,-7.2916,-7.2765,-7.274,-7.274,-7.274,-7.2389,-7.2138,-7.2138,-7.1158,-7.028,-6.9727,-6.9526,-6.9376,-6.9225,-6.8848,-6.8447,-6.8045,-6.7367,-6.6865,-6.6589,-6.6287,-6.6112,-6.6112,-6.6112,-6.6112,-6.6112,-6.6112,-6.6112,-6.6112,-6.6112,-6.581,-2.3555,-2.4891,-2.6353,-2.7955,-2.9685,-3.1724,-3.4649,-3.7701,-4.0688,-4.3202,-4.4405,-4.6085,-4.9692,-5.0146,-5.062,-5.3273,-5.3889,-5.423,-5.5123,-5.452,-5.4435,-5.5807,-5.5279,-5.5882,-5.9155,-6.0041,-6.0569,-6.1212,-6.4659,-6.7317,-6.8574,-7.0287,-7.1879,-7.3003,-7.2533,-7.2794,-7.3892,-7.3343,-7.3656,-7.4833,-7.5382,-7.6558,-7.8283,-7.9982,-8.0452,-8.0008,-8.0557,-8.0505,-8.0008,-7.9982,-7.9642,-7.9172,-7.9172,-7.9172,-7.9172,-7.9119,-7.8779,-7.8283,-7.8283,-7.7525,-7.6715,-7.7263,-7.7054,-7.6584,-7.6584,-7.58,-7.4754,-7.4153,-7.3186,-7.2428,-7.2977,-7.3552,-7.4153,-7.4754,-7.5329,-7.5354,-7.4428,-7.4678,-7.4532,-7.3055,-7.3192,-7.3393,-7.2816,-7.274,-7.274,-7.274,-7.2715,-7.2715,-7.2715,-7.1736,-7.0857,-7.0305,-6.9752,-6.9225,-6.8698,-6.8622,-6.8622,-6.8597,-6.7568,-6.7216,-6.7719,-6.6689,-6.6112,-6.6112,-6.6112,-6.6112,-6.6112,-6.6112,-6.6112,-6.6112,-6.6112,-6.581,-2.6453,-2.758,-2.9,-3.149,-3.4082,-3.6852,-3.9196,-4.2055,-4.4932,-4.7004,-4.7376,-4.7959,-5.0104,-5.0418,-5.0568,-5.1871,-5.2869,-5.3713,-5.4133,-5.4591,-5.478,-5.4583,-5.6599,-5.8019,-5.8612,-5.9082,-6.0907,-6.4763,-6.644,-6.8245,-7.0261,-7.1738,-7.2716,-7.3108,-7.3317,-7.3813,-7.4597,-7.4754,-7.5434,-7.661,-7.7943,-7.9093,-8.0034,-8.1027,-8.1367,-8.121,-8.1393,-8.1367,-8.1132,-8.0348,-7.9903,-7.9694,-7.9328,-7.9172,-7.9172,-7.9172,-7.9041,-7.8832,-7.844,-7.8074,-7.7786,-7.7969,-7.7394,-7.661,-7.661,-7.58,-7.478,-7.4179,-7.3735,-7.3474,-7.3656,-7.4153,-7.465,-7.4859,-7.5329,-7.5538,-7.48,-7.498,-7.4685,-7.3545,-7.3483,-7.3559,-7.3357,-7.2929,-7.274,-7.274,-7.274,-7.259,-7.2238,-7.1861,-7.1284,-7.0355,-7.0104,-6.9752,-6.9225,-6.9175,-6.8999,-6.8648,-6.7919,-6.7442,-6.7267,-6.6513,-6.6112,-6.6112,-6.6112,-6.6112,-6.6112,-6.6112,-6.6112,-6.6112,-6.6112,-6.581,-2.8461,-2.9913,-3.1825,-3.5206,-3.8039,-4.051,-4.3139,-4.5797,-4.795,-4.8939,-4.8921,-4.8987,-4.9673,-4.9512,-4.9318,-5.0095,-5.1141,-5.235,-5.3447,-5.4821,-5.5698,-5.5699,-5.8429,-6.0494,-6.0733,-6.1011,-6.2828,-6.6541,-6.8065,-6.9624,-7.167,-7.2611,-7.3395,-7.4022,-7.4414,-7.5094,-7.6113,-7.6479,-7.7237,-7.8387,-7.993,-8.0844,-8.121,-8.1811,-8.2073,-8.2073,-8.2073,-8.1838,-8.1393,-8.0635,-8.0086,-7.9694,-7.9302,-7.9172,-7.9172,-7.9172,-7.9172,-7.9119,-7.8753,-7.8492,-7.8309,-7.8309,-7.7682,-7.6871,-7.6688,-7.5957,-7.5068,-7.4493,-7.4179,-7.4049,-7.4284,-7.4624,-7.4963,-7.5146,-7.546,-7.5538,-7.501,-7.501,-7.464,-7.3707,-7.3707,-7.3682,-7.3331,-7.2929,-7.274,-7.274,-7.274,-7.259,-7.2238,-7.2037,-7.156,-7.0656,-7.038,-7.0054,-6.9501,-6.9451,-6.93,-6.8949,-6.8396,-6.7844,-6.7292,-6.6714,-6.6312,-6.6112,-6.6112,-6.6112,-6.6112,-6.6112,-6.6112,-6.6112,-6.6112,-6.581,-3.0091,-3.2087,-3.4801,-3.917,-4.1166,-4.2939,-4.6228,-4.8505,-4.968,-4.9117,-4.9085,-4.8798,-4.8294,-4.7567,-4.7299,-4.8231,-4.9396,-5.1027,-5.3135,-5.5592,-5.7534,-5.8791,-6.0869,-6.3075,-6.5138,-6.5698,-6.6177,-6.7064,-6.9257,-7.1147,-7.2271,-7.2925,-7.4022,-7.5695,-7.58,-7.6662,-7.8335,-7.844,-7.9041,-8.0139,-8.1263,-8.1811,-8.1838,-8.2387,-8.2622,-8.2622,-8.2622,-8.1968,-8.0923,-8.0897,-8.0217,-7.9224,-7.9172,-7.9172,-7.9172,-7.9172,-7.9172,-7.9172,-7.9172,-7.8832,-7.8361,-7.8335,-7.7943,-7.7368,-7.6793,-7.6192,-7.5617,-7.512,-7.4571,-7.4258,-7.4833,-7.499,-7.512,-7.5591,-7.5721,-7.5538,-7.5143,-7.4959,-7.4588,-7.3656,-7.3843,-7.3843,-7.2929,-7.2715,-7.274,-7.274,-7.274,-7.274,-7.274,-7.2238,-7.1686,-7.1133,-7.0606,-7.0079,-6.9501,-6.9476,-6.9476,-6.9451,-6.8899,-6.8346,-6.7819,-6.7241,-6.6664,-6.6112,-6.6112,-6.6112,-6.6112,-6.6112,-6.6112,-6.6112,-6.6112,-6.5835,-3.3941,-3.5954,-3.8234,-4.1841,-4.4453,-4.6437,-4.7753,-4.9463,-5.04,-4.9385,-4.8333,-4.7182,-4.6027,-4.7145,-4.8328,-4.8337,-5.2649,-5.6132,-5.6968,-5.9665,-6.1787,-6.1643,-6.4644,-6.6983,-6.7116,-6.9245,-7.0584,-7.0869,-7.1183,-7.1696,-7.2846,-7.4258,-7.546,-7.6349,-7.7211,-7.8074,-7.8936,-8.0243,-8.1027,-8.1341,-8.2073,-8.2413,-8.2413,-8.2569,-8.2622,-8.2622,-8.2622,-8.223,-8.1524,-8.1053,-8.0452,-7.9773,-7.9328,-7.9172,-7.9172,-7.9172,-7.9172,-7.9172,-7.9172,-7.9067,-7.8884,-7.8466,-7.7943,-7.7368,-7.6793,-7.6192,-7.5774,-7.6087,-7.6061,-7.5983,-7.614,-7.6192,-7.6113,-7.5774,-7.5354,-7.5066,-7.5016,-7.4547,-7.4154,-7.397,-7.4331,-7.4428,-7.2929,-7.3281,-7.3682,-7.3331,-7.2929,-7.274,-7.274,-7.2238,-7.1686,-7.1133,-7.0958,-7.048,-6.9526,-6.9828,-6.9878,-6.9476,-6.8547,-6.7945,-6.7819,-6.6865,-6.6262,-6.6112,-6.6112,-6.6112,-6.6112,-6.6112,-6.6112,-6.6112,-6.6112,-6.6036,-3.7414,-3.936,-4.1215,-4.4454,-4.6793,-4.8265,-4.8572,-4.9742,-5.0188,-4.7743,-4.722,-4.6642,-4.5019,-4.6874,-4.8785,-4.9293,-5.3589,-5.7573,-5.943,-6.2656,-6.4933,-6.5658,-6.8733,-7.0783,-7.0296,-7.2185,-7.3447,-7.3447,-7.2872,-7.2951,-7.3839,-7.5538,-7.6871,-7.7708,-7.8597,-7.9459,-8.0295,-8.1524,-8.2151,-8.2151,-8.2491,-8.2622,-8.2622,-8.2622,-8.2622,-8.2622,-8.2622,-8.2151,-8.1367,-8.1027,-8.04,-7.9616,-7.9302,-7.9172,-7.9172,-7.9172,-7.9172,-7.9172,-7.9172,-7.9172,-7.9041,-7.8204,-7.7734,-7.7316,-7.6479,-7.6166,-7.6192,-7.6505,-7.6793,-7.6924,-7.6688,-7.661,-7.6453,-7.5852,-7.5538,-7.5224,-7.5042,-7.5094,-7.525,-7.525,-7.514,-7.4737,-7.3519,-7.3843,-7.3953,-7.3164,-7.2952,-7.2764,-7.2739,-7.2275,-7.1686,-7.1133,-7.1083,-7.0832,-7.0204,-7.0229,-7.0129,-6.9828,-6.8999,-6.8422,-6.817,-6.7543,-6.699,-6.6488,-6.6488,-6.6363,-6.6112,-6.6112,-6.6112,-6.6112,-6.6112,-6.6112,-4.0621,-4.2497,-4.4329,-4.6872,-4.857,-4.9348,-4.9362,-5.0019,-4.9617,-4.6153,-4.6437,-4.6699,-4.4713,-4.66,-4.9037,-5.0513,-5.3802,-5.755,-6.1629,-6.5062,-6.7995,-6.9896,-7.2604,-7.4153,-7.363,-7.4597,-7.5251,-7.5251,-7.4911,-7.4885,-7.5329,-7.6845,-7.8257,-7.9485,-8.0008,-8.0792,-8.189,-8.2387,-8.2674,-8.2752,-8.2674,-8.2674,-8.2752,-8.2674,-8.2622,-8.2622,-8.2622,-8.1968,-8.0871,-8.0871,-8.0191,-7.9172,-7.9172,-7.9172,-7.9172,-7.9172,-7.9172,-7.9172,-7.9172,-7.9172,-7.8989,-7.7917,-7.7525,-7.7263,-7.6244,-7.627,-7.6636,-7.6793,-7.7185,-7.7473,-7.6976,-7.6845,-7.6688,-7.6087,-7.593,-7.5616,-7.5251,-7.5904,-7.661,-7.6424,-7.5865,-7.5122,-7.4422,-7.4268,-7.4063,-7.302,-7.2784,-7.2919,-7.2555,-7.2159,-7.1636,-7.1234,-7.1184,-7.1133,-7.0983,-7.0606,-7.0305,-7.0154,-6.9652,-6.9125,-6.8648,-6.8547,-6.802,-6.699,-6.6965,-6.6689,-6.6112,-6.6112,-6.6112,-6.6112,-6.6112,-6.6112,-4.4126,-4.5939,-4.7424,-4.9903,-5.0922,-5.1245,-5.1079,-5.0761,-5.0235,-4.8507,-4.7739,-4.6667,-4.4387,-4.7095,-5.0005,-5.1063,-5.655,-6.2007,-6.5526,-6.9103,-7.1935,-7.3118,-7.4962,-7.6113,-7.6009,-7.661,-7.7028,-7.7028,-7.7786,-7.8126,-7.7734,-7.8466,-7.9642,-8.1263,-8.1419,-8.1785,-8.2465,-8.2569,-8.2857,-8.3327,-8.2857,-8.2883,-8.3327,-8.2857,-8.2622,-8.2622,-8.2622,0.0,-8.0871,-8.0871,-8.0191,-7.9172,-7.9172,-7.9172,-7.9172,-7.9172,-7.9172,-7.9172,-7.9172,-7.9172,-7.9067,-7.8387,-7.7839,-7.742,-7.7211,-7.6898,-7.6819,-7.776,-7.81,-7.8152,-7.8048,-7.8021,-7.7891,-7.729,-7.6784,-7.6441,-7.6242,-7.6479,-7.6424,-7.6,-7.6212,-7.6,-7.4583,-7.4575,-7.4588,-7.4088,-7.3902,-7.357,-7.2624,-7.1763,-7.1359,-7.1736,-7.1761,-7.1384,-7.048,-7.0732,-7.0556,-6.9652,-6.9074,-6.8723,-6.8622,-6.8196,-6.7643,-6.699,-6.6965,-6.6689,-6.6112,-6.6112,-6.6112,-6.6112,-6.6112,-6.6112,-4.8169,-4.9692,-5.1127,-5.3168,-5.3579,-5.3296,-5.2314,-5.1827,-5.0769,-4.8301,-4.8236,-4.8287,-4.682,-4.9432,-5.225,-5.3504,-5.7719,-6.2389,-6.7031,-6.9804,-7.244,-7.512,-7.6607,-7.7499,-7.7499,-7.8021,-7.8361,-7.8361,-7.9145,-7.9355,-7.8779,-7.9877,-8.1053,-8.2177,-8.223,-8.236,-8.2622,-8.2622,-8.2779,-8.304,-8.2752,-8.2779,-8.304,-8.2752,-8.2622,-8.2622,-8.2308,-8.1681,-8.0844,-8.0557,-7.993,-7.9172,-7.9172,-7.9172,-7.9172,-7.9172,-7.9172,-7.9172,-7.9172,-7.9172,-7.9119,-7.8858,-7.8178,-7.7394,-7.7107,-7.7028,-7.7159,-7.7734,-7.8309,-7.8701,-7.8387,-7.8309,-7.8178,-7.7603,-7.705,-7.6732,-7.742,-7.7263,-7.7054,-7.6654,-7.6868,-7.6576,-7.5327,-7.5445,-7.5636,-7.5026,-7.4794,-7.4408,-7.3473,-7.2359,-7.1553,-7.1435,-7.1209,-7.1058,-7.1108,-7.0832,-7.043,-6.9903,-6.9351,-6.9049,-6.9049,-6.8798,-6.8396,-6.7844,-6.7819,-6.7417,-6.6564,-6.6614,-6.6463,-6.6112,-6.6112,-6.6112,-5.1203,-5.2965,-5.4435,-5.6056,-5.6236,-5.5333,-5.4165,-5.3121,-5.1698,-4.8615,-4.924,-5.0101,-4.927,-5.1555,-5.3923,-5.54,-5.7907,-6.1607,-6.7229,-6.9619,-7.2167,-7.5957,-7.7656,-7.8492,-7.8492,-7.891,-7.9224,-7.9328,-8.0008,-8.0217,-7.9747,-8.1158,-8.2177,-8.2622,-8.2622,-8.27,-8.2805,-8.27,-8.2752,-8.2988,-8.2752,-8.27,-8.2805,-8.27,-8.2622,-8.2596,-8.2021,-8.1446,-8.0818,-8.0269,-7.9694,-7.9172,-7.9172,-7.9172,-7.9172,-7.9172,-7.9172,-7.9172,-7.9172,-7.9172,-7.9172,-7.9172,-7.8492,-7.7577,-7.7263,-7.7394,-7.7682,-7.7786,-7.8466,-7.9067,-7.8623,-7.8492,-7.8387,-7.7943,-7.7473,-7.7394,-7.8309,-7.8152,-7.7839,-7.7839,-7.7629,-7.7154,-7.6441,-7.6394,-7.6424,-7.5813,-7.5507,-7.4881,-7.4069,-7.2721,-7.182,-7.1268,-7.0706,-7.0782,-7.1661,-7.0832,-7.0204,-7.0104,-6.9677,-6.9451,-6.9451,-6.9451,-6.9225,-6.8544,-6.8544,-6.8196,-6.7141,-6.7091,-6.6938,-6.6359,-6.6359,-6.6162,-5.204,-5.4506,-5.6837,-5.7919,-5.803,-5.7665,-5.7146,-5.5469,-5.363,-5.199,-5.1779,-5.1358,-4.9406,-5.1073,-5.3154,-5.434,-5.7048,-6.0872,-6.6359,-6.9605,-7.2428,-7.5434,-7.776,-7.9093,-7.9093,-7.9145,-7.9381,-7.9903,-8.0975,-8.1602,-8.155,-8.2177,-8.2569,-8.2622,-8.2622,-8.2883,-8.3406,-8.2883,-8.3145,-8.4164,-8.3118,-8.2909,-8.338,-8.2857,-8.2622,-8.2596,-8.2021,-8.1446,0.0,-8.0269,-7.9694,-7.9172,-7.9172,-7.9172,-7.9172,-7.9172,-7.9172,-7.9172,-7.9172,-7.9172,-7.9172,-7.9172,-7.8753,-7.8335,-7.8779,-7.8623,-7.8335,-7.8858,-7.9093,-7.9172,-7.9093,-7.9093,-7.9067,-7.9015,-7.8962,-7.8962,-7.9067,-7.9041,-7.9015,-7.9015,-7.8178,-7.7415,-7.7505,-7.6914,-7.6424,-7.5813,-7.5718,-7.5147,-7.3561,-7.281,-7.2394,-7.182,-7.1217,-7.1058,-7.1158,-7.0606,-7.0054,-6.9551,-6.9476,-6.9451,-6.9451,-6.9451,-6.9145,-6.8534,-6.8534,-6.8265,-6.7719,-6.7663,-6.7405,-6.698,-6.698,-6.6682,-5.4711,-5.6716,-5.8897,-6.2018,-6.1094,-5.9616,-5.9354,-5.6988,-5.4472,-5.2942,-5.2603,-5.2391,-5.1594,-5.2291,-5.3529,-5.4581,-5.5867,-5.8433,-6.3384,-6.5292,-6.835,-7.4022,-7.5512,-7.7159,-7.993,-7.9877,-8.006,-8.1001,-8.1498,-8.1916,-8.2282,-8.2491,-8.2622,-8.2622,-8.2622,-8.2909,-8.3484,-8.2909,-8.304,-8.3824,-8.3014,-8.2752,-8.2962,-8.2726,-8.2439,-8.2073,-8.1498,-8.0897,0.0,-7.9747,-7.9381,-7.9172,-7.9172,-7.9172,-7.9172,-7.9172,-7.9172,-7.9172,-7.9172,-7.9172,-7.9119,-7.8779,-7.8518,-7.8361,-7.8597,-7.8492,-7.8361,-7.8597,-7.891,-7.9172,-7.9172,-7.9172,-7.9172,-7.9172,-7.9172,-7.9067,-7.8727,-7.8936,-7.8962,-7.8283,-7.8048,-7.7943,-7.7624,-7.7233,-7.7133,-7.692,-7.6424,-7.5929,-7.501,-7.379,-7.3089,-7.2775,-7.1519,-7.0673,-7.1073,-7.0355,-6.9677,-6.9451,-6.9451,-6.9451,-6.9451,-6.9451,-6.922,-6.9145,-6.9145,-6.8665,-6.7861,-6.8093,-6.7794,-6.7031,-6.7267,-6.7289,-5.4808,-5.7765,-6.0435,-6.3731,-6.2929,-6.1394,-6.0747,-5.8027,-5.5164,-5.3507,-5.3281,-5.3306,-5.3117,-5.3468,-5.4108,0.0,-5.5546,-5.7146,-6.0953,-6.2391,-6.524,-7.1043,-7.2167,-7.4232,-7.8675,-7.9982,-8.0871,-8.1707,-8.1942,-8.2204,-8.2596,-8.2622,-8.27,-8.2883,-8.2726,-8.2988,-8.372,-8.2988,-8.2909,-8.3484,-8.2909,-8.2622,-8.2622,-8.2465,-8.2151,-8.1733,-8.0949,-8.04,0.0,-7.9407,-7.9172,-7.9172,-7.9172,-7.9172,-7.9172,-7.9172,-7.9172,-7.9172,-7.9172,-7.9067,-7.8858,-7.844,-7.8309,-7.8283,-7.7937,-7.7884,-7.8126,-7.8466,-7.8858,-7.9172,-7.9172,-7.9172,-7.9172,-7.9172,-7.9172,-7.9067,-7.8649,-7.8753,-7.8675,-7.7865,-7.7917,-7.7995,-7.776,-7.7708,-7.7656,-7.7499,-7.6976,-7.632,-7.5342,-7.4176,-7.3422,-7.3205,-7.1711,-7.0923,-7.1124,-7.0172,-6.9652,-6.9451,-6.9451,-6.9451,-6.9451,-6.9451,-6.9451,-6.9451,-6.9451,-6.912,-6.8254,-6.8569,-6.8348,-6.7466,-6.7837,-6.7949,-5.1336,-5.6516,-6.1396,-6.1694,-6.2817,-6.3249,-6.1567,-5.8604,-5.5717,-5.4034,-5.416,-5.4351,-5.3681,-5.4184,-5.4954,-5.5391,-5.6158,0.0,-5.9908,-6.2208,-6.4351,-6.6155,-6.7854,-7.0494,-7.4571,-7.9093,-8.1759,-8.1785,-8.2308,0.0,-8.2622,-8.2622,-8.2883,-8.3458,-8.2935,-8.3171,-8.4321,-8.3197,-8.2909,-8.3484,-8.2909,-8.2622,-8.2622,-8.2047,-8.1785,-8.1707,-8.0531,-8.0034,0.0,-7.9407,-7.9172,-7.9172,-7.9172,-7.9172,-7.9172,-7.9172,-7.9172,-7.9172,-7.9172,-7.8806,-7.8335,-7.8309,-7.8309,-7.8015,-7.7063,-7.7096,-7.7708,-7.8832,-7.9172,-7.9172,-7.9172,-7.9172,-7.9172,-7.9172,-7.9172,-7.9172,-7.9172,-7.8727,-7.8335,-7.8309,-7.7865,-7.7656,-7.8204,-7.8309,-7.8126,-7.7551,-7.6976,-7.6007,-7.4286,-7.3764,-7.3212,-7.2657,-7.2188,-7.1662,-7.1158,-7.0522,-6.9972,-6.9476,-6.9451,-6.9451,-6.9451,-6.9451,-6.9451,-6.9451,-6.9451,-6.9451,-6.9426,-6.9378,-6.9101,-6.8559,-6.8559,-6.8279,-5.216,-5.554,-5.8617,-6.1232,-6.162,-6.0902,-5.9709,-5.7499,-5.5534,-5.4744,-5.4834,-5.5,-5.4923,-5.5442,-5.6106,-5.7021,-5.7588,0.0,0.0,0.0,0.0,-6.822,-7.397,-7.8178,0.0,0.0,-8.236,-8.236,-8.2517,-8.2622,-8.2622,-8.2622,-8.2726,-8.2883,-8.2726,-8.2988,-8.3746,-8.3014,-8.2909,-8.3484,-8.2909,-8.2439,-8.2047,-8.1864,-8.1341,-8.0557,-8.0191,-7.9799,-7.9433,-7.925,-7.9172,-7.9172,-7.9172,-7.9172,-7.9119,-7.8727,-7.8597,-7.8544,-7.8152,-7.7891,-7.7682,-7.729,-7.7159,-7.7185,-7.7206,-7.7832,-7.8701,-7.9067,-7.9172,-7.9172,-7.9172,-7.9172,-7.9172,-7.9172,-7.9172,-7.8962,-7.8178,-7.8178,-7.81,-7.7316,-7.7629,-7.7865,-7.7263,-7.7473,-7.7394,-7.6401,-7.6113,-7.5538,-7.4391,-7.3992,-7.3435,-7.2167,-7.2375,-7.2075,-7.1224,-7.0531,-7.0034,-6.9476,-6.9451,-6.9451,-6.9451,-6.9451,-6.9451,-6.9451,-6.9451,-6.9195,-6.8864,-6.9128,-6.9357,-6.917,-6.917,-6.912,0.0,-5.4997,-5.7808,-5.9982,-6.0255,-5.9665,-5.883,-5.7148,-5.5685,-5.5533,-5.5583,-5.5751,-5.5905,-5.6287,-5.6814,-5.7822,-5.8068,0.0,0.0,0.0,0.0,-6.8899,-7.5355,0.0,0.0,-8.1524,-8.2622,-8.2622,-8.2622,-8.2622,-8.2622,-8.2439,-8.2308,-8.2308,-8.2308,-8.2596,-8.3145,-8.2596,-8.2491,-8.2831,-8.2491,-8.1994,-8.1419,-8.121,-8.0714,-8.0008,-7.9799,-7.9511,0.0,-7.9172,-7.9041,-7.8858,-7.8858,-7.8727,-7.8492,-7.8126,-7.7995,-7.7943,-7.7577,-7.7128,-7.6868,-7.6715,-7.6294,-7.6294,-7.7473,-7.844,-7.9119,-7.891,-7.8989,-7.9172,-7.9172,-7.9172,-7.9172,-7.9172,-7.9015,-7.8649,-7.7943,-7.7734,-7.7473,-7.6741,-7.7185,-7.7446,-7.6741,-7.7081,-7.7133,-7.6192,-7.6061,-7.5564,-7.4025,-7.394,-7.3333,-7.173,-7.1947,-7.1811,-7.0873,-7.0689,-7.0342,-6.9476,-6.9451,-6.9451,-6.9451,-6.9451,-6.9451,-6.9451,-6.9451,-6.9195,-6.8889,-6.9195,-6.9451,-6.9451,-6.9451,-6.922,0.0,-5.4807,-5.812,-5.7958,-5.8624,-5.9131,-5.8654,-5.7323,0.0,-5.6142,-5.6446,-5.6785,-5.6442,-5.6814,-5.7292,-5.7765,0.0,0.0,0.0,-6.2051,0.0,0.0,-7.3395,0.0,-7.6819,-8.0348,-8.2622,-8.2622,-8.2622,-8.2622,-8.2622,-8.2073,-8.1759,-8.1707,-8.1681,-8.1916,-8.2491,-8.1968,-8.1707,-8.1707,-8.1707,-8.1393,-8.0792,-8.0269,-8.0008,0.0,-7.9407,-7.9145,-7.9119,-7.9119,-7.8779,-7.8257,-7.8257,-7.7943,-7.7446,-7.742,-7.7394,-7.7394,-7.7368,-7.6602,-7.5761,-7.6346,-7.5848,-7.5373,-7.7572,-7.8623,-7.8962,-7.8518,-7.8753,-7.9172,-7.9172,-7.9172,-7.9172,-7.9172,-7.8727,-7.8309,-7.8257,-7.7394,-7.661,-7.6558,-7.6584,-7.661,-7.6558,-7.7028,-7.7211,-7.6636,-7.6558,-7.577,-7.3709,-7.3371,-7.2772,-7.1268,-7.1058,-7.0857,-7.0255,-7.0714,-7.0563,-6.9501,-6.9451,-6.9451,-6.9451,-6.9451,-6.9451,-6.9451,-6.9451,-6.9426,-6.9426,-6.9426,-6.9426,-6.9426,-6.9426,-6.9145,-5.3472,0.0,-5.541,-5.6251,-5.6893,-5.7242,0.0,0.0,0.0,-5.6479,-5.7014,-5.7303,-5.7449,-5.7926,-5.8302,0.0,0.0,-5.9255,-6.0091,0.0,0.0,-7.431,-7.8074,-8.006,-7.9302,-8.1289,-8.2622,-8.2622,-8.2622,-8.2622,-8.2622,-8.2073,-8.155,-8.1106,-8.0661,-8.0714,-8.1289,-8.1158,-8.108,-8.108,-8.108,-8.0792,-8.0217,-8.0086,-7.9799,-7.9355,-7.9224,-7.8936,-7.8518,-7.8518,-7.8178,-7.7656,-7.7656,-7.7577,-7.7394,-7.6976,-7.6819,-7.6741,-7.5926,-7.5321,-7.5192,-7.482,-7.5187,-7.5787,-7.683,-7.7193,-7.7453,-7.8753,-7.9067,-7.9172,-7.9172,-7.9172,-7.9172,-7.9172,-7.8727,-7.8204,-7.776,-7.7107,-7.6479,-7.6009,-7.6296,-7.6479,-7.6009,-7.6427,-7.661,-7.6009,-7.593,-7.5302,-7.3658,-7.3371,-7.2645,-7.0739,-7.0832,-7.0681,-6.9727,-7.0104,-7.0129,-6.9476,-6.9451,-6.9451,-6.9451,-6.9451,-6.9451,-6.9451,-6.9451,-6.917,-6.8839,-6.8839,-6.8839,-6.8839,-6.8839,-6.8814,-5.5077,-5.5491,-5.5206,-5.5846,-5.6226,-5.651,-5.6219,0.0,0.0,-5.6656,-5.7091,-5.7523,-5.7784,-5.8212,-5.8627,0.0,-5.9647,0.0,0.0,0.0,-7.2559,-7.6871,-7.9276,-8.074,0.0,-8.2073,-8.2622,-8.2622,-8.2387,-8.223,-8.223,-8.1419,-8.0818,-8.0505,-7.993,-7.9903,-8.0478,-8.0478,-8.0478,-8.0478,-8.0478,-8.0191,-7.9642,-7.9642,-7.9459,-7.9172,-7.9172,-7.8858,-7.8309,-7.8309,-7.7656,-7.6662,-7.6662,-7.6505,-7.6244,-7.5957,-7.5983,-7.6166,-7.5484,-7.5195,-7.4825,-7.4056,-7.4454,-7.514,-7.5735,-7.5922,-7.6316,-7.8623,-7.9172,-7.9172,-7.9172,-7.9172,-7.9093,-7.8832,-7.8335,-7.776,-7.7211,-7.661,-7.6113,-7.5774,-7.5983,-7.6087,-7.5774,-7.5983,-7.6087,-7.5406,-7.5538,-7.5042,-7.2931,-7.3033,-7.2492,-7.021,-7.038,-7.0355,-6.9526,-6.9727,-6.9752,-6.9451,-6.9451,-6.9451,-6.9451,-6.9451,-6.9451,-6.9451,-6.917,-6.8864,-6.8584,-6.8396,-6.8222,-6.8247,-6.8136,-6.8254,-5.5976,-5.6687,-5.6465,-5.6074,-5.6132,-5.6219,-5.6219,0.0,0.0,0.0,-5.7091,-5.7549,0.0,-5.8421,0.0,0.0,0.0,0.0,-6.8795,-7.1069,-7.3709,-7.7839,-7.9145,0.0,-8.2073,-8.2387,-8.2491,-8.2491,-8.1968,-8.1629,-8.1629,-8.0609,-8.0034,-8.0034,-7.9459,-7.9355,-7.9773,-7.9851,-7.9903,-7.9903,-7.9799,-7.9511,-7.9041,-7.8962,-7.891,-7.891,0.0,0.0,-7.8048,-7.7969,-7.7002,-7.5591,-7.5591,-7.5303,-7.4911,-7.4911,-7.5251,-7.5538,-7.5354,-7.4985,-7.4454,-7.3707,-7.3749,-7.418,-7.4959,-7.5172,-7.5695,-7.8204,-7.891,-7.891,-7.891,-7.8989,-7.8884,-7.8335,-7.776,-7.7211,-7.6715,-7.614,-7.5721,-7.5721,-7.5721,-7.5721,-7.5721,-7.5721,-7.5538,-7.5195,-7.5354,-7.4806,-7.2568,-7.2956,-7.2466,-7.016,-7.0154,-7.0154,-6.9627,-6.9577,-6.9526,-6.9451,-6.9451,-6.9451,-6.9451,-6.9451,-6.9451,-6.9451,-6.8945,-6.854,-6.839,-6.7942,-6.7628,-6.7654,-6.7743,-6.7732,-5.6302,-5.7273,-5.7548,-5.6782,-5.6435,-5.6219,-5.6219,-5.6219,0.0,0.0,0.0,0.0,0.0,-5.9186,-6.0274,0.0,0.0,-6.7671,0.0,0.0,-7.6427,-7.8126,0.0,-8.1655,-8.0531,-8.1315,-8.1916,-8.1916,-8.1341,-8.1001,-8.1001,-8.0374,-8.0034,-8.0034,-7.9459,-7.8989,-7.8597,-7.9067,-7.9302,-7.9302,-7.8806,-7.8544,-7.844,-7.7943,-7.7734,-7.7734,0.0,-7.7394,-7.6845,-7.6323,-7.5695,-7.5042,-7.5042,-7.499,-7.4911,-7.4911,-7.5068,-7.501,-7.4081,-7.3494,-7.3118,-7.3331,-7.3818,-7.4377,-7.5316,-7.603,-7.6558,-7.7473,-7.7734,-7.7734,-7.7734,-7.8074,-7.8309,-7.7734,-7.7159,-7.6715,-7.6636,-7.614,-7.5721,-7.5721,-7.5721,-7.5721,-7.5721,-7.5721,-7.5721,-7.5538,-7.5721,-7.5459,-7.4567,-7.3812,-7.311,-7.2327,-7.1394,-7.0732,-7.0179,-7.0129,-6.9928,-6.9476,-6.9451,-6.9451,-6.9451,-6.9451,-6.9451,-6.9451,-6.8851,-6.8448,-6.7862,-6.7431,-6.7056,-6.7056,-6.7086,-6.7187,-5.6053,-5.6771,-5.6922,-5.6868,-5.7271,-5.7499,-5.7198,-5.7123,-5.7047,0.0,0.0,0.0,0.0,0.0,-6.2835,-6.6469,0.0,-7.1121,-7.4519,-7.593,-7.7263,0.0,0.0,-8.1158,-8.1001,-8.1472,-8.1629,-8.1315,-8.0452,-7.9956,-7.9956,-7.9407,-7.8962,-7.8649,-7.8675,-7.844,-7.7865,-7.7812,-7.7943,-7.8257,-7.7969,-7.7865,-7.7839,-7.7263,-7.7002,-7.6976,0.0,-7.6218,-7.5669,-7.5382,-7.4754,-7.3944,-7.3944,-7.3944,-7.397,-7.3923,-7.4235,-7.4361,-7.3435,-7.3037,-7.3088,-7.3418,-7.3647,-7.3738,-7.4363,-7.4391,-7.4467,-7.5355,-7.6505,-7.7473,-7.7473,-7.742,-7.7342,-7.7054,-7.6558,-7.6113,-7.6113,-7.5904,-7.5721,-7.5721,-7.5721,-7.5721,-7.5721,-7.5721,-7.5538,-7.5354,-7.5538,-7.5224,-7.4202,-7.4202,-7.3812,-7.2829,-7.2251,-7.1679,-7.1124,-7.0613,-7.0029,-6.9476,-6.9451,-6.9451,-6.9451,-6.9451,-6.9275,-6.8899,-6.8448,-6.7868,-6.7329,-6.6732,-6.646,-6.646,-6.6758,-6.7253,-5.6051,-5.6495,-5.6721,-5.7123,-5.77,-5.8202,-5.858,-5.853,-5.8303,-5.853,-5.9008,0.0,0.0,-6.2406,0.0,-7.0964,-7.2768,-7.4467,-7.7024,-7.7734,-7.8518,-8.0205,-8.0505,-8.0792,-8.1681,-8.1524,-8.1106,-8.0531,-7.9537,-7.891,-7.8779,-7.8361,-7.7917,-7.7473,-7.7891,-7.7786,-7.7054,-7.6767,-7.6819,-7.7263,-7.7002,-7.6871,-7.6845,-7.627,-7.6009,-7.5983,-7.5512,-7.5068,-7.4676,-7.4545,-7.3944,-7.3108,-7.3108,-7.3108,-7.3035,-7.3044,-7.3223,-7.3455,-7.2944,-7.2868,-7.311,-7.3486,-7.3555,-7.3276,-7.3457,-7.3039,-7.2872,-7.3761,-7.5382,-7.6871,-7.6871,-7.6532,-7.6218,-7.6218,-7.5852,-7.5565,-7.5695,-7.5721,-7.5721,-7.5721,-7.5721,-7.5721,-7.5721,-7.5721,-7.5538,-7.5195,-7.5538,-7.5172,-7.3996,-7.4541,-7.4279,-7.3038,-7.2791,-7.2395,-7.1687,-7.0638,-6.9878,-6.9476,-6.9451,-6.9451,-6.9451,-6.9451,-6.9175,-6.8597,-6.817,-6.7743,-6.7136,-6.656,-6.6359,-6.6384,-6.6682,-6.7035,-5.6821,-5.7374,-5.7801,-5.7826,-5.7123,-5.7195,-6.0226,-6.0069,-6.0116,-6.2476,-6.3067,-6.294,-6.2484,-6.5411,-6.889,-7.248,-7.5303,-7.7702,-7.9658,0.0,-8.1457,-8.1559,-8.157,-8.1681,-8.1759,-8.0792,-7.9903,-7.9328,-7.8727,-7.8152,-7.7603,-7.7551,-7.7499,-7.7473,-7.7499,-7.6976,-7.5852,-7.6349,-7.6636,-7.6662,-7.5591,-7.5094,-7.5068,-7.4467,-7.4205,-7.4179,-7.4153,-7.4101,-7.4022,-7.3474,-7.3186,-7.3108,-7.3108,-7.2779,-7.2372,-7.2594,-7.2156,-7.152,-7.2911,-7.2758,-7.2156,-7.3635,-7.3768,-7.3457,-7.3817,-7.3944,-7.3892,-7.3996,-7.4519,-7.5094,-7.5094,-7.5068,-7.5042,-7.5042,-7.499,-7.5094,-7.5617,-7.5721,-7.5721,-7.5721,-7.5721,-7.5721,-7.5721,-7.5721,-7.5721,-7.5721,-7.5721,-7.5695,-7.5459,-7.4748,-7.4191,-7.4114,-7.3205,-7.2238,-7.1184,-7.0104,-6.9501,-6.9451,-6.9451,-6.9451,-6.9451,-6.9451,-6.9145,-6.8534,-6.8622,-6.8348,-6.7693,-6.7212,-6.698,-6.698,-6.6409,-6.6417,-5.647,-5.6922,-5.7374,-5.7374,-5.7047,-5.7549,-6.0821,-6.1374,-6.1592,-6.3615,-6.4627,-6.5173,-6.6015,0.0,-7.0854,-7.387,-7.6142,-7.8104,-7.9456,-8.0486,-8.11,-8.0409,-8.086,-8.1076,-8.0374,-8.0101,-7.9642,-7.8701,-7.81,-7.7525,-7.6976,-7.6924,-7.661,-7.5904,-7.6192,-7.5643,-7.4101,-7.431,-7.3895,-7.3039,-7.3869,-7.4153,-7.3761,-7.282,-7.2585,-7.2898,-7.1842,-7.192,-7.2545,-7.1946,-7.1744,-7.1701,-7.1701,-7.1755,-7.1911,-7.1265,-7.1059,-7.1135,-7.1755,-7.1763,-7.1621,-7.3089,-7.3328,-7.2759,-7.3269,-7.3212,-7.3029,-7.3343,-7.3369,-7.3447,-7.4153,-7.4336,-7.4441,-7.4807,-7.4336,-7.4049,-7.5016,-7.5199,-7.5199,-7.5199,-7.5486,-7.5721,-7.5721,-7.5721,-7.5721,-7.5721,-7.5721,-7.5538,-7.5354,-7.4985,-7.4614,-7.4217,-7.3376,-7.231,-7.1158,-7.038,-6.9803,-6.9451,-6.9451,-6.9451,-6.9451,-6.9125,-6.8899,-6.8619,-6.8296,-6.7819,-6.7367,-6.7016,-6.6815,-6.646,-6.6941,-6.7363,-5.6219,-5.6495,-5.6821,-5.6997,0.0,-5.8278,-6.1943,-6.2647,-6.3299,-6.6157,-6.6657,-6.7005,-6.882,-6.9889,-7.1346,0.0,-7.6369,-7.8009,-7.8938,-7.9756,-8.0162,-7.9194,-7.9714,-7.9825,-7.9074,-7.9047,-7.8753,-7.7577,-7.7133,-7.6584,-7.5826,-7.5617,-7.5225,-7.465,-7.4624,-7.4049,-7.2872,-7.2846,-7.22,-7.074,-7.2258,-7.2519,-7.192,-7.114,-7.101,-7.1199,-7.0222,-7.0152,-7.0849,-7.0462,-7.0339,-7.0347,-7.0349,-7.0656,-7.0809,-7.0424,-7.0371,-7.0674,-7.1585,-7.1591,-7.1497,-7.299,-7.3199,-7.2575,-7.2722,-7.2585,-7.2376,-7.2742,-7.2716,-7.2689,-7.3317,-7.3474,-7.3604,-7.4205,-7.3709,-7.3395,-7.4414,-7.4624,-7.4624,-7.4624,-7.5068,-7.546,-7.546,-7.5591,-7.5721,-7.5538,-7.5538,-7.5302,-7.4567,-7.4696,-7.4614,-7.4056,-7.302,-7.2066,-7.1108,-7.0405,-6.9853,-6.9476,-6.9451,-6.9451,-6.9451,-6.9074,-6.8773,-6.8572,-6.8396,-6.7943,-6.7567,-6.7417,-6.7015,-6.6736,-6.7341,-6.7918,-5.6219,-5.6219,-5.6344,0.0,0.0,0.0,-6.3475,-6.4078,-6.5276,-7.0624,-6.9711,-6.8524,-7.0548,-7.0095,-7.0426,-7.3595,-7.6113,-7.7788,-7.8314,0.0,0.0,-7.8466,-7.8462,-7.8375,-7.8375,-7.791,-7.6976,-7.58,-7.5695,-7.5199,-7.4075,-7.3447,-7.3395,-7.397,-7.2898,-7.2297,-7.2297,-7.2297,-7.1809,-7.0688,-7.0688,-7.0229,-6.9194,-6.9713,-6.9713,-6.9194,-6.9194,-6.9194,-6.9194,-6.9194,-6.9194,-6.9245,-6.9282,-6.9333,-6.946,-7.0009,-6.9903,-6.9858,-7.2415,-7.2628,-7.1988,-7.3455,-7.3604,-7.3003,-7.2454,-7.2297,-7.2297,-7.2297,-7.2689,-7.2977,-7.2454,-7.2297,-7.2428,-7.2977,-7.3108,-7.3264,-7.3866,-7.3996,-7.3996,-7.3996,-7.4493,-7.4911,-7.4911,-7.5355,-7.5538,-7.501,-7.501,-7.4619,-7.3448,-7.3858,-7.403,-7.3519,-7.2505,-7.1636,-7.1083,-7.0079,-6.9451,-6.9451,-6.9451,-6.9451,-6.9451,-6.9451,-6.9125,-6.8624,-6.91,-6.9145,-6.8559,-6.8093,-6.7735,-6.7792,-6.7689,-6.784,-5.6001,-5.6495,0.0,-5.7499,0.0,0.0,0.0,-6.4655,0.0,-7.1922,-7.1872,-7.1083,-7.2552,-7.1872,-7.1645,-7.3446,-7.4607,-7.5541,-7.6051,0.0,0.0,0.0,0.0,-7.692,-7.6124,-7.6103,-7.6087,-7.5748,-7.4963,-7.4362,-7.4022,-7.3839,-7.3447,-7.282,-7.2846,-7.2122,-7.0577,-7.1355,-7.0927,-6.9075,-6.9424,-6.9727,-6.9757,-6.911,-6.8982,-6.9142,-6.7979,-6.7934,-6.8671,-6.8321,-6.8321,-6.8697,-6.8322,-6.8222,-6.8247,-6.8422,-6.8673,-6.8999,-7.0577,-7.1113,-7.137,-7.245,-7.273,-7.2497,-7.2304,-7.2297,-7.2297,-7.2297,-7.2428,-7.2506,-7.235,-7.2297,-7.2533,-7.35,-7.3134,-7.282,-7.3787,-7.3683,-7.3369,-7.3369,-7.4205,-7.4911,-7.4911,-7.5355,-7.5538,-7.501,-7.4674,-7.3996,-7.3078,-7.2809,-7.2512,-7.235,-7.1696,-7.1117,-7.0531,-6.9853,-6.9451,-6.9451,-6.9451,-6.9451,-6.9451,-6.9074,-6.8949,-6.915,-6.8974,-6.8519,-6.804,-6.7945,-6.7565,-6.7196,-6.7964,-6.862,-5.5065,0.0,0.0,-5.8604,-6.0085,-6.222,-6.566,0.0,0.0,-7.3142,-7.3016,-7.259,-7.372,-7.264,0.0,-7.3368,-7.387,-7.4197,-7.4548,-7.4674,0.0,0.0,0.0,0.0,0.0,-7.4648,-7.4755,-7.4702,-7.4049,-7.3552,-7.3343,-7.3108,-7.2768,-7.2323,-7.1757,-7.1036,-6.9911,-6.9739,-6.8963,-6.7811,-6.7953,-6.8132,-6.8468,-6.7953,-6.7826,-6.7934,-6.6676,-6.6379,-6.6808,-6.6661,-6.6787,-6.7161,-6.7215,-6.7267,-6.7493,-6.7719,-6.802,-6.8396,-6.9892,-7.0732,-7.1218,-7.2344,-7.2601,-7.2675,-7.2304,-7.2297,-7.2297,-7.2297,-7.2297,-7.2297,-7.2297,-7.2297,-7.248,-7.316,-7.2794,-7.248,-7.3186,-7.3055,-7.2794,-7.2794,-7.3735,-7.4545,-7.4545,-7.4834,-7.5094,-7.4774,-7.376,-7.2982,-7.2657,-7.2092,-7.1704,-7.1932,-7.1452,-7.0815,-7.028,-6.9752,-6.9451,-6.9451,-6.9451,-6.9451,-6.9451,-6.9125,-6.91,-6.9426,-6.9125,-6.8848,-6.8444,-6.8196,-6.7969,-6.7806,-6.8642,-6.9224,0.0,0.0,0.0,-5.9722,-6.1757,0.0,-6.8648,-7.1234,-7.3067,-7.4247,0.0,-7.3368,-7.4372,-7.2866,-7.1912,-7.3293,-7.3468,-7.3418,-7.3293,-7.2791,0.0,0.0,0.0,0.0,0.0,0.0,-7.3016,-7.3081,-7.2898,-7.2611,-7.2167,-7.1444,-7.1392,-7.1887,-7.0006,-6.9264,-6.9636,-6.7723,-6.6678,-6.6873,-6.6264,-6.5899,-6.6036,-6.655,-6.6354,-6.5936,-6.5434,-6.4931,-6.4454,-6.4454,-6.4756,-6.5283,-6.5835,-6.6363,-6.689,-6.7442,-6.7693,-6.8045,-6.9942,-7.0731,-7.1114,-7.244,-7.3029,-7.3003,-7.2454,-7.2297,-7.2297,-7.2297,-7.2297,-7.2297,-7.2297,-7.2297,-7.2297,-7.2297,-7.2297,-7.2323,-7.2376,-7.2323,-7.2297,-7.2297,-7.3238,-7.3996,-7.3996,-7.4131,-7.4128,-7.4011,-7.2319,-7.1519,-7.237,-7.1693,-7.1236,-7.1693,-7.1287,-7.0776,-7.0179,-6.9727,-6.9451,-6.9451,-6.9451,-6.9451,-6.9451,-6.9451,-6.9451,-6.9451,-6.9451,-6.9426,-6.9376,-6.8878,-6.8801,-6.9232,-6.9675,-6.9727,0.0,0.0,0.0,0.0,0.0,-6.797,-7.0229,-7.1761,-7.3167,-7.4749,-7.5201,-7.5427,-7.5653,-7.495,-7.4046,-7.3067,-7.2539,-7.1962,-7.1108,-7.0506,-7.0154,0.0,0.0,0.0,0.0,0.0,0.0,0.0,-7.0854,-7.0058,-7.0421,-6.9971,-6.9566,-6.9257,-6.8725,-6.8399,-6.8157,-6.7196,-6.6923,0.0,-6.5931,-6.5528,-6.5459,-6.5629,-6.5402,-6.4806,-6.4705,-6.458,-6.4454,-6.4454,-6.453,-6.4705,-6.5258,-6.5534,-6.571,-6.6262,-6.6764,-6.7366,-6.8463,-6.9757,-7.0986,-7.153,-7.2376,-7.3003,-7.2454,-7.2297,-7.2297,-7.2297,-7.2297,-7.2297,-7.2297,-7.2297,-7.2297,-7.2297,-7.2297,-7.2428,-7.2846,-7.2611,-7.2297,-7.2297,-7.3238,-7.3817,-7.3457,-7.395,-7.387,-7.2594,-7.1982,-7.161,-7.1494,-7.1243,-7.0966,-7.0664,-7.0513,-7.0261,-6.9652,-6.9501,-6.9451,-6.9451,-6.9451,-6.9451,-6.9451,-6.9451,-6.9451,-6.9451,-6.9786,-6.9764,-6.9333,-6.9257,-6.9154,-6.9199,-6.968,-7.0061,0.0,0.0,0.0,0.0,0.0,0.0,-7.0832,-7.1736,-7.2665,-7.3795,-7.4699,-7.5276,-7.5276,-7.4598,-7.3669,-7.2514,-7.1661,-7.0832,-6.9978,-6.9175,-6.8748,0.0,0.0,0.0,0.0,0.0,0.0,0.0,0.0,-6.9231,-6.954,-6.9367,-6.9065,-6.8758,-6.8048,-6.7724,-6.7634,-6.6373,-6.5824,-6.576,-6.5183,-6.4756,-6.453,-6.4781,-6.4605,-6.4103,-6.4103,-6.3927,-6.3676,-6.3676,-6.3852,-6.4153,-6.468,-6.5057,-6.5358,-6.5911,-6.6312,-6.6762,-6.7902,-6.8937,-6.983,-7.0672,-7.1592,-7.2245,-7.1958,-7.2062,-7.2297,-7.2297,-7.2297,-7.2297,-7.2297,-7.2297,-7.2297,-7.2297,-7.2297,-7.2376,-7.2663,-7.2506,-7.2297,-7.2297,-7.3238,-7.3817,-7.3457,-7.3635,-7.3442,-7.2117,-7.1671,-7.151,-7.1485,-7.0782,-7.028,-7.0255,-7.0029,-6.9752,-6.9476,-6.9451,-6.9451,-6.9451,-6.9702,-6.9727,-6.9451,-6.9702,-6.9883,-6.9812,-6.9966,-7.0018,-6.9714,-6.9638,-6.9662,-6.9636,-7.0163,-7.0493,0.0,0.0,0.0,0.0,0.0,0.0,0.0,-7.1359,-7.1887,-7.2339,-7.3343,-7.4096,-7.3996,-7.3217,-7.2313,0.0,0.0,-6.9727,-6.8974,-6.8095,0.0,0.0,0.0,0.0,0.0,0.0,0.0,0.0,0.0,-6.8687,-6.8585,-6.8662,-6.8713,-6.8713,-6.7374,-6.6702,-6.7182,-6.5276,-6.4329,-6.4329,-6.4228,-6.3952,-6.355,-6.3977,-6.3952,-6.355,-6.355,-6.3274,-6.2822,-6.2822,-6.3099,-6.3601,-6.4128,-6.4605,-6.5082,-6.5634,-6.5886,-6.6208,-6.7545,-6.8194,-6.8596,-6.9943,-7.0807,-7.1252,-7.1252,-7.1618,-7.201,-7.201,-7.2062,-7.214,-7.214,-7.2219,-7.2297,-7.2297,-7.2297,-7.2297,-7.2297,-7.2297,-7.2297,-7.2297,-7.2956,-7.3481,-7.2941,-7.3161,-7.279,-7.1861,-7.1535,-7.1485,-7.1861,-7.0706,-6.9978,-7.0229,-6.9953,-6.9702,-6.9602,-6.9602,-6.9627,-6.9727,-7.0054,-7.0104,-6.9752,-7.0079,-7.0236,-7.0298,-7.0375,-7.0375,-7.0656,-7.0449,-7.0424,-7.0503,-7.0725,-7.0927,0.0,0.0,0.0,0.0,0.0,0.0,0.0,0.0,0.0,0.0,0.0,0.0,0.0,0.0,0.0,0.0,0.0,0.0,0.0,0.0,0.0,0.0,0.0,0.0,0.0,0.0,0.0,0.0,-6.7367,-6.6992,-6.6484,-6.6404,-6.651,-6.651,-6.5906,-6.5604,-6.5679,-6.4379,-6.3802,-6.3776,-6.3299,-6.2998,-6.2948,-6.3023,-6.2998,-6.2948,-6.2948,-6.2898,-6.2822,-6.2822,-6.2873,-6.2998,-6.3576,-6.3827,-6.3977,-6.4505,-6.4982,-6.5578,-6.6525,-6.7553,-6.8545,-6.9449,-7.0206,-7.0703,-7.0703,-7.0755,-7.0834,-7.0834,-7.1147,-7.1513,-7.1513,-7.1905,-7.2297,-7.2297,-7.2297,-7.2297,-7.2297,-7.2297,-7.2297,-7.2297,-7.2112,-7.1833,-7.1446,-7.1838,-7.1836,-7.1284,-7.1937,-7.2364,-7.1962,-7.1711,-7.1234,-7.0355,-7.0631,-7.0656,-7.0204,-7.0154,-7.0355,-7.0832,-7.048,-7.043,-7.0857,-7.048,-7.0412,-7.0881,-7.0758,-7.1294,-7.214,-7.1572,-7.134,-7.1417,-7.1516,-7.1516,0.0,0.0,0.0,0.0,0.0,0.0,0.0,0.0,0.0,0.0,0.0,0.0,0.0,0.0,0.0,0.0,0.0,0.0,0.0,0.0,0.0,0.0,0.0,0.0,0.0,0.0,0.0,0.0,-6.5867,-6.542,-6.5168,-6.5528,-6.5383,-6.4781,-6.4806,-6.468,-6.4404,-6.3601,-6.3375,-6.3676,-6.2797,-6.2697,-6.3299,-6.2647,-6.2546,-6.2822,-6.2822,-6.2822,-6.2822,-6.2822,-6.2822,-6.2898,-6.3475,-6.3701,-6.3751,-6.4279,-6.4798,-6.5335,-6.6029,-6.6875,-6.7906,-6.8576,-6.9344,-7.0102,-7.0102,-7.0337,-7.0598,-7.0598,-7.099,-7.1409,-7.1409,-7.1853,-7.2297,-7.2297,-7.2122,-7.1946,-7.2297,-7.2297,-7.2402,-7.2362,-7.1731,-7.1265,-7.1388,-7.1477,-7.146,-7.1535,-7.1686,-7.1937,-7.2313,-7.156,-7.0907,-7.0732,-7.038,-7.0079,-6.9828,-6.9803,-6.9903,-7.0154,-7.0229,-7.0229,-7.0179,-7.0594,-7.0982,-7.1344,-7.1167,-7.1165,-7.1601,-7.152,-7.1417,-7.1214,-7.1417,-7.1594,0.0,0.0,0.0,0.0,0.0,0.0,0.0,0.0,0.0,0.0,0.0,0.0,0.0,0.0,0.0,0.0,0.0,0.0,0.0,0.0,0.0,0.0,0.0,0.0,0.0,0.0,0.0,0.0,-6.4798,-6.4404,-6.4279,-6.4781,-6.4705,-6.3927,-6.4279,-6.4153,-6.3475,-6.2772,-6.2621,-6.3048,-6.2195,-6.2245,-6.3023,-6.2169,-6.2019,-6.2421,-6.2546,-6.2621,-6.2621,-6.2621,-6.2621,-6.2672,-6.3249,-6.3475,-6.3525,-6.4068,-6.4461,-6.4919,-6.5085,-6.5607,-6.6567,-6.6899,-6.7634,-6.8501,-6.8863,-6.9448,-6.9919,-6.9919,-7.0546,-7.12,-7.1027,-7.1574,-7.2122,-7.2122,-7.177,-7.1594,-7.1946,-7.2122,-7.2076,-7.1959,-7.132,-7.0906,-7.113,-7.0966,-7.1058,-7.161,-7.146,-7.1585,-7.2414,-7.1435,-7.0732,-7.0857,-7.028,-6.9803,-6.9652,-6.9652,-6.9702,-6.9853,-7.0104,-7.0129,-6.9878,-7.0649,-7.1164,-7.1525,-7.1167,-7.1114,-7.142,-7.1646,-7.1594,-7.1214,-7.1594,-7.177,0.0,0.0,0.0,0.0,0.0,0.0,0.0,0.0,0.0,0.0,0.0,0.0,0.0,0.0,0.0,0.0,0.0,0.0,0.0,0.0,0.0,0.0,0.0,0.0,0.0,0.0,0.0,0.0,-6.4203,-6.4254,-6.3751,-6.4228,-6.4479,-6.4429,-6.4454,-6.3952,-6.2873,-6.1818,-6.1291,-6.1316,-6.1266,-6.1266,-6.1316,-6.124,-6.124,-6.1291,-6.1818,-6.2044,-6.2044,-6.2044,-6.2044,-6.2094,-6.2647,-6.2873,-6.2873,-6.3387,-6.3905,-6.4171,-6.3294,-6.3452,-6.4094,-6.4379,-6.4597,-6.4981,-6.6711,-6.7645,-6.8115,-6.8115,-6.9344,-7.0453,-7.011,-7.0766,-7.1594,-7.1594,-7.124,-7.0859,-7.1037,-7.1417,-7.1417,-7.0554,-7.0196,-7.0017,-6.9526,-6.9953,-7.048,-7.1033,-7.1535,-7.1887,-7.1937,-7.1887,-7.1435,-7.0405,-7.0706,-7.0782,-7.0255,-7.0204,-7.043,-7.0958,-7.0531,-7.048,-7.0983,-7.1054,-7.0982,-7.0982,-7.1345,-7.2004,-7.3055,-7.2559,-7.2297,-7.2297,-7.2297,-7.2297,0.0,0.0,0.0,0.0,0.0,0.0,0.0,0.0,0.0,0.0,0.0,0.0,0.0,0.0,0.0,0.0,0.0,0.0,0.0,0.0,0.0,0.0,0.0,0.0,0.0,0.0,0.0,0.0,0.0,-6.2948,-6.3124,-6.3676,-6.3626,-6.2923,-6.3224,-6.2546,-6.0713,-6.0286,-5.9935,-5.9608,-5.9935,-6.0286,-6.0638,-6.0638,-6.0839,-6.1165,-6.0989,-6.114,-6.1492,-6.1868,-6.1994,-6.2069,-6.2621,-6.2822,-6.2822,-6.3311,-6.3086,-6.2415,-6.239,-6.2214,-6.2128,-6.3494,-6.4053,-6.4663,-6.6581,-6.7514,-6.7985,-6.7985,-6.8978,-6.9932,-6.998,-7.0196,-7.041,-7.0244,-7.0603,-7.0681,-7.0145,-7.0324,-7.0503,-7.0324,-6.9966,-6.9631,-6.9451,-6.9602,-6.9928,-7.048,-7.0732,-7.0983,-7.1334,-7.1058,-7.0706,-7.0305,-7.0129,-6.9953,-6.9752,-6.9727,-6.9828,-7.0029,-6.9853,-6.9828,-7.0029,-7.0551,-7.0988,-7.0988,-7.1697,-7.205,-7.2056,-7.2565,-7.2637,-7.2323,-7.2663,-7.2637,-4.881,0.0,0.0,0.0,0.0,0.0,0.0,0.0,0.0,0.0,0.0,0.0,0.0,0.0,0.0,0.0,0.0,0.0,0.0,0.0,0.0,0.0,0.0,0.0,0.0,0.0,0.0,0.0,0.0,0.0,-6.2245,-6.2647,-6.2421,-6.1466,-6.1441,-6.0738,-5.9257,-5.9056,-5.878,-5.8453,-5.8805,-5.9156,-5.9508,-5.9709,-5.9885,-6.0085,-6.006,-6.0362,-6.0914,-6.1291,-6.1542,-6.1793,-6.2345,-6.2672,-6.2822,-6.3311,-6.296,-6.2281,-6.2092,-6.1795,-6.1733,-6.292,-6.35,-6.4133,-6.601,-6.6939,-6.7462,-6.7645,-6.8367,-6.9215,-6.9274,-6.954,-6.9578,-6.9257,-6.9917,-7.0503,-6.9631,-6.9786,-7.0145,-6.9966,-6.9631,-6.9451,-6.9451,-6.9451,-6.9627,-7.0179,-7.0255,-7.0405,-7.0757,-7.048,-7.0179,-7.0003,-6.9652,-6.9451,-6.9451,-6.9631,-6.9631,-6.9631,-6.9812,-6.9966,-6.9966,-7.0707,-7.1037,-7.1037,-7.1946,-7.2122,-7.177,-7.2487,-7.2663,-7.2323,-7.2663,-7.2637,0.0,0.0,0.0,0.0,0.0,0.0,0.0,0.0,0.0,0.0,0.0,0.0,0.0,0.0,0.0,0.0,0.0,0.0,0.0,0.0,0.0,0.0,0.0,0.0,0.0,0.0,0.0,0.0,-6.114,-6.114,-6.1165,-6.1165,-6.0889,-6.0286,-5.9257,-5.8679,-5.8679,-5.8127,-5.7851,-5.7851,-5.7876,-5.7876,-5.7901,-5.8453,-5.8403,-5.7951,-5.9006,-5.9759,-6.0286,-6.0311,-6.0638,-6.1215,-6.1793,-6.2345,-6.2797,-6.3311,-6.3797,-6.3797,-6.2584,-6.2395,-6.2697,-6.2697,-6.2697,-6.3022,-6.4868,-6.5815,-6.639,-6.6939,-6.7602,-6.8138,-6.8314,-6.8795,-6.9131,-6.8597,-6.9357,-6.9966,-6.9451,-6.9786,-6.9966,-6.9451,-6.9451,-6.9451,-6.9451,-6.9451,-6.9627,-7.0154,-7.0229,-7.0229,-7.0229,-7.0229,-7.0029,-6.9501,-6.9451,-6.9451,-6.9451,-6.9991,-7.0171,-7.0145,-7.0707,-7.0885,-7.0859,-7.1391,-7.1594,-7.1594,-7.2122,-7.2297,-7.2297,-7.2323,-7.2323,-7.2297,-7.2297,-7.2297,-4.761,0.0,0.0,0.0,0.0,0.0,0.0,0.0,0.0,0.0,0.0,0.0,0.0,0.0,0.0,0.0,0.0,0.0,0.0,0.0,0.0,0.0,0.0,0.0,0.0,0.0,0.0,0.0,-6.0186,-6.0136,-6.0537,-6.0563,-6.0136,-5.9182,-5.8478,-5.7926,-5.7499,-5.6947,-5.6671,-5.6671,-5.7072,-5.7273,-5.7298,-5.7851,-5.8052,-5.7926,-5.8202,-5.8654,-5.9232,-6.001,-6.0412,-6.0663,-6.1617,-6.2255,-6.2729,-6.3644,-6.3448,-6.2584,-6.2559,-6.1548,-6.0553,-6.2206,-6.2534,-6.2722,-6.4709,-6.5815,-6.639,-6.6939,-6.7316,-6.7518,-6.7214,-6.7689,-6.8197,-6.802,-6.8624,-6.9128,-6.9351,-6.9451,-6.9631,-6.9451,-6.9451,-6.9451,-6.9451,-6.9451,-6.9501,-6.9652,-6.9677,-6.9677,-6.9677,-6.9677,-6.9627,-6.9451,-6.9451,-6.9631,-6.9966,-7.0526,-7.0577,-7.0171,-7.1065,-7.1116,-7.035,-7.124,-7.1594,-7.1594,-7.2122,-7.2297,-7.2297,-7.2689,-7.2689,-7.2297,-7.2297,-7.2297,-4.7051,-4.7134,-4.7258,-4.7838,0.0,0.0,-4.7051,-4.7361,0.0,0.0,0.0,0.0,0.0,0.0,0.0,0.0,0.0,0.0,0.0,0.0,0.0,0.0,0.0,0.0,0.0,-5.9633,-5.9307,-5.9307,-5.9006,-5.8981,-5.9282,-5.9081,-5.8654,-5.8027,-5.7474,-5.6922,-5.6344,-5.6269,-5.6093,-5.5867,-5.642,-5.6696,-5.6721,-5.7273,-5.7424,-5.7223,-5.77,-5.7951,-5.8102,-5.9207,-5.991,-6.0387,-6.1223,-6.2071,-6.2636,-6.3338,-6.3245,-6.2935,-6.3235,-6.2584,-6.1903,-6.3372,-6.372,-6.3746,-6.5053,-6.5473,-6.5756,-6.6536,-6.6847,-6.7067,-6.655,-6.6938,-6.7518,-6.7744,-6.8221,-6.8773,-6.9325,-6.9451,-6.9451,-6.9451,-6.9451,-6.9451,-6.9451,-6.9451,-6.9451,-6.9451,-6.9451,-6.9451,-6.9451,-6.9451,-6.9451,-6.9451,-6.9451,-6.9451,-6.9812,-7.027,-7.05,-7.0171,-7.0988,-7.1218,-7.0885,-7.124,-7.1641,-7.1582,-7.1992,-7.2297,-7.2297,-7.2611,-7.2611,-7.2297,-7.2297,-7.2297,-4.6326,-4.6347,-4.6637,-4.7838,-4.732,0.0,-4.6885,-4.6451,-4.6849,0.0,0.0,0.0,0.0,0.0,0.0,0.0,0.0,0.0,0.0,0.0,0.0,0.0,0.0,0.0,-5.8629,-5.8177,-5.7876,-5.7801,-5.7801,-5.7775,-5.77,-5.7273,-5.6997,-5.6947,-5.642,-5.5892,-5.539,-5.5817,-5.5817,-5.539,-5.5892,-5.6143,-5.6219,-5.6721,-5.6646,-5.6168,-5.7248,-5.7424,-5.7022,-5.8152,-5.9207,-6.0317,-6.0831,-6.1621,-6.2433,-6.2821,-6.3338,-6.4042,-6.4254,-6.4441,-6.4761,-6.5238,-6.5397,-6.5212,-6.5053,-6.4894,-6.4994,-6.5943,-6.6412,-6.6429,-6.6112,-6.6488,-6.7015,-6.7568,-6.812,-6.8673,-6.9225,-6.922,-6.9064,-6.9451,-6.9451,-6.9451,-6.9451,-6.9245,-6.9064,-6.9451,-6.9245,-6.9064,-6.9451,-6.9401,-6.9376,-6.9426,-6.9401,-6.9376,-6.9606,-7.0042,-7.0401,-7.0324,-7.0758,-7.1114,-7.1594,-7.1594,-7.1485,-7.1409,-7.1931,-7.2193,-7.2193,-7.2271,-7.2297,-7.2297,-7.2297,-7.2297,-4.6244,-4.6347,-4.6409,-4.6678,-4.7092,0.0,-4.6616,-4.7196,-4.8168,0.0,0.0,0.0,0.0,0.0,0.0,0.0,0.0,0.0,0.0,0.0,0.0,0.0,0.0,0.0,-5.8052,-5.7951,-5.77,-5.7248,-5.7198,-5.7022,-5.657,-5.6846,-5.6821,-5.6394,-5.5842,-5.5491,-5.539,-5.5064,-5.5064,-5.539,-5.5491,-5.5792,-5.6219,-5.6319,-5.6068,-5.5591,-5.6244,-5.647,-5.6445,-5.8022,-5.8857,-5.9591,-6.1089,-6.1626,-6.2069,-6.3771,-6.392,-6.3689,-6.4764,-6.4761,-6.4441,-6.5079,-6.5238,-6.4601,-6.3184,-6.372,-6.4859,-6.5313,-6.4843,-6.4802,-6.5742,-6.6187,-6.6413,-6.7015,-6.7568,-6.812,-6.8673,-6.7809,-6.7531,-6.9064,-6.9451,-6.9451,-6.9451,-6.8105,-6.7556,-6.9064,-6.8105,-6.7556,-6.9245,-6.9049,-6.8949,-6.9401,-6.9049,-6.9307,-7.0477,-7.0731,-7.0987,-7.1266,-7.1474,-7.1346,-7.1063,-7.1417,-7.1309,-7.0888,-7.134,-7.1592,-7.1592,-7.2062,-7.2297,-7.2297,-7.2297,-7.2297,-4.6285,-4.6347,-4.6409,-4.6637,-4.703,0.0,0.0,-4.7051,-4.8021,0.0,0.0,0.0,0.0,0.0,0.0,0.0,0.0,0.0,0.0,0.0,0.0,0.0,0.0,0.0,-5.7047,-5.7047,-5.6947,-5.6646,-5.662,-5.6495,-5.6219,-5.647,-5.6495,-5.6219,-5.5942,-5.5541,-5.4988,-5.4988,-5.4838,-5.4561,-5.4838,-5.5114,-5.539,-5.5666,-5.5641,-5.5415,-5.5968,-5.6219,-5.6294,-5.7845,-5.8777,-5.9335,-6.1326,-6.1992,-6.2095,-6.3439,-6.3432,-6.314,-6.4217,-6.4162,-6.392,-6.4975,-6.4549,-6.3372,-6.3695,-6.4453,-6.5068,-6.3751,-6.4185,-6.5,-6.4653,-6.5397,-6.6262,-6.684,-6.7392,-6.7591,-6.7193,-6.6774,-6.6328,-6.6063,-6.6993,-6.7922,-6.7922,-6.6214,-6.5258,-6.619,-6.64,-6.677,-6.7739,-6.8634,-6.915,-6.9401,-6.8949,-6.8901,-6.9714,-6.9561,-6.946,-6.9713,-7.0019,-7.0223,-7.0095,-7.0272,-7.0369,-6.9952,-7.0646,-7.0975,-7.1062,-7.1261,-7.1748,-7.2297,-7.2297,-7.2297,-4.6347,-4.6533,-4.6782,-4.6989,-4.7361,-4.7506,0.0,0.0,0.0,0.0,0.0,0.0,0.0,0.0,0.0,0.0,0.0,0.0,0.0,0.0,0.0,0.0,0.0,0.0,-5.6194,-5.6219,-5.6219,-5.6219,-5.6219,-5.6219,-5.6219,-5.6219,-5.6219,-5.6219,-5.6118,-5.5566,-5.4587,-5.4888,-5.4445,-5.3263,-5.4019,-5.4319,-5.4135,-5.497,-5.534,-5.5265,-5.5917,-5.6143,-5.6289,-5.7943,-5.8897,-5.9373,-6.1373,-6.2174,-6.2274,-6.2845,-6.2787,-6.2585,-6.3462,-6.3565,-6.3664,-6.4793,-6.3779,-6.2345,-6.4389,-6.4623,-6.3919,-6.2519,-6.3768,-6.5075,-6.408,-6.4851,-6.6237,-6.6689,-6.7041,-6.6834,-6.5585,-6.5151,-6.446,-6.2919,-6.3548,-6.4577,-6.5347,-6.4273,-6.3187,-6.3187,-6.4343,-6.5327,-6.6214,-6.7824,-6.8939,-6.9426,-6.8848,-6.8675,-6.8801,-6.8221,-6.7945,-6.8297,-6.8472,-6.8952,-6.9486,-6.9384,-6.9307,-6.9373,-7.0239,-7.0568,-7.0584,-7.074,-7.1226,-7.2114,-7.201,-7.1958,-4.6347,-4.7237,-4.7962,-4.7217,-4.8541,-4.9597,-4.792,0.0,-4.8731,-4.8128,0.0,0.0,0.0,0.0,0.0,0.0,0.0,0.0,0.0,0.0,0.0,0.0,0.0,0.0,0.0,-5.6219,-5.6219,-5.6219,-5.6219,-5.6219,-5.6219,-5.6219,-5.6219,-5.6219,-5.5742,-5.5189,-5.4587,-5.411,-5.3106,-5.1656,-5.3172,-5.3329,-5.2478,-5.4514,-5.5114,-5.4712,-5.5767,-5.6088,-5.6192,-5.8232,-5.9219,-5.9817,-6.1525,-6.1942,-6.1762,-6.2742,-6.2655,-6.2265,-6.2867,-6.3513,-6.4126,-6.4455,-6.3152,-6.1738,-6.3286,-6.1492,-5.9641,-6.3101,-6.3497,-6.3321,-6.5272,-6.594,-6.6137,-6.6187,-6.5369,-6.4497,-6.4391,-6.1833,-6.0306,-6.1761,-5.9358,-5.8277,-6.1829,-6.257,-6.2682,-6.2682,-6.1357,-6.1895,-6.5957,-6.6542,-6.7357,-6.9195,-6.8878,-6.8625,-6.9106,-6.875,-6.8878,-6.971,-6.9382,-6.9531,-7.0069,-6.9587,-6.9485,-6.9937,-7.0436,-7.0403,-6.9989,-7.0923,-7.1382,-7.1487,-7.1017,-7.0781,-4.6347,-4.7134,-4.7879,-4.7506,-4.8541,-4.9431,-4.8666,-4.879,-4.9276,-4.9847,0.0,0.0,0.0,0.0,0.0,0.0,-5.5979,0.0,0.0,0.0,0.0,0.0,0.0,0.0,0.0,0.0,0.0,0.0,-5.6018,-5.6068,-5.5742,-5.6043,-5.6219,-5.6219,-5.5993,-5.5591,-5.5039,-5.4787,-5.4052,-5.2675,-5.3403,-5.3378,-5.2601,-5.4202,-5.4787,-5.4637,-5.5742,-5.6239,-5.6233,-5.783,-5.8738,-5.9148,-6.065,-6.1324,-6.1634,-6.2019,-6.1939,-6.154,-6.2741,-6.3076,-6.3038,-6.2406,-6.2546,-6.2772,-6.1763,-6.1634,-6.1764,-6.2177,-6.2323,-6.2654,-6.3766,-6.4233,-6.4478,-6.4478,-6.4166,-6.3481,-6.1074,-5.9792,-5.8759,-5.8118,-5.7932,-5.7549,-5.7582,-5.8291,-5.8899,-5.9181,-6.0092,-6.1299,-6.2684,-6.5735,-6.7694,-6.7665,-6.816,-6.8726,-6.8953,-6.8499,-6.8322,-6.865,-6.8826,-6.8974,-6.9307,-6.9586,-6.9511,-6.8675,-7.0009,-7.0255,-6.954,-7.0126,-7.0415,-7.0415,-7.0546,-7.0598,-4.6451,-4.7279,-4.8169,-4.7775,-4.8479,-4.9183,-4.8935,-4.8976,-4.9318,-5.0353,-5.0522,0.0,0.0,0.0,-5.3791,-5.7324,0.0,-5.5477,0.0,-5.6344,0.0,0.0,0.0,0.0,0.0,0.0,0.0,-5.544,-5.5767,-5.5817,-5.5415,-5.5767,-5.6068,-5.6219,-5.6219,-5.5942,-5.539,-5.539,-5.4359,-5.2392,-5.3263,-5.2989,-5.1656,-5.3612,-5.4561,-5.4637,-5.5742,-5.6365,-5.6681,-5.7798,-5.836,-5.8948,-5.9985,-6.0658,-6.1223,-6.1198,-6.0856,-6.0605,-6.1837,-6.2328,-6.2267,-6.1719,-6.2584,-6.3635,-6.1457,-6.225,-6.3615,-6.2051,-6.1788,-6.2071,-6.2336,-6.2696,-6.2857,-6.2445,-6.2778,-6.214,-5.8654,-5.7836,-5.7249,-5.5446,-5.638,-5.6909,-5.4652,-5.5658,-5.6736,-5.6878,-5.9248,-6.0871,-6.0926,-6.4505,-6.6738,-6.5584,-6.6348,-6.707,-6.7454,-6.7285,-6.7313,-6.802,-6.8396,-6.8622,-6.8622,-6.9509,-6.9408,-6.8271,-6.9863,-7.0313,-6.9424,-6.972,-6.9866,-6.971,-6.9997,-7.0128,-4.6699,-4.7982,-4.9369,-4.8024,-4.8728,-4.9494,-4.8603,-4.8748,-4.881,-4.8067,-4.9502,-5.1441,-5.2605,-5.3825,-5.5193,-5.7499,-5.7399,0.0,0.0,-5.6997,-5.6796,-5.6269,-5.6219,0.0,0.0,0.0,-5.5993,-5.544,-5.5415,-5.5415,-5.539,-5.5415,-5.5666,-5.6194,-5.6219,-5.5942,-5.539,-5.539,-5.3326,-4.9314,-5.2225,-5.1815,-4.8575,-5.271,-5.4561,-5.4637,-5.5742,-5.6656,-5.7431,-5.7969,-5.88,-5.954,-5.981,-5.9947,-6.015,-6.015,-5.9697,-5.9322,-5.9904,-6.1196,-6.2425,-6.3254,-6.3473,-6.3473,-6.2822,-6.2847,-6.2973,-6.3525,-6.2317,-6.1157,-6.2167,-6.2432,-6.2226,-6.0743,-6.0498,-5.9772,-5.7775,-5.5996,-5.4565,-5.4565,-5.4565,-5.442,-5.3944,-5.6269,-5.8169,-5.7981,-5.8169,-5.9251,-6.2099,-6.2942,-6.3314,-6.3468,-6.299,-6.3308,-6.4632,-6.4993,-6.5982,-6.8369,-6.8622,-6.8622,-6.8622,-6.915,-6.9426,-6.9401,-7.0299,-7.0577,-7.0014,-7.0317,-7.0259,-6.9684,-6.9135,-6.8899,-4.7444,-4.8686,-4.9866,-4.8479,-4.8955,-4.9431,-4.8189,-4.9469,-5.0585,-4.9496,-5.1101,-5.3062,-5.4187,-5.3928,-5.4467,-5.7872,-5.7289,-5.6712,0.0,-5.6972,-5.642,-5.6244,-5.6219,-5.6143,0.0,0.0,0.0,-5.4888,-5.4838,-5.4838,-5.4838,-5.5189,-5.5641,-5.6194,-5.6219,-5.6118,-5.5942,-5.5942,-5.4932,-5.2788,-5.3836,-5.3396,-5.1981,-5.3761,-5.4762,-5.5164,-5.6269,-5.7041,-5.7677,-5.8091,-5.8799,-5.9459,-5.9513,-5.8827,-5.8006,-5.8006,-5.8936,-6.0413,-6.0082,-6.0576,-6.1244,-6.1309,-6.2117,-6.2985,-6.2822,-6.2822,-6.2873,-6.3073,-6.111,-5.9374,-6.0959,-6.0136,-5.8549,-5.8001,-5.8085,-5.7775,-5.5974,-5.4883,-5.4544,-5.4544,-5.4296,-5.413,-5.4275,-5.4843,-5.5847,-5.7415,-5.7383,-5.7831,-5.9861,-6.1042,-6.1972,-6.2268,-6.3336,-6.4789,-6.6656,-6.7181,-6.7533,-6.8095,-6.8773,-6.9178,-6.9004,-6.9329,-6.9631,-7.0324,-7.0681,-7.0754,-7.0539,-7.088,-7.0651,-6.9684,-6.9501,-6.9213,-4.7506,-4.8666,-4.9845,-4.8479,-4.8707,-4.8997,-4.792,-4.9237,-5.0348,-4.9261,-5.024,-5.185,-5.3959,-5.3319,-5.3608,-5.7822,-5.7289,-5.6535,0.0,-5.6475,-5.5901,-5.5435,-5.5901,-5.6143,-5.5942,-5.5767,-5.529,-5.4336,-5.4461,-5.4486,0.0,0.0,-5.534,-5.5892,-5.6118,-5.6219,-5.6219,-5.6018,-5.4862,-5.2912,-5.3316,-5.2921,-5.1815,-5.3168,-5.4309,-5.5164,-5.6269,-5.7141,-5.7664,-5.8019,-5.8602,-5.9287,-5.8629,-5.7696,-5.6876,-5.6876,-5.8093,-5.94,-5.8165,-5.8664,-5.9878,-6.0122,-6.0935,-6.1977,-6.2659,-6.2822,-6.2709,-6.22,-6.0095,-5.8113,-5.8994,-5.7895,-5.6544,-5.5828,-5.6522,-5.6868,-5.4883,-5.4544,-5.4544,-5.4544,-5.4296,-5.413,-5.4275,-5.4048,-5.4529,-5.6968,-5.7696,-5.8447,-5.9373,-6.0701,-6.128,-6.0855,-6.2018,-6.3809,-6.6232,-6.7466,-6.797,-6.7819,-6.8648,-6.9178,-6.9333,-6.9509,-7.0067,-7.1167,-7.0934,-7.0828,-7.0999,-7.0923,-7.0415,-6.9684,-6.9474,-6.9187]},{"header":{"parameterUnit":"m.s-1","parameterCategory":1,"la1":30.6,"la2":29.2853,"lo1":-89.7004,"lo2":-87.6739,"dy":0.0162,"dx":0.0183,"nx":112,"ny":82,"refTime":"2023-03-11T06:00:00:Z","depth":0,"parameterNumber":3,"parameterNumberName":"V-component_of_WINDS"},"data":[0.0,0.0,0.0,0.0,0.0,0.0,0.0,0.0,0.0,0.0,0.0,0.0,0.0,0.0,0.0,0.0,0.0,0.0,0.0,0.0,0.0,0.0,0.0,0.0,0.0,0.0,0.0,0.0,0.0,0.0,0.0,0.0,0.0,0.0,0.0,0.0,0.0,0.0,0.0,0.0,0.0,0.0,0.0,0.0,0.0,0.0,0.0,0.0,0.0,0.0,0.0,0.0,0.0,0.0,0.0,0.0,0.0,0.0,0.0,0.0,0.0,0.0,0.0,0.0,0.0,0.0,0.0,0.0,0.0,0.0,0.0,0.0,0.0,0.0,0.0,0.0,0.0,0.0,0.0,0.0,0.0,0.0,0.0,0.0,0.0,0.0,0.0,0.0,0.0,0.0,-5.6163,-6.4666,-6.9846,-7.2641,-7.2631,-7.1648,-6.8886,-6.3676,0.0,0.0,0.0,0.0,0.0,0.0,0.0,0.0,0.0,0.0,0.0,0.0,0.0,0.0,0.0,0.0,0.0,0.0,0.0,0.0,0.0,0.0,0.0,0.0,0.0,0.0,0.0,0.0,0.0,0.0,0.0,0.0,0.0,0.0,0.0,0.0,0.0,0.0,0.0,0.0,0.0,0.0,0.0,0.0,0.0,0.0,0.0,0.0,0.0,0.0,0.0,0.0,0.0,0.0,0.0,0.0,0.0,0.0,0.0,0.0,0.0,0.0,0.0,0.0,0.0,0.0,0.0,0.0,0.0,0.0,0.0,0.0,0.0,0.0,0.0,0.0,0.0,0.0,0.0,0.0,0.0,0.0,0.0,0.0,0.0,0.0,0.0,0.0,0.0,0.0,0.0,0.0,0.0,0.0,0.0,0.0,0.0,0.0,0.0,0.0,0.0,0.0,0.0,0.0,-5.4856,-6.6969,-7.0897,-7.2631,-7.2555,-7.249,-7.0147,-6.5101,0.0,0.0,0.0,0.0,0.0,0.0,0.0,0.0,0.0,0.0,0.0,0.0,0.0,0.0,0.0,0.0,0.0,0.0,0.0,0.0,0.0,0.0,0.0,0.0,0.0,0.0,0.0,0.0,0.0,0.0,0.0,0.0,0.0,0.0,0.0,0.0,0.0,0.0,0.0,0.0,0.0,0.0,0.0,0.0,0.0,0.0,0.0,0.0,0.0,0.0,0.0,0.0,0.0,0.0,0.0,0.0,0.0,0.0,0.0,0.0,0.0,0.0,0.0,0.0,0.0,0.0,0.0,0.0,0.0,0.0,0.0,0.0,0.0,0.0,0.0,0.0,0.0,0.0,0.0,0.0,0.0,0.0,0.0,0.0,0.0,0.0,0.0,0.0,0.0,0.0,0.0,0.0,0.0,0.0,0.0,0.0,0.0,0.0,0.0,0.0,0.0,0.0,0.0,-5.8577,-6.0729,-6.8033,-7.0178,-7.1422,-7.2453,-7.2274,-7.033,-6.6228,-6.4598,0.0,0.0,0.0,0.0,0.0,0.0,0.0,0.0,0.0,0.0,0.0,0.0,0.0,0.0,0.0,0.0,0.0,0.0,0.0,0.0,0.0,0.0,0.0,0.0,0.0,0.0,0.0,0.0,0.0,0.0,0.0,0.0,0.0,0.0,0.0,0.0,0.0,0.0,0.0,0.0,0.0,0.0,0.0,0.0,0.0,0.0,0.0,0.0,0.0,0.0,0.0,0.0,0.0,0.0,0.0,0.0,0.0,0.0,0.0,0.0,0.0,0.0,0.0,0.0,0.0,0.0,0.0,0.0,0.0,0.0,0.0,0.0,0.0,0.0,0.0,0.0,0.0,0.0,0.0,0.0,0.0,0.0,0.0,0.0,0.0,0.0,0.0,0.0,0.0,0.0,0.0,0.0,0.0,0.0,0.0,0.0,0.0,0.0,0.0,0.0,0.0,0.0,-6.4189,-6.6506,-6.8589,-6.9728,-7.0802,-7.2282,-7.1673,-7.0047,-6.7289,-6.6099,0.0,0.0,0.0,0.0,0.0,0.0,0.0,0.0,0.0,0.0,0.0,0.0,0.0,0.0,0.0,0.0,0.0,0.0,0.0,0.0,0.0,0.0,0.0,0.0,0.0,0.0,0.0,0.0,0.0,0.0,0.0,0.0,0.0,0.0,0.0,0.0,0.0,0.0,0.0,0.0,0.0,0.0,0.0,0.0,0.0,0.0,0.0,0.0,0.0,0.0,0.0,0.0,0.0,0.0,0.0,0.0,0.0,0.0,0.0,0.0,0.0,0.0,0.0,0.0,0.0,0.0,0.0,0.0,0.0,0.0,0.0,0.0,0.0,0.0,0.0,0.0,0.0,0.0,0.0,0.0,0.0,0.0,0.0,0.0,0.0,0.0,0.0,0.0,0.0,0.0,0.0,0.0,0.0,0.0,0.0,0.0,0.0,0.0,0.0,0.0,0.0,0.0,-6.664,-6.8214,-6.8707,-7.0517,-7.1586,-7.1731,-7.0599,-6.9321,-6.7899,-6.5519,0.0,0.0,0.0,0.0,0.0,0.0,0.0,0.0,0.0,0.0,0.0,0.0,0.0,0.0,0.0,0.0,0.0,0.0,0.0,0.0,0.0,0.0,0.0,0.0,0.0,0.0,0.0,0.0,0.0,0.0,0.0,0.0,0.0,0.0,0.0,0.0,0.0,0.0,0.0,0.0,0.0,0.0,0.0,0.0,0.0,0.0,0.0,0.0,0.0,0.0,0.0,0.0,0.0,0.0,0.0,0.0,0.0,0.0,0.0,0.0,0.0,0.0,0.0,0.0,0.0,0.0,0.0,0.0,0.0,0.0,0.0,0.0,0.0,0.0,0.0,0.0,0.0,0.0,0.0,0.0,0.0,0.0,0.0,0.0,0.0,0.0,0.0,0.0,0.0,0.0,0.0,0.0,0.0,0.0,0.0,0.0,0.0,0.0,0.0,0.0,0.0,0.0,-6.6932,-6.8388,-6.9001,-7.0671,-7.1818,-7.2224,-7.1818,-7.0482,-6.8044,0.0,0.0,0.0,0.0,0.0,0.0,0.0,0.0,0.0,0.0,0.0,0.0,0.0,0.0,0.0,0.0,0.0,0.0,0.0,0.0,0.0,0.0,0.0,0.0,0.0,0.0,0.0,0.0,0.0,0.0,0.0,0.0,0.0,0.0,0.0,0.0,0.0,0.0,0.0,0.0,0.0,0.0,0.0,0.0,0.0,0.0,0.0,0.0,0.0,0.0,0.0,0.0,0.0,0.0,0.0,0.0,0.0,0.0,0.0,0.0,0.0,0.0,0.0,0.0,0.0,0.0,0.0,0.0,0.0,0.0,0.0,0.0,0.0,0.0,0.0,0.0,0.0,0.0,0.0,0.0,0.0,0.0,0.0,0.0,0.0,0.0,0.0,0.0,0.0,0.0,0.0,0.0,0.0,0.0,0.0,0.0,0.0,0.0,0.0,0.0,0.0,0.0,-6.5502,-6.7219,-6.869,-7.0068,-7.1546,-7.2544,-7.3153,-7.2485,-7.1092,-6.8915,0.0,0.0,0.0,0.0,0.0,0.0,0.0,0.0,0.0,0.0,0.0,0.0,0.0,0.0,0.0,0.0,0.0,0.0,0.0,0.0,0.0,0.0,0.0,0.0,0.0,0.0,0.0,0.0,0.0,0.0,0.0,0.0,0.0,0.0,0.0,0.0,0.0,0.0,0.0,0.0,0.0,0.0,0.0,0.0,0.0,0.0,0.0,0.0,0.0,0.0,0.0,0.0,0.0,0.0,0.0,0.0,0.0,0.0,0.0,0.0,0.0,0.0,0.0,0.0,0.0,0.0,0.0,0.0,0.0,0.0,0.0,0.0,0.0,0.0,0.0,0.0,0.0,0.0,0.0,0.0,0.0,0.0,0.0,0.0,0.0,0.0,0.0,0.0,0.0,0.0,0.0,0.0,0.0,0.0,0.0,0.0,0.0,0.0,0.0,0.0,0.0,0.0,-6.7025,-6.7775,-6.8899,-7.1882,-7.3119,-7.3879,-7.4459,-7.2195,-7.0744,0.0,0.0,0.0,0.0,0.0,0.0,0.0,0.0,0.0,0.0,0.0,0.0,0.0,0.0,0.0,0.0,0.0,0.0,0.0,0.0,0.0,0.0,0.0,0.0,0.0,0.0,0.0,0.0,0.0,0.0,0.0,0.0,0.0,0.0,0.0,0.0,0.0,0.0,0.0,0.0,0.0,0.0,0.0,0.0,0.0,0.0,0.0,0.0,0.0,0.0,0.0,0.0,0.0,0.0,0.0,0.0,0.0,0.0,0.0,0.0,0.0,0.0,0.0,0.0,0.0,0.0,0.0,0.0,0.0,0.0,0.0,0.0,0.0,0.0,0.0,0.0,0.0,0.0,0.0,0.0,0.0,0.0,0.0,0.0,0.0,0.0,0.0,0.0,0.0,0.0,0.0,0.0,0.0,0.0,0.0,0.0,0.0,0.0,0.0,0.0,0.0,0.0,0.0,-6.7418,-6.8117,-6.947,-7.2944,-7.4076,-7.4635,-7.4547,-7.385,-7.2948,-7.1889,0.0,0.0,0.0,0.0,0.0,0.0,0.0,0.0,0.0,0.0,0.0,0.0,0.0,0.0,0.0,0.0,0.0,0.0,0.0,0.0,0.0,0.0,0.0,0.0,0.0,0.0,0.0,0.0,0.0,0.0,0.0,0.0,0.0,0.0,0.0,0.0,0.0,0.0,0.0,0.0,0.0,0.0,0.0,0.0,0.0,0.0,0.0,0.0,0.0,0.0,0.0,0.0,0.0,0.0,0.0,0.0,0.0,0.0,0.0,0.0,0.0,0.0,0.0,0.0,0.0,0.0,0.0,0.0,0.0,0.0,0.0,0.0,0.0,0.0,0.0,0.0,0.0,0.0,0.0,0.0,0.0,0.0,0.0,0.0,0.0,0.0,0.0,0.0,0.0,0.0,0.0,0.0,0.0,0.0,0.0,0.0,0.0,0.0,0.0,0.0,0.0,0.0,-6.8315,-6.8951,-7.071,-7.4609,-7.5475,-7.5978,-7.6592,-7.5568,-7.4281,-7.249,0.0,0.0,0.0,0.0,0.0,0.0,0.0,0.0,0.0,0.0,0.0,0.0,0.0,0.0,0.0,0.0,0.0,0.0,0.0,0.0,0.0,0.0,0.0,0.0,0.0,0.0,0.0,0.0,0.0,0.0,0.0,0.0,0.0,0.0,0.0,0.0,0.0,0.0,0.0,0.0,0.0,0.0,0.0,0.0,0.0,0.0,0.0,0.0,0.0,0.0,0.0,0.0,0.0,0.0,0.0,0.0,0.0,0.0,0.0,0.0,0.0,0.0,0.0,0.0,0.0,0.0,0.0,0.0,0.0,0.0,0.0,0.0,0.0,0.0,0.0,0.0,0.0,0.0,0.0,0.0,0.0,0.0,0.0,0.0,0.0,0.0,0.0,0.0,0.0,0.0,0.0,0.0,0.0,0.0,0.0,0.0,0.0,0.0,0.0,0.0,0.0,0.0,-6.9782,-7.042,-7.2238,-7.6753,-7.7058,-7.7711,-7.9303,-7.7328,-7.5146,-7.3201,0.0,0.0,0.0,0.0,0.0,0.0,0.0,0.0,0.0,0.0,0.0,0.0,0.0,0.0,0.0,0.0,0.0,0.0,0.0,0.0,0.0,0.0,0.0,0.0,0.0,0.0,0.0,0.0,0.0,0.0,0.0,0.0,0.0,0.0,0.0,0.0,0.0,0.0,0.0,0.0,0.0,0.0,0.0,0.0,0.0,0.0,0.0,0.0,0.0,0.0,0.0,0.0,0.0,0.0,0.0,0.0,0.0,0.0,0.0,0.0,-5.515,-5.4934,0.0,0.0,0.0,0.0,0.0,0.0,0.0,0.0,0.0,0.0,0.0,0.0,0.0,0.0,0.0,0.0,0.0,0.0,0.0,0.0,0.0,0.0,0.0,0.0,0.0,0.0,0.0,0.0,0.0,0.0,0.0,0.0,0.0,0.0,0.0,0.0,0.0,0.0,0.0,0.0,-7.1787,-7.1804,-7.2984,-7.6813,-7.8033,-7.8656,-7.8743,-7.8301,-7.7297,-7.5661,-7.3011,0.0,0.0,0.0,0.0,0.0,0.0,0.0,0.0,0.0,0.0,0.0,0.0,0.0,0.0,0.0,0.0,0.0,0.0,0.0,0.0,0.0,0.0,0.0,0.0,0.0,0.0,0.0,0.0,0.0,0.0,0.0,0.0,0.0,0.0,0.0,0.0,0.0,0.0,0.0,0.0,0.0,0.0,0.0,0.0,0.0,0.0,0.0,0.0,0.0,0.0,0.0,0.0,0.0,0.0,0.0,0.0,0.0,0.0,0.0,-5.6941,-5.6567,0.0,0.0,0.0,0.0,0.0,0.0,0.0,0.0,0.0,0.0,0.0,0.0,0.0,0.0,0.0,0.0,0.0,0.0,0.0,0.0,0.0,0.0,0.0,0.0,0.0,0.0,0.0,0.0,0.0,0.0,0.0,0.0,0.0,0.0,0.0,0.0,0.0,0.0,0.0,0.0,-7.2984,-7.3343,-7.4599,-7.7635,-7.8619,-7.9128,-7.9605,-7.8803,-7.7407,-7.5757,-7.3431,0.0,0.0,0.0,0.0,0.0,0.0,0.0,0.0,0.0,0.0,0.0,0.0,0.0,0.0,0.0,0.0,0.0,0.0,0.0,0.0,0.0,0.0,0.0,0.0,0.0,0.0,0.0,0.0,0.0,0.0,0.0,0.0,0.0,0.0,0.0,0.0,0.0,0.0,0.0,0.0,0.0,0.0,0.0,0.0,0.0,0.0,0.0,0.0,0.0,0.0,0.0,0.0,0.0,-6.1215,-6.1775,-6.221,-6.3367,-6.2713,-6.0704,-5.8993,-5.8623,-5.8845,-5.6404,0.0,0.0,0.0,0.0,0.0,0.0,0.0,0.0,0.0,0.0,0.0,0.0,0.0,0.0,0.0,0.0,0.0,0.0,0.0,0.0,0.0,0.0,-6.6578,-6.8268,-6.9265,-6.8928,-6.6066,0.0,0.0,0.0,0.0,0.0,0.0,0.0,0.0,0.0,0.0,0.0,-7.3851,-7.4749,-7.6125,-7.8519,-7.8878,-7.9417,-8.0524,-7.9118,-7.7352,-7.5497,-7.3941,-7.1906,0.0,0.0,0.0,0.0,0.0,0.0,0.0,0.0,0.0,0.0,0.0,0.0,0.0,0.0,0.0,0.0,0.0,0.0,0.0,0.0,0.0,0.0,0.0,0.0,0.0,0.0,0.0,0.0,0.0,0.0,0.0,0.0,-5.5425,-5.5557,0.0,0.0,0.0,0.0,0.0,0.0,0.0,0.0,0.0,0.0,0.0,0.0,0.0,-6.0783,-6.0509,-6.1556,-6.2178,-6.2469,-6.3214,-6.3635,-6.3732,-6.3449,-6.3394,-6.3563,-6.2512,0.0,-5.87,-5.6452,0.0,0.0,0.0,0.0,0.0,0.0,0.0,0.0,0.0,0.0,0.0,0.0,0.0,0.0,0.0,0.0,0.0,0.0,0.0,0.0,0.0,0.0,-6.7363,-6.9466,-7.0397,-7.0754,-7.1185,-7.111,-7.1004,-7.1117,-7.056,-7.032,0.0,0.0,0.0,0.0,0.0,0.0,-7.4629,-7.5826,-7.7143,-7.8639,-7.9327,-7.9746,-7.9926,-7.9716,-7.8938,-7.7502,-7.5138,-7.3821,-7.3971,-7.0679,0.0,0.0,0.0,0.0,0.0,0.0,0.0,0.0,0.0,0.0,0.0,0.0,0.0,0.0,0.0,0.0,0.0,0.0,0.0,0.0,0.0,0.0,0.0,0.0,0.0,0.0,0.0,0.0,0.0,-5.6631,-5.6577,-5.4957,-5.628,-5.7025,0.0,0.0,0.0,0.0,0.0,0.0,0.0,0.0,0.0,-5.9362,-6.136,-6.2273,-6.2139,-6.302,-6.4121,-6.5319,-6.5643,-6.6187,-6.7054,-6.6818,-6.6542,-6.6101,-6.5652,-6.4899,-6.373,-6.1143,-5.9677,-5.8842,0.0,0.0,0.0,0.0,-6.2797,-6.3835,-6.4677,-6.5419,-6.607,-6.6201,0.0,0.0,0.0,0.0,0.0,0.0,0.0,-6.8102,-6.8102,-6.9379,-7.0686,-7.1079,-7.2372,-7.3672,-7.4078,-7.405,-7.3806,-7.3163,-7.3163,-7.3492,-7.4061,-7.3283,0.0,0.0,0.0,-7.4809,-7.5826,-7.6784,-7.7741,-7.8699,-7.9058,-7.9238,-7.9238,-7.9238,-7.8669,-7.7352,-7.5497,-7.4061,-7.3223,-7.1547,-7.0829,0.0,0.0,0.0,0.0,0.0,0.0,0.0,0.0,0.0,0.0,0.0,0.0,0.0,0.0,0.0,0.0,0.0,0.0,0.0,0.0,0.0,0.0,0.0,0.0,0.0,0.0,0.0,0.0,-5.7297,-5.7553,-5.5069,-5.7422,-5.8727,0.0,0.0,0.0,0.0,0.0,0.0,-6.0104,-6.0654,-6.1751,-6.3326,-6.417,-6.4764,-6.5023,-6.5546,-6.6711,-6.8266,-6.8124,-6.8723,-6.9982,-6.9464,-6.8899,-6.822,-6.805,-6.8177,-6.8102,-6.5249,-6.3017,-6.1513,-6.2023,-6.2166,-6.2383,-6.4125,-6.5286,-6.6157,-6.7434,-6.8305,-6.8654,-6.7725,-6.8573,-6.96,-6.7392,0.0,0.0,0.0,0.0,-7.0105,-7.0424,-7.205,-7.3531,-7.3211,-7.4808,-7.6328,-7.665,-7.6902,-7.6464,-7.4779,-7.4929,-7.5437,-7.5617,-7.4659,0.0,-7.5018,-7.5288,-7.5617,-7.6245,-7.7352,-7.825,-7.8729,-7.8789,-7.8789,-7.8789,-7.8789,-7.831,-7.7143,-7.6006,-7.4629,-7.2984,-7.2415,-7.1697,-7.0739,0.0,0.0,0.0,0.0,0.0,0.0,0.0,0.0,0.0,0.0,0.0,0.0,0.0,0.0,0.0,0.0,0.0,0.0,0.0,0.0,0.0,0.0,0.0,0.0,0.0,0.0,0.0,0.0,0.0,-5.6802,-5.8766,0.0,0.0,0.0,0.0,-6.1113,-6.2448,-6.2979,-6.2595,-6.4057,-6.5041,-6.5283,-6.7883,-6.9812,-7.0656,-7.0935,-7.1083,-7.1213,-7.0613,-7.0757,-7.1351,-6.9519,-6.9064,-6.9496,-6.9031,-6.906,-6.9437,-6.6186,-6.5896,-6.726,-6.546,-6.5867,-6.7434,-6.6912,-6.7551,-6.8567,-6.8044,-6.8305,-6.9118,-7.0831,-7.2253,-7.3095,-7.1731,-7.1353,0.0,0.0,-7.0657,-7.0947,-7.2166,-7.3037,-7.4198,-7.655,-7.7491,-7.8176,-7.9123,-7.9692,-7.9158,-7.6285,-7.4839,-7.418,-7.4809,0.0,-7.3702,-7.3163,-7.5168,-7.6305,-7.5138,-7.7173,-7.8759,-7.8789,-7.8789,-7.8789,-7.8789,-7.8789,-7.8489,-7.7801,-7.7113,-7.6425,-7.5736,-7.3881,-7.2834,-7.2774,-7.0979,0.0,0.0,0.0,0.0,0.0,0.0,0.0,0.0,0.0,0.0,0.0,0.0,0.0,0.0,0.0,0.0,0.0,0.0,0.0,0.0,0.0,0.0,0.0,0.0,0.0,0.0,0.0,0.0,-6.0359,-6.2471,0.0,-6.281,-6.2864,-6.2901,-6.2901,-6.3505,-6.4355,-6.5538,-6.6611,-6.7623,-6.8557,-7.0058,-7.0902,-7.1292,-7.1869,-7.1886,-7.1537,-7.1497,-7.136,-7.1012,-7.041,-7.0548,-7.0965,-7.1115,-7.1644,-7.2195,-7.144,-7.0308,-6.9031,-6.8334,-6.8247,-6.8567,-6.9147,-6.9902,-7.0744,-7.1353,-7.2253,-7.3095,-7.295,-7.2398,-7.1731,-7.1702,-7.1673,-7.1876,-7.2892,-7.3472,-7.3995,-7.4866,-7.5882,-7.6811,-7.7304,-7.8044,-7.885,-7.9388,-7.9899,-7.9991,-7.9122,-7.834,-7.7652,-7.7442,-7.6485,-7.5856,-7.6036,-7.6514,-7.6814,-7.6784,-7.7951,-7.8789,-7.8789,-7.8789,-7.8609,-7.819,-7.816,-7.7711,-7.6664,-7.6365,-7.5946,-7.5258,-7.4151,-7.3343,-7.2924,-7.1368,-7.0769,0.0,0.0,0.0,0.0,0.0,0.0,0.0,0.0,0.0,0.0,0.0,0.0,0.0,0.0,0.0,0.0,0.0,0.0,0.0,0.0,0.0,0.0,0.0,0.0,0.0,-6.18,-6.3012,-6.3521,-6.556,-6.6699,-6.5879,-6.5963,-6.6148,-6.6377,-6.6647,-6.7392,-6.8557,-6.927,-7.0209,-7.144,-7.212,-7.2735,-7.3221,-7.3463,-7.3338,-7.2832,-7.2421,-7.1956,-7.1553,-7.1567,-7.1933,-7.2369,-7.3008,-7.3647,-7.4314,-7.4924,-7.3937,-7.1963,-7.1324,-7.0802,-7.0541,-7.1382,-7.2108,-7.2747,-7.3618,-7.475,-7.565,-7.4605,-7.3531,-7.2747,-7.3153,-7.3124,-7.324,-7.4488,-7.5156,-7.565,-7.6288,-7.742,-7.8407,-7.8378,-7.8881,-7.9723,-8.0389,-8.0546,-8.0852,-8.1303,-8.0764,-7.9926,-7.9238,-7.84,-7.7891,-7.81,-7.7771,-7.7652,-7.8071,-7.8519,-7.8789,-7.8789,-7.8789,-7.8519,-7.7861,-7.8011,-7.7502,-7.6006,-7.5916,-7.5497,-7.4569,-7.4121,-7.3582,-7.2924,-7.1577,-7.1128,-7.1547,0.0,0.0,0.0,0.0,0.0,0.0,0.0,0.0,0.0,0.0,0.0,0.0,0.0,0.0,0.0,0.0,0.0,0.0,0.0,0.0,0.0,0.0,0.0,-6.3447,-6.482,-6.5929,-6.603,-6.8045,-6.9154,-6.84,-6.9675,-7.0792,-7.1504,-7.2184,-7.2282,-7.1601,-7.2249,-7.2962,-7.3642,-7.4322,-7.5358,-7.6702,-7.6005,-7.5451,-7.5055,-7.3464,-7.2865,-7.3112,-7.2736,-7.3008,-7.3676,-7.4314,-7.4953,-7.5592,-7.623,-7.6491,-7.6317,-7.4459,-7.3734,-7.3705,-7.3705,-7.4111,-7.4634,-7.4634,-7.5475,-7.6462,-7.5824,-7.6056,-7.6579,-7.6579,-7.6143,-7.5621,-7.5621,-7.565,-7.5795,-7.6404,-7.7537,-7.8814,-8.0033,-8.0323,-8.0626,-8.2183,-8.1957,-8.1669,-8.2617,-8.1721,-8.0644,-7.9986,-7.9866,-7.9627,-7.8938,-7.8819,0.0,-7.8789,-7.8789,-7.8789,-7.8789,-7.8819,-7.8549,-7.7861,-7.84,-7.7951,-7.6036,-7.5856,-7.5258,-7.3941,-7.3881,-7.3552,-7.2894,-7.1607,-7.0919,-7.0919,0.0,0.0,0.0,0.0,0.0,0.0,0.0,0.0,0.0,0.0,0.0,0.0,0.0,0.0,0.0,0.0,0.0,0.0,0.0,0.0,0.0,-6.4323,-6.4551,-6.514,-6.6466,-6.8316,-7.0373,-7.1227,-7.1949,-7.2794,-7.2744,-7.3221,-7.4451,-7.4225,-7.4387,-7.5261,-7.552,-7.5714,-7.5909,-7.5579,-7.5624,-7.6037,-7.5339,-7.4395,-7.3365,-7.3133,-7.2867,-7.2765,-7.2864,-7.3386,-7.4285,-7.4953,-7.5621,-7.6259,-7.6898,-7.713,-7.7101,-7.6579,-7.6085,-7.5679,-7.5679,-7.6375,-7.7333,-7.7333,-7.8175,-7.9133,-7.8465,-7.8698,-7.9249,-7.9249,-7.8785,-7.8262,-7.8262,-7.8611,-7.9017,-7.9191,-7.983,-8.0527,-8.0875,-8.0614,-8.051,-8.1127,-8.1507,-8.1669,-8.213,-8.2318,-8.202,-8.1362,-8.1242,-8.0853,-7.9716,-7.9537,-7.9357,-7.8849,-7.8789,-7.8789,-7.8789,-7.9238,-7.9058,-7.7921,-7.7981,-7.7442,-7.6006,-7.4988,-7.427,-7.3911,-7.3432,-7.2864,-7.2176,-7.1816,-7.1607,0.0,0.0,0.0,0.0,0.0,0.0,0.0,0.0,0.0,0.0,0.0,0.0,0.0,0.0,0.0,0.0,0.0,0.0,0.0,0.0,0.0,0.0,-6.6318,-6.6816,-6.8871,-6.9634,-7.067,-7.2712,-7.3476,-7.4289,-7.5423,-7.5423,-7.5811,-7.6977,-7.6653,-7.6783,-7.7625,-7.7949,-7.788,-7.7233,-7.7125,-7.6709,-7.6213,-7.5188,-7.4372,-7.3699,-7.3458,-7.3316,-7.3154,-7.4079,-7.4835,-7.5388,-7.6317,-7.6927,-7.7333,-7.8233,-7.8611,0.0,0.0,0.0,0.0,0.0,-7.8291,-7.9191,-7.9191,-8.0033,-8.0933,-8.0033,-8.0149,-8.0614,-8.0381,-8.0033,-7.9714,-7.9714,-8.0004,-8.0352,-8.0614,-8.1136,-8.1688,-8.1949,-8.1775,-8.1673,-8.228,-8.2389,-8.2496,-8.3116,-8.3423,0.0,-8.2709,-8.214,-8.1601,-8.1123,-8.0584,-8.0075,-7.9686,-7.9387,-7.9118,-7.8819,-7.9148,-7.8968,-7.7891,-7.7801,0.0,0.0,0.0,-7.3642,-7.3073,-7.2684,0.0,0.0,0.0,-7.2325,-7.2325,-7.2714,0.0,0.0,-7.1457,-7.1338,0.0,0.0,0.0,0.0,0.0,0.0,0.0,0.0,0.0,0.0,0.0,0.0,0.0,0.0,0.0,0.0,-6.8807,-6.9742,-7.3274,-7.3419,-7.3408,-7.4027,-7.5147,-7.6265,-7.7074,-7.7625,-7.8273,-7.9082,-7.905,-7.9082,-7.9244,-7.9742,0.0,0.0,0.0,-7.8085,-7.6752,-7.5308,-7.4813,-7.4957,-7.4079,-7.3936,-7.4336,-7.5791,-7.655,-7.6753,-7.7972,-7.8553,-7.8698,-7.9917,-8.041,-8.0178,-7.7972,-7.7449,-7.8088,-7.922,-8.0062,-8.0614,-8.0527,0.0,0.0,-8.102,-8.1049,-8.1426,-8.0875,-8.0672,-8.0614,-8.0614,-8.0614,-8.0759,-8.1281,-8.1862,-8.2442,-8.3052,-8.3139,-8.3244,-8.3994,-8.3873,-8.3648,-8.4403,-8.4714,-8.4534,-8.3936,-8.2828,-8.214,-8.2589,-8.1661,-8.0883,-8.0823,-8.0225,-7.9567,-7.8968,0.0,0.0,-7.7981,-7.7921,-7.7412,-7.6185,-7.4869,-7.3522,-7.2176,-7.2116,-7.2355,-7.2894,-7.2984,-7.3073,-7.3133,-7.3133,-7.3163,-7.3223,-7.2385,-7.2325,0.0,0.0,0.0,0.0,0.0,0.0,0.0,0.0,0.0,0.0,0.0,0.0,0.0,0.0,0.0,-6.8905,-7.0073,-7.1632,-7.4105,-7.5851,-7.6934,-7.7017,-7.7199,-7.7916,-7.9244,-7.8953,-7.9212,-8.0507,-8.0086,-8.028,-8.1414,-8.0448,-8.0111,-8.0396,-7.8236,-7.6939,-7.6692,-7.5205,-7.4605,-7.4576,0.0,0.0,-7.6085,-7.6346,-7.7043,-7.8059,-7.8814,-7.9423,-7.9975,-8.073,-8.102,-8.102,-8.1078,-8.1165,-8.131,-8.1543,-8.2065,-8.2559,-8.2007,-8.2675,-8.3604,-8.2878,-8.3052,-8.3517,-8.34,-8.3023,0.0,-8.2646,-8.2646,-8.2675,-8.2762,-8.2907,-8.3023,-8.3168,-8.2791,-8.2546,-8.2999,-8.326,-8.3648,-8.409,-8.4403,-8.4684,-8.4534,-8.3876,-8.3038,-8.211,-8.1751,-8.1392,-8.0883,-8.0225,-7.9776,-7.9627,-7.9627,-7.9357,-7.8669,-7.8609,-7.828,-7.7502,-7.6215,-7.4899,-7.3552,-7.3492,-7.3313,-7.2924,-7.3432,-7.3971,-7.448,-7.448,-7.4779,-7.5288,-7.3522,-7.2804,0.0,0.0,0.0,0.0,0.0,0.0,0.0,0.0,0.0,0.0,0.0,-6.71,-6.8046,0.0,-6.937,-7.1668,-7.2558,-7.3772,-7.6037,-7.7839,-7.8728,-7.7977,-7.8437,-7.9179,-7.9892,-8.028,-8.0799,-8.1511,-8.1576,-8.1755,-8.2011,-8.138,-8.0475,-7.9355,-7.7875,-7.6599,-7.5589,-7.4926,-7.4837,-7.5475,-7.5475,-7.6172,-7.7449,-7.8088,-7.8727,-7.9394,-8.0352,-8.0933,-8.131,-8.2268,-8.3023,-8.3662,-8.3981,-8.311,-8.1775,-8.2442,-8.2907,-8.3197,-8.3139,-8.3546,-8.4039,-8.3749,-8.3836,-8.4097,-8.4097,-8.3662,-8.3197,-8.3197,-8.2965,-8.2762,-8.311,-8.3197,-8.3284,-8.3575,-8.3371,-8.339,-8.4361,-8.4508,-8.4711,-8.5675,-8.5783,-8.5581,-8.5252,-8.4923,-8.4384,-8.3397,-8.2709,-8.214,-8.1811,-8.1212,-8.0674,-8.0345,-8.0315,-8.0165,-7.9836,-7.9178,-7.837,-7.7382,-7.6425,-7.5437,-7.442,-7.439,-7.439,-7.442,-7.4719,-7.5198,-7.5856,-7.5856,-7.6036,-7.6335,-7.5347,-7.451,0.0,0.0,0.0,0.0,0.0,0.0,0.0,-6.7012,-6.7513,-6.7569,-6.7607,-6.8428,-7.1035,-7.1301,-7.2022,-7.4539,-7.5037,-7.5742,-7.8015,-7.9284,-7.9815,-7.8953,-7.9892,-8.0604,-8.0604,-8.1641,-8.2321,-8.2321,-8.2594,-8.2585,-8.2166,-8.1673,-8.0459,-7.8393,-7.7873,-7.6913,-7.5272,-7.5127,-7.565,-7.684,-7.6956,-7.7682,-7.8988,-8.0004,-8.0672,-8.1107,-8.2268,-8.282,-8.3023,-8.4039,-8.5084,-8.6042,-8.6042,-8.4445,-8.2268,-8.3342,-8.3662,-8.3633,-8.4126,-8.4184,-8.4097,-8.4097,-8.4097,-8.4097,-8.4097,-8.3662,-8.3197,-8.3197,-8.2704,-8.2326,-8.2849,-8.3081,-8.3313,-8.3807,-8.401,-8.4572,-8.592,-8.5877,-8.6025,-8.7276,-8.7167,-8.6659,-8.6,-8.5881,-8.5611,-8.4833,-8.3816,-8.3128,-8.3128,-8.2469,-8.1781,-8.1242,-8.0943,-8.0764,-8.0614,-7.9627,-7.8549,-7.7472,-7.6814,-7.6215,-7.5647,-7.5497,-7.5647,-7.6066,-7.6215,-7.6514,-7.7023,-7.6993,-7.6993,-7.7023,-7.6933,-7.6305,-6.725,-6.6031,-6.5464,-6.5076,-6.6371,-6.7458,0.0,-6.7112,-6.7891,-6.7265,-6.8351,-6.9887,-7.1199,-7.2953,-7.4472,-7.5422,-7.6115,-7.7285,-7.9425,-8.0178,-8.0991,-8.2385,-8.2742,-8.2839,-8.2839,-8.2968,-8.3065,-8.3065,-8.1917,-8.1726,-8.2761,-8.0387,-7.9407,-8.0285,-7.8476,-7.7572,-7.7972,-7.7391,-7.7449,-7.8175,-7.8727,-7.9656,-8.0875,-8.102,-8.2036,-8.372,-8.4445,-8.5084,-8.5607,-8.5752,-8.5897,-8.6042,-8.6042,-8.581,-8.552,-8.5665,-8.5374,-8.4881,-8.4939,-8.4591,-8.4097,-8.4097,-8.4097,-8.4097,-8.4097,-8.3662,-8.3197,-8.3197,-8.2704,-8.221,-8.2268,-8.2733,-8.3226,-8.3284,-8.3691,-8.4427,-8.5302,-8.5907,-8.6439,-8.6739,-8.7227,-8.7377,-8.6689,-8.6569,-8.615,-8.4893,-8.4594,-8.4504,-8.4504,-8.3427,-8.2619,-8.2559,-8.1512,-8.0554,-7.9986,-7.9776,-7.9627,-7.9507,-7.8849,-7.843,-7.837,-7.7801,-7.7233,-7.6724,-7.7293,-7.7622,-7.7711,-7.745,-7.745,-7.7682,-7.7494,-7.7134,-6.7618,-6.6799,-6.6433,-6.5639,-6.6957,-6.835,-6.7981,-6.8755,-6.9599,-6.9836,-7.0987,-7.2634,-7.4276,-7.5806,-7.7058,-7.78,-7.9032,-8.0149,-8.1062,-8.2387,-8.3334,-8.3704,-8.4276,-8.4348,-8.326,-8.3551,-8.3568,-8.3163,-8.2869,-8.241,-8.1581,-8.0387,-7.9664,-7.9359,-7.8394,-7.8117,-7.8407,-7.8465,-7.8843,-7.9511,-8.0497,-8.1455,-8.2384,-8.311,-8.43,-8.5781,-8.6071,-8.6536,-8.7116,-8.6739,-8.6797,-8.7145,-8.7145,-8.7145,-8.7058,-8.6303,-8.5868,-8.5578,-8.52,-8.491,-8.4678,-8.4678,-8.4416,-8.4097,-8.4097,-8.34,-8.253,-8.2152,-8.1572,-8.1165,-8.1514,-8.2123,-8.2704,-8.311,-8.3662,-8.4514,-8.5714,-8.5877,-8.6173,-8.7097,-8.7167,-8.7018,-8.6718,-8.6689,-8.6479,-8.594,-8.5521,-8.5282,-8.5282,-8.4145,-8.3187,-8.2798,-8.226,-8.1841,-8.1572,-8.1183,-8.0794,-8.0405,-7.9746,-7.9208,-7.8819,-7.8519,-7.825,-7.7981,-7.825,-7.837,-7.837,-7.834,-7.834,-7.837,-7.8363,-7.7861,-6.7965,-6.7543,-6.7432,-6.6806,-6.7994,-6.9469,-7.0089,-7.0761,-7.1583,-7.3049,-7.3946,-7.5113,-7.7476,-7.8525,-7.9438,-8.0377,-8.1475,-8.2425,-8.2819,-8.415,-8.4871,-8.4304,-8.4935,-8.4731,-8.2992,-8.3539,-8.3707,-8.3335,-8.2973,-8.2248,-8.0853,-8.0467,-7.9922,-7.9162,-7.9017,-7.9104,-7.9452,-7.9685,-8.0265,-8.1107,-8.2181,-8.3255,-8.43,-8.5723,-8.6797,-8.7523,-8.7697,-8.7929,-8.8161,-8.7697,-8.7668,-8.7929,-8.7929,-8.7929,-8.7813,-8.6884,-8.6448,-8.6216,-8.5781,-8.5374,-8.5113,-8.5287,-8.491,-8.4358,-8.4358,-8.3487,-8.2326,-8.1659,-8.0904,-8.0439,-8.1049,-8.1688,-8.2355,-8.3023,-8.3662,-8.4543,-8.5832,-8.5877,-8.6084,-8.7187,-8.7167,-8.6898,-8.6718,-8.6689,-8.6689,-8.6689,-8.627,-8.597,-8.597,-8.4803,-8.3756,-8.3098,-8.2858,-8.2679,-8.2499,-8.205,-8.1572,-8.1093,-8.0285,-7.9686,-7.9357,-7.8998,-7.8789,-7.8789,-7.8789,-7.8789,-7.8789,-7.8789,-7.8789,-7.8789,-7.8789,-7.843,-6.7451,-6.7469,-6.7331,-6.8331,-6.9512,-7.0838,-7.2237,-7.281,-7.3782,-7.636,-7.6526,-7.7078,-7.9911,-8.0641,-8.1404,-8.2822,-8.2982,-8.3506,-8.4882,-8.4761,-8.4629,-8.4716,-8.4314,-8.3634,-8.2172,-8.264,-8.3366,-8.3865,-8.1287,-8.0225,-8.1362,-8.0147,-7.983,-8.1078,-8.0556,-8.0846,-8.2065,-8.1455,-8.1804,-8.311,-8.372,-8.5026,-8.6942,-8.8829,-8.9351,-8.8858,-8.9467,-8.9409,-8.8858,-8.8829,-8.8451,-8.7929,-8.7929,-8.7929,-8.7929,-8.7871,-8.7493,-8.6942,-8.6942,-8.61,-8.52,-8.581,-8.5578,-8.5055,-8.5055,-8.4184,-8.3023,-8.2355,-8.1281,-8.0439,-8.1049,-8.1688,-8.2355,-8.3023,-8.3662,-8.4427,-8.5244,-8.5907,-8.6498,-8.6679,-8.7227,-8.7467,-8.6778,-8.6689,-8.6689,-8.6689,-8.6659,-8.6659,-8.6659,-8.5492,-8.4444,-8.3786,-8.3128,-8.2499,-8.1871,-8.1781,-8.1781,-8.1751,-8.0524,-8.0105,-8.0704,-7.9477,-7.8789,-7.8789,-7.8789,-7.8789,-7.8789,-7.8789,-7.8789,-7.8789,-7.8789,-7.843,-6.7586,-6.8694,-7.0013,-7.0728,-7.1858,-7.3112,-7.4895,-7.5481,-7.59,-7.6704,-7.6934,-7.7125,-7.7523,-7.876,-8.0146,-8.103,-8.2988,-8.472,-8.5795,-8.6522,-8.6402,-8.4859,-8.4706,-8.4024,-8.1793,-8.1694,-8.1565,-8.1054,-8.0598,-8.0259,-8.0118,-8.0376,-8.0759,-8.1194,-8.1426,-8.1978,-8.2849,-8.3023,-8.3778,-8.5084,-8.6565,-8.7842,-8.8887,-8.999,-9.0367,-9.0193,-9.0396,-9.0367,-9.0106,-8.9235,-8.8742,-8.8509,-8.8103,-8.7929,-8.7929,-8.7929,-8.7784,-8.7552,-8.7116,-8.671,-8.639,-8.6594,-8.5955,-8.5084,-8.5084,-8.4184,-8.3052,-8.2384,-8.1891,-8.1601,-8.1804,-8.2355,-8.2907,-8.3139,-8.3662,-8.4262,-8.4918,-8.5123,-8.5538,-8.611,-8.6419,-8.6508,-8.627,-8.653,-8.6689,-8.6689,-8.6689,-8.6509,-8.609,-8.5641,-8.4953,-8.3846,-8.3547,-8.3128,-8.2499,-8.2439,-8.223,-8.1811,-8.0943,-8.0375,-8.0165,-7.9267,-7.8789,-7.8789,-7.8789,-7.8789,-7.8789,-7.8789,-7.8789,-7.8789,-7.8789,-7.843,-6.9137,-7.0901,-7.2758,-7.3399,-7.4656,-7.6189,-7.7426,-7.7748,-7.7865,-7.794,-7.7536,-7.6893,-7.6125,-7.6975,-7.8164,-7.9013,-8.1447,-8.3778,-8.5533,-8.6052,-8.5767,-8.4552,-8.3835,-8.2503,-8.023,-7.9871,-7.9697,-7.9652,-7.9694,-7.9741,-7.9598,-8.0643,-8.1514,-8.221,-8.2646,-8.34,-8.4533,-8.4939,-8.5781,-8.7058,-8.8771,-8.9787,-9.0193,-9.0861,-9.1151,-9.1151,-9.1151,-9.089,-9.0396,-8.9555,-8.8945,-8.8509,-8.8074,-8.7929,-8.7929,-8.7929,-8.7929,-8.7871,-8.7464,-8.7174,-8.6971,-8.6971,-8.6274,-8.5374,-8.5171,-8.4358,-8.3371,-8.2733,-8.2384,-8.2239,-8.25,-8.2878,-8.3255,-8.3458,-8.3807,-8.4262,-8.4784,-8.4784,-8.511,-8.592,-8.592,-8.589,-8.624,-8.653,-8.6689,-8.6689,-8.6689,-8.6509,-8.609,-8.5851,-8.5282,-8.4205,-8.3876,-8.3487,-8.2828,-8.2769,-8.2589,-8.217,-8.1512,-8.0853,-8.0195,-7.9507,-7.9028,-7.8789,-7.8789,-7.8789,-7.8789,-7.8789,-7.8789,-7.8789,-7.8789,-7.843,-7.1759,-7.3795,-7.5489,-7.6052,-7.7831,-7.9496,-7.9668,-7.9541,-7.9504,-7.9761,-7.8172,-7.6597,-7.5806,-7.5389,-7.5695,-7.7185,-7.8668,-8.0873,-8.4623,-8.3593,-8.2935,-8.3963,-8.1886,-7.9652,-7.7973,-7.7605,-7.8172,-7.957,-7.8972,-7.9017,-8.0265,-8.0991,-8.221,-8.4068,-8.4184,-8.5142,-8.7,-8.7116,-8.7784,-8.9003,-9.0251,-9.0861,-9.089,-9.1499,-9.1761,-9.1761,-9.1761,-9.1035,-8.9874,-8.9845,-8.909,-8.7987,-8.7929,-8.7929,-8.7929,-8.7929,-8.7929,-8.7929,-8.7929,-8.7552,-8.7029,-8.7,-8.6565,-8.5926,-8.5287,-8.462,-8.3981,-8.3429,-8.282,-8.2471,-8.311,-8.3284,-8.3429,-8.3952,-8.4097,-8.4262,-8.4562,-8.4725,-8.5052,-8.586,-8.5699,-8.5699,-8.653,-8.6659,-8.6689,-8.6689,-8.6689,-8.6689,-8.6689,-8.609,-8.5432,-8.4773,-8.4145,-8.3517,-8.2828,-8.2798,-8.2798,-8.2769,-8.211,-8.1452,-8.0823,-8.0135,-7.9447,-7.8789,-7.8789,-7.8789,-7.8789,-7.8789,-7.8789,-7.8789,-7.8789,-7.846,-7.2788,-7.538,-7.753,-7.7869,-7.857,-7.923,-7.9083,-7.8395,-7.761,-7.6777,-7.5503,-7.406,-7.2248,-7.2597,-7.4065,-7.6981,-7.8795,-8.1292,-8.5258,-8.5211,-8.4267,-8.3306,-8.2741,-8.1619,-7.9986,-7.9657,-7.9781,-8.0103,-7.9405,-7.9627,-8.0904,-8.2471,-8.3807,-8.4794,-8.5752,-8.671,-8.7668,-8.9119,-8.999,-9.0338,-9.1151,-9.1529,-9.1529,-9.1703,-9.1761,-9.1761,-9.1761,-9.1325,-9.0542,-9.0019,-8.9351,-8.8597,-8.8103,-8.7929,-8.7929,-8.7929,-8.7929,-8.7929,-8.7929,-8.7813,-8.761,-8.7145,-8.6565,-8.5926,-8.5287,-8.462,-8.4155,-8.4503,-8.4474,-8.4387,-8.4562,-8.462,-8.4533,-8.4155,-8.4427,-8.4474,-8.368,-8.389,-8.4185,-8.4347,-8.4758,-8.5244,-8.653,-8.6181,-8.589,-8.624,-8.653,-8.6689,-8.6689,-8.609,-8.5432,-8.4773,-8.4564,-8.3995,-8.2858,-8.3217,-8.3277,-8.2798,-8.1691,-8.0973,-8.0823,-7.9686,-7.8968,-7.8789,-7.8789,-7.8789,-7.8789,-7.8789,-7.8789,-7.8789,-7.8789,-7.8699,-7.4229,-7.6833,-7.9172,-7.8973,-7.9836,-8.0326,-7.8491,-7.8079,-7.7282,-7.4582,-7.3061,-7.148,-6.8994,-6.9168,-7.0653,-7.3426,-7.5826,-7.888,-8.3704,-8.3525,-8.311,-8.3286,-8.3011,-8.2148,-8.0866,-8.1233,-8.1572,-8.1572,-8.0933,-8.102,-8.2007,-8.3894,-8.5374,-8.6303,-8.729,-8.8248,-8.9177,-9.0542,-9.1238,-9.1238,-9.1616,-9.1761,-9.1761,-9.1761,-9.1761,-9.1761,-9.1761,-9.1238,-9.0367,-8.999,-8.9293,-8.8422,-8.8074,-8.7929,-8.7929,-8.7929,-8.7929,-8.7929,-8.7929,-8.7929,-8.7784,-8.6855,-8.6332,-8.5868,-8.4939,-8.4591,-8.462,-8.4968,-8.5287,-8.5432,-8.5171,-8.5084,-8.491,-8.4242,-8.4262,-8.4281,-8.3342,-8.3768,-8.431,-8.431,-8.493,-8.5597,-8.608,-8.5699,-8.5449,-8.5664,-8.5794,-8.5953,-8.5923,-8.5753,-8.5432,-8.4773,-8.4714,-8.4414,-8.3666,-8.3696,-8.3576,-8.3217,-8.223,-8.1542,-8.1242,-8.0494,-7.9836,-7.9238,-7.9238,-7.9088,-7.8789,-7.8789,-7.8789,-7.8789,-7.8789,-7.8789,-7.5997,-7.8269,-8.0384,-7.9971,-8.1236,-8.1725,-7.7858,-7.7763,-7.7139,-7.2446,-7.0493,-6.8909,-6.629,-6.5937,-6.6878,-6.9525,-7.205,-7.5682,-8.1414,-8.1065,-8.1033,-8.3669,-8.3154,-8.2355,-8.1775,-8.2849,-8.3575,-8.3575,-8.3197,-8.3168,-8.3662,-8.5345,-8.6913,-8.8277,-8.8858,-8.9729,-9.0948,-9.1499,-9.1819,-9.1906,-9.1819,-9.1819,-9.1906,-9.1819,-9.1761,-9.1761,-9.1761,-9.1035,-8.9816,-8.9816,-8.9061,-8.7929,-8.7929,-8.7929,-8.7929,-8.7929,-8.7929,-8.7929,-8.7929,-8.7929,-8.7726,-8.6536,-8.61,-8.581,-8.4678,-8.4707,-8.5113,-8.5287,-8.5723,-8.6042,-8.549,-8.5345,-8.5171,-8.4503,-8.4329,-8.4349,-8.3575,-8.43,-8.5084,-8.5251,-8.5749,-8.6038,-8.5612,-8.5435,-8.5199,-8.5119,-8.5219,-8.5,-8.4951,-8.5237,-8.5372,-8.4893,-8.4833,-8.4773,-8.4594,-8.4145,-8.3786,-8.3606,-8.3008,-8.238,-8.1811,-8.1691,-8.1063,-7.9836,-7.9806,-7.9477,-7.8789,-7.8789,-7.8789,-7.8789,-7.8789,-7.8789,-7.7992,-7.9971,-8.1729,-8.1434,-8.1492,-8.0827,-7.7539,-7.5969,-7.3779,-6.9276,-6.7237,-6.6033,-6.5191,-6.4524,-6.6059,-7.1919,-7.2707,-7.4887,-8.1644,-8.199,-8.2027,-8.3743,-8.4357,-8.4533,-8.4416,-8.5084,-8.5549,-8.5549,-8.639,-8.6768,-8.6332,-8.7145,-8.8451,-9.0251,-9.0425,-9.0832,-9.1587,-9.1703,-9.2022,-9.2545,-9.2022,-9.2051,-9.2545,-9.2022,-9.1761,-9.1761,-9.1761,0.0,-8.9816,-8.9816,-8.9061,-8.7929,-8.7929,-8.7929,-8.7929,-8.7929,-8.7929,-8.7929,-8.7929,-8.7929,-8.7813,-8.7058,-8.6448,-8.5984,-8.5752,-8.5403,-8.5316,-8.6361,-8.6739,-8.6797,-8.6681,-8.6652,-8.6506,-8.5839,-8.603,-8.6022,-8.5047,-8.4939,-8.5251,-8.5525,-8.5388,-8.5525,-8.6558,-8.5789,-8.5052,-8.5229,-8.539,-8.5006,-8.3914,-8.4395,-8.5043,-8.5492,-8.5521,-8.5073,-8.3995,-8.4295,-8.4085,-8.3008,-8.232,-8.1901,-8.1781,-8.1272,-8.0614,-7.9836,-7.9806,-7.9477,-7.8789,-7.8789,-7.8789,-7.8789,-7.8789,-7.8789,-8.0565,-8.2293,-8.3432,-8.2658,-8.2112,-8.0522,-7.5763,-7.3675,-7.1505,-6.6786,-6.5188,-6.4371,-6.3854,-6.3842,-6.5102,-6.8791,-7.0019,-7.2726,-7.883,-7.9947,-8.1163,-8.4164,-8.5455,-8.6071,-8.6071,-8.6652,-8.7029,-8.7029,-8.79,-8.8132,-8.7493,-8.8713,-9.0019,-9.1267,-9.1325,-9.147,-9.1761,-9.1761,-9.1935,-9.2225,-9.1906,-9.1935,-9.2225,-9.1906,-9.1761,-9.1761,-9.1412,-9.0716,-8.9787,-8.9467,-8.8771,-8.7929,-8.7929,-8.7929,-8.7929,-8.7929,-8.7929,-8.7929,-8.7929,-8.7929,-8.7871,-8.7581,-8.6826,-8.5955,-8.5636,-8.5549,-8.5694,-8.6332,-8.6971,-8.7406,-8.7058,-8.6971,-8.6826,-8.6187,-8.5949,-8.5971,-8.5984,-8.581,-8.5578,-8.5884,-8.5745,-8.5796,-8.6273,-8.5651,-8.5116,-8.5551,-8.5287,-8.4846,-8.4521,-8.4348,-8.4522,-8.5132,-8.4863,-8.4684,-8.4743,-8.4414,-8.3936,-8.3307,-8.2649,-8.229,-8.229,-8.1991,-8.1512,-8.0853,-8.0823,-8.0345,-7.9327,-7.9387,-7.9208,-7.8789,-7.8789,-7.8789,-8.2743,-8.3945,-8.4629,-8.3894,-8.2594,-8.0135,-7.421,-7.2118,-6.9866,-6.4808,-6.3595,-6.3268,-6.2779,-6.3101,-6.3979,-6.5441,-6.7204,-7.025,-7.5656,-7.766,-8.0149,-8.4358,-8.6245,-8.7174,-8.7174,-8.7639,-8.7987,-8.8103,-8.8858,-8.909,-8.8568,-9.0135,-9.1267,-9.1761,-9.1761,-9.1848,-9.1964,-9.1848,-9.1906,-9.2167,-9.1906,-9.1848,-9.1964,-9.1848,-9.1761,-9.1732,-9.1093,-9.0454,-8.9758,-8.9148,-8.8509,-8.7929,-8.7929,-8.7929,-8.7929,-8.7929,-8.7929,-8.7929,-8.7929,-8.7929,-8.7929,-8.7929,-8.7174,-8.6158,-8.581,-8.5955,-8.6274,-8.639,-8.7145,-8.7813,-8.7319,-8.7174,-8.7058,-8.6565,-8.6042,-8.5955,-8.6971,-8.6797,-8.6448,-8.6448,-8.6216,-8.6065,-8.6022,-8.5592,-8.5251,-8.5691,-8.497,-8.4638,-8.4832,-8.4397,-8.409,-8.4558,-8.4265,-8.4354,-8.5402,-8.4414,-8.3666,-8.3547,-8.3038,-8.2769,-8.2769,-8.2769,-8.2499,-8.205,-8.205,-8.1272,-8.0016,-7.9956,-7.9421,-7.8734,-7.8734,-7.8849,-8.3281,-8.3932,-8.4264,-8.5465,-8.2875,-7.9006,-7.4811,-7.1963,-6.8643,-6.335,-6.2258,-6.2303,-6.2672,-6.2233,-6.2788,-6.5919,-6.65,-6.8502,-7.4024,-7.7304,-8.0439,-8.3778,-8.6361,-8.7842,-8.7842,-8.79,-8.8161,-8.8742,-8.9932,-9.0629,-9.0571,-9.1267,-9.1703,-9.1761,-9.1761,-9.2051,-9.2632,-9.2051,-9.2341,-9.3473,-9.2312,-9.208,-9.2603,-9.2022,-9.1761,-9.1732,-9.1093,-9.0454,0.0,-8.9148,-8.8509,-8.7929,-8.7929,-8.7929,-8.7929,-8.7929,-8.7929,-8.7929,-8.7929,-8.7929,-8.7929,-8.7929,-8.7464,-8.7,-8.7493,-8.7319,-8.7,-8.7581,-8.7842,-8.7929,-8.7842,-8.7842,-8.7813,-8.7755,-8.7697,-8.7697,-8.7813,-8.7784,-8.7755,-8.7755,-8.6826,-8.6356,-8.7219,-8.6175,-8.5251,-8.5691,-8.4835,-8.3826,-8.3146,-8.339,-8.3648,-8.409,-8.4499,-8.4684,-8.4803,-8.4145,-8.3487,-8.2888,-8.2798,-8.2769,-8.2769,-8.2769,-8.277,-8.277,-8.277,-8.208,-8.0704,-7.9574,-7.8922,-7.8771,-7.8771,-7.8768,-8.3846,-8.5284,-8.5696,-8.4969,-8.1815,-7.7693,-7.3624,-7.0062,-6.667,-6.3374,-6.269,-6.2714,-6.2867,-6.2595,-6.2674,-6.4189,-6.4268,-6.5757,-7.0395,-7.2515,-7.5911,-8.221,-8.3865,-8.5694,-8.8771,-8.8713,-8.8916,-8.9961,-9.0513,-9.0977,-9.1383,-9.1616,-9.1761,-9.1761,-9.1761,-9.208,-9.2719,-9.208,-9.2225,-9.3096,-9.2196,-9.1906,-9.2138,-9.1877,-9.1558,-9.1151,-9.0513,-8.9845,0.0,-8.8568,-8.8161,-8.7929,-8.7929,-8.7929,-8.7929,-8.7929,-8.7929,-8.7929,-8.7929,-8.7929,-8.7871,-8.7493,-8.7203,-8.7029,-8.729,-8.7174,-8.7029,-8.729,-8.7639,-8.7929,-8.7929,-8.7929,-8.7929,-8.7929,-8.7929,-8.7813,-8.7435,-8.7668,-8.7697,-8.6942,-8.6681,-8.6565,-8.6589,-8.6153,-8.5665,-8.5804,-8.5251,-8.4698,-8.4784,-8.4141,-8.4079,-8.5586,-8.4857,-8.4599,-8.5078,-8.3846,-8.3038,-8.2769,-8.2769,-8.2769,-8.2769,-8.2769,-8.286,-8.277,-8.277,-8.256,-8.1958,-8.1511,-8.0436,-7.883,-8.0522,-8.1266,-8.3596,-8.5239,-8.5911,-8.4574,-8.0908,-7.6496,-7.304,-6.9153,-6.5742,-6.3767,-6.3498,-6.3528,-6.3023,-6.288,-6.2795,0.0,-6.2783,-6.4027,-6.7696,-6.9292,-7.2456,-7.8901,-8.0149,-8.2442,-8.7377,-8.8829,-8.9816,-9.0745,-9.1006,-9.1296,-9.1732,-9.1761,-9.1848,-9.2051,-9.1877,-9.2167,-9.298,-9.2167,-9.208,-9.2719,-9.208,-9.1761,-9.1761,-9.1587,-9.1238,-9.0774,-8.9903,-8.9293,0.0,-8.819,-8.7929,-8.7929,-8.7929,-8.7929,-8.7929,-8.7929,-8.7929,-8.7929,-8.7929,-8.7813,-8.7581,-8.7116,-8.6971,-8.6942,-8.6938,-8.688,-8.6768,-8.7145,-8.7581,-8.7929,-8.7929,-8.7929,-8.7929,-8.7929,-8.7929,-8.7813,-8.7348,-8.7464,-8.7377,-8.6477,-8.6536,-8.6623,-8.6361,-8.6303,-8.6245,-8.6071,-8.549,-8.5135,-8.5534,-8.4582,-8.4462,-8.6092,-8.5462,-8.4898,-8.5138,-8.3999,-8.3008,-8.2769,-8.2769,-8.2769,-8.2769,-8.2769,-8.2769,-8.2769,-8.2769,-8.274,-8.2799,-8.208,-8.1093,-8.0048,-8.1928,-8.2796,-8.2154,-8.3396,-8.4118,-8.4915,-8.0402,-7.5377,-7.3373,-6.9842,-6.64,-6.4395,-6.4545,-6.4487,-6.2852,-6.2884,-6.294,-6.2608,-6.2919,0.0,-6.6535,-6.9089,-7.1469,-7.3472,-7.5359,-7.8291,-8.282,-8.7842,-9.0803,-9.0832,-9.1412,0.0,-9.1761,-9.1761,-9.2051,-9.269,-9.2109,-9.237,-9.3648,-9.2399,-9.208,-9.2719,-9.208,-9.1761,-9.1761,-9.1122,-9.0832,-9.0745,-8.9438,-8.8887,0.0,-8.819,-8.7929,-8.7929,-8.7929,-8.7929,-8.7929,-8.7929,-8.7929,-8.7929,-8.7929,-8.7523,-8.7,-8.6971,-8.6971,-8.7025,-8.6722,-8.6379,-8.6303,-8.7552,-8.7929,-8.7929,-8.7929,-8.7929,-8.7929,-8.7929,-8.7929,-8.7929,-8.7929,-8.7435,-8.7,-8.6971,-8.6477,-8.6245,-8.6855,-8.6971,-8.6768,-8.6129,-8.549,-8.4786,-8.3965,-8.4112,-8.4593,-8.507,-8.603,-8.6164,-8.4803,-8.4419,-8.3759,-8.2798,-8.2769,-8.2769,-8.2769,-8.2769,-8.2769,-8.2769,-8.2769,-8.2769,-8.2739,-8.0162,-8.0195,-8.28,-8.28,-8.2829,-7.6249,-7.7506,-7.8498,-7.7673,-7.4751,-7.194,-7.1158,-6.8525,-6.589,-6.4666,-6.4487,-6.4397,-6.3742,-6.3499,-6.3696,-6.4451,-6.4522,0.0,0.0,0.0,0.0,-7.5766,-8.2152,-8.6826,0.0,0.0,-9.147,-9.147,-9.1645,-9.1761,-9.1761,-9.1761,-9.1877,-9.2051,-9.1877,-9.2167,-9.3009,-9.2196,-9.208,-9.2719,-9.208,-9.1558,-9.1122,-9.0919,-9.0338,-8.9467,-8.9061,-8.8626,-8.8219,-8.8016,-8.7929,-8.7929,-8.7929,-8.7929,-8.7871,-8.7435,-8.729,-8.7232,-8.6797,-8.6506,-8.6274,-8.5839,-8.5694,-8.5723,-8.6124,-8.6822,-8.7406,-8.7813,-8.7929,-8.7929,-8.7929,-8.7929,-8.7929,-8.7929,-8.7929,-8.7697,-8.6826,-8.6826,-8.6739,-8.5868,-8.6216,-8.6477,-8.581,-8.6042,-8.5955,-8.4852,-8.4533,-8.4262,-8.3715,-8.4743,-8.5226,-8.4871,-8.5872,-8.6277,-8.5258,-8.4055,-8.3095,-8.2798,-8.2769,-8.2769,-8.2769,-8.2769,-8.2769,-8.2769,-8.2769,-8.283,-8.28,-8.2019,-8.1928,-8.28,-8.28,-8.274,0.0,-7.3986,-7.5337,-7.4072,-7.2128,-7.048,-7.0111,-6.8106,-6.607,-6.502,-6.508,-6.4988,-6.4028,-6.3901,-6.4217,-6.4784,-6.4774,0.0,0.0,0.0,0.0,-7.6521,-8.3691,0.0,0.0,-9.0542,-9.1761,-9.1761,-9.1761,-9.1761,-9.1761,-9.1558,-9.1412,-9.1412,-9.1412,-9.1732,-9.2341,-9.1732,-9.1616,-9.1993,-9.1616,-9.1064,-9.0425,-9.0193,-8.9642,-8.8858,-8.8626,-8.8306,0.0,-8.7929,-8.7784,-8.7581,-8.7581,-8.7435,-8.7174,-8.6768,-8.6623,-8.6565,-8.6158,-8.6036,-8.5745,-8.52,-8.5106,-8.5106,-8.6042,-8.7116,-8.7871,-8.7639,-8.7726,-8.7929,-8.7929,-8.7929,-8.7929,-8.7929,-8.7755,-8.7348,-8.6565,-8.6332,-8.6042,-8.5229,-8.5723,-8.6013,-8.5229,-8.5607,-8.5665,-8.462,-8.4474,-8.4291,-8.4039,-8.4685,-8.5107,-8.4731,-8.5365,-8.5581,-8.4838,-8.3871,-8.3091,-8.2798,-8.2769,-8.2769,-8.2769,-8.2769,-8.2769,-8.2769,-8.2769,-8.283,-8.2831,-8.283,-8.2769,-8.2769,-8.2769,-8.286,0.0,-7.2075,-7.4057,-7.319,-7.1752,-7.047,-6.9901,-6.8315,0.0,-6.5733,-6.609,-6.5902,-6.4077,-6.4217,-6.4472,-6.4154,0.0,0.0,0.0,-6.8915,0.0,0.0,-8.1514,0.0,-8.5316,-8.9235,-9.1761,-9.1761,-9.1761,-9.1761,-9.1761,-9.1151,-9.0803,-9.0745,-9.0716,-9.0977,-9.1616,-9.1035,-9.0745,-9.0745,-9.0745,-9.0396,-8.9729,-8.9148,-8.8858,0.0,-8.819,-8.79,-8.7871,-8.7871,-8.7493,-8.6913,-8.6913,-8.6565,-8.6013,-8.5984,-8.5955,-8.5955,-8.5926,-8.5826,-8.5632,-8.5164,-8.498,-8.5194,-8.6531,-8.7319,-8.7697,-8.7203,-8.7464,-8.7929,-8.7929,-8.7929,-8.7929,-8.7929,-8.7435,-8.6971,-8.6913,-8.5955,-8.5084,-8.5026,-8.5055,-8.5084,-8.5026,-8.5549,-8.5752,-8.5113,-8.5026,-8.4893,-8.442,-8.4403,-8.4456,-8.4558,-8.4684,-8.4444,-8.3726,-8.3901,-8.3722,-8.2828,-8.2769,-8.2769,-8.2769,-8.2769,-8.2769,-8.2769,-8.2769,-8.2739,-8.2739,-8.2739,-8.2739,-8.2739,-8.2739,-8.277,-6.6625,0.0,-6.8425,-6.7634,-6.7503,-6.7617,0.0,0.0,0.0,-6.6421,-6.6168,-6.5919,-6.522,-6.4901,-6.5036,0.0,0.0,-6.5809,-6.6738,0.0,0.0,-8.253,-8.671,-8.8916,-8.8074,-9.028,-9.1761,-9.1761,-9.1761,-9.1761,-9.1761,-9.1151,-9.0571,-9.0077,-8.9584,-8.9642,-9.028,-9.0135,-9.0048,-9.0048,-9.0048,-8.9729,-8.909,-8.8945,-8.8626,-8.8132,-8.7987,-8.7668,-8.7203,-8.7203,-8.6826,-8.6245,-8.6245,-8.6158,-8.5955,-8.549,-8.5316,-8.5229,-8.5068,-8.5135,-8.4989,-8.5316,-8.5358,-8.5662,-8.646,-8.6868,-8.716,-8.7464,-8.7813,-8.7929,-8.7929,-8.7929,-8.7929,-8.7929,-8.7435,-8.6855,-8.6361,-8.5636,-8.4939,-8.4416,-8.4736,-8.4939,-8.4416,-8.4881,-8.5084,-8.4416,-8.4329,-8.4368,-8.4361,-8.4403,-8.4308,-8.3931,-8.4414,-8.4235,-8.3098,-8.3547,-8.3576,-8.2798,-8.2769,-8.2769,-8.2769,-8.2769,-8.2769,-8.2769,-8.2769,-8.28,-8.277,-8.277,-8.277,-8.277,-8.277,-8.274,-6.6222,-6.6131,-6.6673,-6.5677,-6.6124,-6.6753,-6.6999,0.0,0.0,-6.6629,-6.6257,-6.5882,-6.5601,-6.5222,-6.5112,0.0,-6.6244,0.0,0.0,0.0,-8.0585,-8.5374,-8.8045,-8.9671,0.0,-9.1151,-9.1761,-9.1761,-9.1499,-9.1325,-9.1325,-9.0425,-8.9758,-8.9409,-8.8771,-8.8742,-8.938,-8.938,-8.938,-8.938,-8.938,-8.9061,-8.8451,-8.8451,-8.8248,-8.7929,-8.7929,-8.7581,-8.6971,-8.6971,-8.6245,-8.5142,-8.5142,-8.4968,-8.4678,-8.4358,-8.4387,-8.4591,-8.4572,-8.462,-8.4947,-8.5568,-8.5273,-8.493,-8.5603,-8.5438,-8.5505,-8.7319,-8.7929,-8.7929,-8.7929,-8.7929,-8.7842,-8.7552,-8.7,-8.6361,-8.5752,-8.5084,-8.4533,-8.4155,-8.4387,-8.4503,-8.4155,-8.4387,-8.4503,-8.4485,-8.4262,-8.4077,-8.4268,-8.4386,-8.4131,-8.3304,-8.3876,-8.3846,-8.2858,-8.3098,-8.3128,-8.2769,-8.2769,-8.2769,-8.2769,-8.2769,-8.2769,-8.2769,-8.28,-8.28,-8.283,-8.1512,-8.0944,-8.0974,-8.2289,-8.2799,-6.7304,-6.6962,-6.6995,-6.5945,-6.6306,-6.6999,-6.6999,0.0,0.0,0.0,-6.6257,-6.5912,0.0,-6.5455,0.0,0.0,0.0,0.0,-7.6404,-7.893,-8.1862,-8.6448,-8.79,0.0,-9.1151,-9.1499,-9.1616,-9.1616,-9.1035,-9.0658,-9.0658,-8.9526,-8.8887,-8.8887,-8.8248,-8.8132,-8.8597,-8.8684,-8.8742,-8.8742,-8.8626,-8.8306,-8.7784,-8.7697,-8.7639,-8.7639,0.0,0.0,-8.6681,-8.6594,-8.552,-8.3952,-8.3952,-8.3633,-8.3197,-8.3197,-8.3575,-8.4262,-8.4427,-8.4755,-8.5273,-8.592,-8.5213,-8.4215,-8.4725,-8.4223,-8.4068,-8.6855,-8.7639,-8.7639,-8.7639,-8.7726,-8.761,-8.7,-8.6361,-8.5752,-8.52,-8.4562,-8.4097,-8.4097,-8.4097,-8.4097,-8.4097,-8.4097,-8.4262,-8.462,-8.4427,-8.4182,-8.422,-8.4298,-8.4101,-8.3244,-8.3606,-8.3606,-8.2978,-8.2918,-8.2858,-8.2769,-8.2769,-8.2769,-8.2769,-8.2769,-8.2769,-8.2769,-8.253,-8.241,-8.223,-7.9902,-7.8834,-7.8863,-8.1091,-8.2166,-6.7997,-6.8256,-6.828,-6.6778,-6.6663,-6.6999,-6.6999,-6.6999,0.0,0.0,0.0,0.0,0.0,-6.6604,-6.6941,0.0,0.0,-7.5156,0.0,0.0,-8.4881,-8.6768,0.0,-9.0687,-8.9438,-9.0309,-9.0977,-9.0977,-9.0338,-8.9961,-8.9961,-8.9264,-8.8887,-8.8887,-8.8248,-8.7726,-8.729,-8.7813,-8.8074,-8.8074,-8.7523,-8.7232,-8.7116,-8.6565,-8.6332,-8.6332,0.0,-8.5955,-8.5345,-8.4765,-8.4068,-8.3342,-8.3342,-8.3284,-8.3197,-8.3197,-8.3739,-8.4784,-8.5597,-8.605,-8.637,-8.624,-8.567,-8.5185,-8.5504,-8.5184,-8.5026,-8.6042,-8.6332,-8.6332,-8.6332,-8.671,-8.6971,-8.6332,-8.5694,-8.52,-8.5113,-8.4562,-8.4097,-8.4097,-8.4097,-8.4097,-8.4097,-8.4097,-8.4097,-8.4262,-8.4097,-8.4175,-8.4654,-8.4537,-8.4475,-8.4684,-8.4708,-8.4295,-8.3636,-8.3576,-8.3337,-8.2798,-8.2769,-8.2769,-8.2769,-8.2769,-8.2769,-8.2769,-8.1691,-8.0497,-7.9456,-7.8951,-7.886,-7.886,-7.9245,-7.9364,-6.7696,-6.7657,-6.7837,-6.7473,-6.7951,-6.8525,-6.8166,-6.8076,-6.7986,0.0,0.0,0.0,0.0,0.0,-6.9786,-7.3821,0.0,-7.8988,-8.2762,-8.4329,-8.581,0.0,0.0,-9.0135,-8.9961,-9.0483,-9.0658,-9.0309,-8.9351,-8.88,-8.88,-8.819,-8.7697,-8.7348,-8.7377,-8.7116,-8.6477,-8.6419,-8.6565,-8.6913,-8.6594,-8.6477,-8.6448,-8.581,-8.552,-8.549,0.0,-8.4649,-8.4039,-8.372,-8.3023,-8.2123,-8.2123,-8.2123,-8.2152,-8.2824,-8.354,-8.442,-8.5226,-8.5516,-8.5575,-8.5961,-8.5095,-8.4083,-8.4053,-8.3348,-8.2704,-8.3691,-8.4968,-8.6042,-8.6042,-8.5984,-8.5897,-8.5578,-8.5026,-8.4533,-8.4533,-8.43,-8.4097,-8.4097,-8.4097,-8.4097,-8.4097,-8.4097,-8.4262,-8.4427,-8.4262,-8.4281,-8.4611,-8.4611,-8.4537,-8.415,-8.4595,-8.4671,-8.4015,-8.3782,-8.3457,-8.2798,-8.2769,-8.2769,-8.2769,-8.2769,-8.2559,-8.211,-8.1213,-8.0169,-7.8833,-7.8827,-7.8853,-7.8853,-7.8857,-7.8743,-6.7394,-6.7328,-6.7597,-6.8076,-6.8764,-6.9363,-6.9504,-6.9445,-6.9482,-6.9445,-6.909,0.0,0.0,-7.0848,0.0,-7.8814,-8.0817,-8.2704,-8.592,-8.6332,-8.7203,-8.9468,-8.9409,-8.9729,-9.0716,-9.0542,-9.0077,-8.9438,-8.8335,-8.7639,-8.7493,-8.7029,-8.6536,-8.6042,-8.6506,-8.639,-8.5578,-8.5258,-8.5316,-8.581,-8.552,-8.5374,-8.5345,-8.4707,-8.4416,-8.4387,-8.3865,-8.3371,-8.2936,-8.2791,-8.2123,-8.1194,-8.1194,-8.1194,-8.147,-8.2925,-8.3495,-8.3759,-8.503,-8.4941,-8.4475,-8.5285,-8.4243,-8.2824,-8.2664,-8.1833,-8.0933,-8.192,-8.372,-8.5374,-8.5374,-8.4997,-8.4649,-8.4649,-8.4242,-8.3923,-8.4068,-8.4097,-8.4097,-8.4097,-8.4097,-8.4097,-8.4097,-8.4097,-8.4262,-8.462,-8.4262,-8.4223,-8.4376,-8.4625,-8.4699,-8.402,-8.4852,-8.5139,-8.4306,-8.3812,-8.3277,-8.2798,-8.2769,-8.2769,-8.2769,-8.2769,-8.2439,-8.1751,-8.1242,-8.0377,-7.9304,-7.8973,-7.8734,-7.8764,-7.8768,-7.9185,-6.7717,-6.8375,-6.8884,-6.8914,-6.8076,-6.7862,-7.0516,-7.0957,-7.1326,-7.3474,-7.3842,-7.3694,-7.3159,-7.4916,-7.7525,-8.0497,-8.3633,-8.6676,-8.9642,0.0,-9.0865,-9.2186,-9.1392,-9.0716,-9.0803,-8.9729,-8.8742,-8.8103,-8.7435,-8.6797,-8.6187,-8.6129,-8.6071,-8.6042,-8.6071,-8.549,-8.4242,-8.4794,-8.5113,-8.5142,-8.3952,-8.34,-8.3371,-8.2704,-8.2413,-8.2384,-8.2355,-8.2297,-8.221,-8.1601,-8.1281,-8.1194,-8.1194,-8.1542,-8.2163,-8.4249,-8.4111,-8.337,-8.5367,-8.5189,-8.4111,-8.3965,-8.338,-8.2664,-8.2342,-8.2123,-8.2065,-8.2181,-8.2762,-8.34,-8.34,-8.3371,-8.3342,-8.3342,-8.3284,-8.34,-8.3981,-8.4097,-8.4097,-8.4097,-8.4097,-8.4097,-8.4097,-8.4097,-8.4097,-8.4097,-8.4097,-8.4068,-8.4175,-8.4859,-8.5347,-8.5258,-8.6092,-8.609,-8.4833,-8.3547,-8.2828,-8.2769,-8.2769,-8.2769,-8.2769,-8.2769,-8.277,-8.277,-8.1781,-8.1093,-8.0674,-7.9394,-7.8771,-7.8771,-7.8794,-8.0213,-6.7298,-6.7837,-6.8375,-6.8375,-6.7986,-6.8585,-7.2163,-7.282,-7.3402,-7.5478,-7.6003,-7.6308,-7.6614,0.0,-8.0793,-8.3863,-8.6442,-8.867,-9.0602,-9.1777,-9.207,-9.1689,-9.1396,-9.0838,-9.0051,-8.9352,-8.8451,-8.7406,-8.6739,-8.61,-8.549,-8.5432,-8.5084,-8.43,-8.462,-8.401,-8.2297,-8.253,-8.243,-8.1833,-8.2401,-8.2355,-8.192,-8.0875,-8.0614,-8.0962,-8.0492,-8.058,-8.1279,-8.0609,-8.0737,-8.1401,-8.1401,-8.1821,-8.236,-8.3073,-8.3199,-8.3288,-8.476,-8.4395,-8.3488,-8.4079,-8.3247,-8.2239,-8.1732,-8.131,-8.1107,-8.1455,-8.1484,-8.1572,-8.2355,-8.2559,-8.2675,-8.3081,-8.2559,-8.2239,-8.3313,-8.3517,-8.3517,-8.3517,-8.3836,-8.4097,-8.4097,-8.4097,-8.4097,-8.4097,-8.4097,-8.4262,-8.4427,-8.4755,-8.5081,-8.5376,-8.5534,-8.5416,-8.4803,-8.3876,-8.3187,-8.2769,-8.2769,-8.2769,-8.2769,-8.238,-8.211,-8.214,-8.1392,-8.0823,-8.0285,-8.0222,-7.9627,-7.8853,-8.0488,-8.1356,-6.6999,-6.7328,-6.7717,-6.7926,0.0,-6.9453,-7.3821,-7.4659,-7.5437,-7.8495,-7.8738,-7.8801,-7.987,-8.0753,-8.2437,0.0,-8.7853,-8.9739,-9.1209,-9.2154,-9.2216,-9.1504,-9.0896,-9.0226,-8.9377,-8.8565,-8.7464,-8.6158,-8.5665,-8.5055,-8.4213,-8.3981,-8.3546,-8.2907,-8.2878,-8.2239,-8.0933,-8.0904,-8.0539,-7.9957,-8.0959,-8.125,-8.058,-7.9706,-7.956,-8.0123,-7.9372,-7.9642,-8.0433,-7.9994,-8.0206,-8.0925,-8.1285,-8.1639,-8.2178,-8.2456,-8.2759,-8.3116,-8.4187,-8.3823,-8.2977,-8.3596,-8.2736,-8.1671,-8.1121,-8.0614,-8.0381,-8.0788,-8.0759,-8.073,-8.1426,-8.1601,-8.1746,-8.2413,-8.1862,-8.1514,-8.2646,-8.2878,-8.2878,-8.2878,-8.3371,-8.3807,-8.3807,-8.3952,-8.4097,-8.4262,-8.4262,-8.4368,-8.4654,-8.4801,-8.5081,-8.5568,-8.5119,-8.4752,-8.4743,-8.3906,-8.3247,-8.2798,-8.2769,-8.2769,-8.2769,-8.232,-8.1961,-8.1721,-8.1512,-8.1331,-8.0881,-8.0345,-7.9866,-7.9182,-8.0968,-8.1301,-6.6999,-6.6999,-6.7148,0.0,0.0,0.0,-7.5647,-7.6365,-7.745,-8.3056,-8.2345,-8.1303,-8.2967,-8.207,-8.2095,-8.5036,-8.7558,-8.988,-9.1694,0.0,0.0,-9.1872,-8.9863,-8.8587,-8.8587,-8.6909,-8.549,-8.4184,-8.4068,-8.3517,-8.2268,-8.1572,-8.1514,-8.2152,-8.0962,-8.0294,-8.0294,-8.0294,-8.0103,-7.9898,-7.9898,-7.973,-7.9598,-7.9144,-7.9144,-7.9598,-7.9598,-7.9598,-7.9598,-7.9598,-7.9598,-7.9657,-8.0761,-8.1179,-8.1328,-8.3065,-8.3307,-8.2886,-8.4042,-8.3549,-8.2448,-8.2299,-8.1746,-8.1078,-8.0468,-8.0294,-8.0294,-8.0294,-8.073,-8.1049,-8.0468,-8.0294,-8.0439,-8.1049,-8.1194,-8.1368,-8.2036,-8.2181,-8.2181,-8.2181,-8.2733,-8.3197,-8.3197,-8.3691,-8.4262,-8.4784,-8.4784,-8.4713,-8.4492,-8.4964,-8.5538,-8.608,-8.4892,-8.4246,-8.4714,-8.3517,-8.2769,-8.2769,-8.2769,-8.2769,-8.2769,-8.2769,-8.238,-8.1422,-8.235,-8.277,-8.28,-8.008,-7.9308,-8.008,-7.9604,-7.9783,-6.7334,-6.7328,0.0,-6.8525,0.0,0.0,0.0,-7.7053,0.0,-8.5335,-8.5275,-8.4714,-8.6082,-8.5275,-8.5006,-8.6758,-8.8129,-8.9232,-9.0233,0.0,0.0,0.0,0.0,-8.8098,-8.7186,-8.5642,-8.4503,-8.4126,-8.3255,-8.2588,-8.221,-8.2007,-8.1572,-8.0875,-8.0904,-8.0452,-7.9423,-8.0299,-8.0521,-8.0166,-7.9863,-7.9859,-8.0247,-7.9153,-7.9006,-7.9539,-7.8893,-7.9189,-8.0049,-8.0348,-8.0348,-8.0079,-8.0706,-8.0944,-8.0974,-8.1542,-8.1841,-8.223,-8.2635,-8.2895,-8.2829,-8.2251,-8.1846,-8.1583,-8.0655,-8.0294,-8.0294,-8.0294,-8.0439,-8.0527,-8.0352,-8.0294,-8.0556,-8.163,-8.1223,-8.0875,-8.1949,-8.1833,-8.1484,-8.1484,-8.2413,-8.3197,-8.3197,-8.3691,-8.4262,-8.4784,-8.4404,-8.4376,-8.4812,-8.5248,-8.5655,-8.5843,-8.5066,-8.4379,-8.4055,-8.3247,-8.2769,-8.2769,-8.2769,-8.2769,-8.2769,-8.232,-8.217,-8.2409,-8.22,-8.202,-8.1809,-8.0973,-7.9811,-7.833,-7.9575,-7.999,-6.8,0.0,0.0,-6.9842,-7.1607,-7.4151,-7.825,0.0,0.0,-8.7167,-8.7018,-8.6509,-8.7856,-8.6569,0.0,-8.7437,-8.8035,-8.8424,-8.8843,-8.8993,0.0,0.0,0.0,0.0,0.0,-8.4374,-8.339,-8.2965,-8.2239,-8.1688,-8.1455,-8.1194,-8.0817,-8.0323,-8.0045,-7.9589,-7.902,-7.9173,-7.9333,-7.9397,-7.8864,-7.9071,-7.9812,-7.8864,-7.8716,-7.9189,-7.8414,-7.841,-7.8917,-7.9092,-7.9242,-7.9334,-7.9749,-8.0165,-8.0434,-8.0704,-8.1063,-8.1512,-8.1833,-8.2089,-8.2289,-8.1771,-8.17,-8.1425,-8.0655,-8.0294,-8.0294,-8.0294,-8.0294,-8.0294,-8.0294,-8.0294,-8.0497,-8.1252,-8.0846,-8.0497,-8.1281,-8.1136,-8.0846,-8.0846,-8.1891,-8.2791,-8.2791,-8.3477,-8.4135,-8.4889,-8.4479,-8.4327,-8.507,-8.4782,-8.4701,-8.4969,-8.4403,-8.4021,-8.3756,-8.3128,-8.2769,-8.2769,-8.2769,-8.2769,-8.2769,-8.238,-8.235,-8.2739,-8.238,-8.205,-8.1931,-8.1272,-8.0288,-7.9041,-7.9663,-7.9985,0.0,0.0,0.0,-7.1808,-7.3926,0.0,-8.1811,-8.4893,-8.7077,-8.8484,0.0,-8.7437,-8.8634,-8.6838,-8.5701,-8.7347,-8.7556,-8.7496,-8.7347,-8.6748,0.0,0.0,0.0,0.0,0.0,0.0,-8.2167,-8.1165,-8.0962,-8.0643,-8.0149,-7.9696,-7.9637,-8.019,-7.878,-7.8289,-7.9056,-7.7564,-7.7384,-7.8298,-7.7585,-7.7844,-7.8699,-7.8265,-7.838,-7.8579,-7.7981,-7.7382,-7.6814,-7.6814,-7.7173,-7.7801,-7.846,-7.9088,-7.9716,-8.0375,-8.0674,-8.0735,-8.1172,-8.1367,-8.1448,-8.1163,-8.1107,-8.1078,-8.0468,-8.0294,-8.0294,-8.0294,-8.0294,-8.0294,-8.0294,-8.0294,-8.0294,-8.0294,-8.0294,-8.0323,-8.0381,-8.0323,-8.0294,-8.0294,-8.1339,-8.2181,-8.2181,-8.3057,-8.4156,-8.514,-8.505,-8.4857,-8.5109,-8.3941,-8.3407,-8.3941,-8.3466,-8.3235,-8.3636,-8.3098,-8.2769,-8.2769,-8.2769,-8.2769,-8.2769,-8.2769,-8.2769,-8.2769,-8.2769,-8.2739,-8.2679,-8.1003,-8.0555,-8.106,-7.98,-7.9859,0.0,0.0,0.0,0.0,0.0,-8.1003,-8.3696,-8.5521,-8.7197,-8.9082,-8.9621,-8.989,-9.016,-8.9322,-8.8245,-8.7077,-8.6449,-8.5761,-8.4743,-8.4025,-8.3606,0.0,0.0,0.0,0.0,0.0,0.0,0.0,-7.9385,-7.8839,-7.9247,-7.9437,-7.9325,-7.8972,-7.8711,-7.8684,-7.91,-7.833,-7.8357,0.0,-7.8226,-7.7748,-7.8011,-7.7868,-7.7599,-7.7233,-7.7113,-7.6963,-7.6814,-7.6814,-7.6904,-7.7113,-7.7771,-7.81,-7.831,-7.8968,-7.9567,-7.9929,-7.9455,-8.0247,-8.1301,-8.0143,-8.0381,-8.1078,-8.0468,-8.0294,-8.0294,-8.0294,-8.0294,-8.0294,-8.0294,-8.0294,-8.0294,-8.0294,-8.0294,-8.0439,-8.0904,-8.0643,-8.0294,-8.0294,-8.1339,-8.2342,-8.2664,-8.3219,-8.3863,-8.4249,-8.5029,-8.5342,-8.4827,-8.4528,-8.42,-8.3841,-8.3662,-8.3364,-8.3008,-8.2828,-8.2769,-8.2769,-8.2769,-8.2769,-8.2769,-8.2769,-8.2769,-8.2769,-8.2435,-8.2044,-8.1538,-8.109,-8.0613,-7.9956,-8.0158,-8.0241,0.0,0.0,0.0,0.0,0.0,0.0,-8.4414,-8.5492,-8.6599,-8.7945,-8.9023,-8.9711,-8.9711,-8.8903,-8.7796,-8.6419,-8.5402,-8.4414,-8.3397,-8.2439,-8.1931,0.0,0.0,0.0,0.0,0.0,0.0,0.0,0.0,-7.8943,-7.9295,-7.9447,-7.9451,-7.9097,-7.8626,-7.8597,-7.9189,-7.8057,-7.7754,-7.837,-7.7682,-7.7173,-7.6904,-7.7203,-7.6993,-7.6395,-7.6395,-7.6185,-7.5886,-7.5886,-7.6096,-7.6455,-7.7083,-7.7532,-7.7891,-7.8549,-7.9028,-7.9212,-7.8804,-7.9303,-7.9977,-7.9181,-7.9511,-8.0236,-7.9917,-8.0033,-8.0294,-8.0294,-8.0294,-8.0294,-8.0294,-8.0294,-8.0294,-8.0294,-8.0294,-8.0381,-8.0701,-8.0527,-8.0294,-8.0294,-8.1339,-8.2342,-8.2664,-8.3965,-8.4859,-8.4812,-8.5036,-8.5222,-8.5192,-8.4354,-8.3756,-8.3726,-8.3457,-8.3128,-8.2798,-8.2769,-8.2769,-8.2769,-8.3068,-8.3098,-8.2769,-8.3068,-8.2915,-8.2465,-8.2282,-8.1981,-8.1625,-8.1176,-8.0846,-8.0817,-8.0359,-8.0382,0.0,0.0,0.0,0.0,0.0,0.0,0.0,-8.5043,-8.5671,-8.621,-8.7407,-8.8304,-8.8185,-8.7257,-8.618,0.0,0.0,-8.3098,-8.22,-8.1153,0.0,0.0,0.0,0.0,0.0,0.0,0.0,0.0,0.0,-7.9365,-7.9247,-7.9335,-7.9394,-7.9394,-7.8537,-7.8444,-7.9009,-7.745,-7.6664,-7.6664,-7.6544,-7.6215,-7.5736,-7.6245,-7.6215,-7.5736,-7.5736,-7.5407,-7.4869,-7.4869,-7.5198,-7.5796,-7.6425,-7.6993,-7.7562,-7.822,-7.8519,-7.8555,-7.839,-7.8448,-7.8564,-7.8365,-7.864,-7.9133,-7.9133,-7.954,-7.9975,-7.9975,-8.0033,-8.012,-8.012,-8.0207,-8.0294,-8.0294,-8.0294,-8.0294,-8.0294,-8.0294,-8.0294,-8.0294,-8.1383,-8.2328,-8.2808,-8.4534,-8.5983,-8.5641,-8.5252,-8.5192,-8.5641,-8.4265,-8.3397,-8.3696,-8.3367,-8.3068,-8.2948,-8.2948,-8.2978,-8.3098,-8.3487,-8.3547,-8.3128,-8.3517,-8.3334,-8.2308,-8.2036,-8.2036,-8.2,-8.1043,-8.1013,-8.1823,-8.0646,-8.0521,0.0,0.0,0.0,0.0,0.0,0.0,0.0,0.0,0.0,0.0,0.0,0.0,0.0,0.0,0.0,0.0,0.0,0.0,0.0,0.0,0.0,0.0,0.0,0.0,0.0,0.0,0.0,0.0,-7.8183,-7.8093,-7.75,-7.844,-7.8913,-7.8913,-7.8196,-7.7838,-7.7927,-7.6724,-7.6036,-7.6006,-7.5437,-7.5078,-7.5018,-7.5108,-7.5078,-7.5018,-7.5018,-7.4958,-7.4869,-7.4869,-7.4929,-7.5078,-7.5766,-7.6066,-7.6245,-7.6874,-7.7442,-7.7808,-7.7206,-7.7711,-7.8505,-7.7811,-7.7972,-7.8524,-7.8524,-7.8582,-7.8669,-7.8669,-7.9017,-7.9423,-7.9423,-7.9859,-8.0294,-8.0294,-8.0294,-8.0294,-8.0294,-8.0294,-8.0294,-8.0294,-8.1507,-8.2635,-8.2918,-8.4485,-8.5611,-8.4953,-8.5731,-8.624,-8.5761,-8.5462,-8.4893,-8.3846,-8.4175,-8.4205,-8.3666,-8.3606,-8.3846,-8.4414,-8.3995,-8.3936,-8.4444,-8.3995,-8.3543,-8.2991,-8.2119,-8.1654,-8.1899,-8.1254,-8.099,-8.1078,-8.0834,-8.0834,0.0,0.0,0.0,0.0,0.0,0.0,0.0,0.0,0.0,0.0,0.0,0.0,0.0,0.0,0.0,0.0,0.0,0.0,0.0,0.0,0.0,0.0,0.0,0.0,0.0,0.0,0.0,0.0,-7.7462,-7.7277,-7.6979,-7.7748,-7.7921,-7.7203,-7.7233,-7.7083,-7.6754,-7.5796,-7.5527,-7.5886,-7.4839,-7.4719,-7.5437,-7.4659,-7.454,-7.4869,-7.4869,-7.4869,-7.4869,-7.4869,-7.4869,-7.4958,-7.5647,-7.5916,-7.5976,-7.6604,-7.6882,-7.6837,-7.6293,-7.6593,-7.7092,-7.6496,-7.7014,-7.7856,-7.7856,-7.8117,-7.8407,-7.8407,-7.8843,-7.9307,-7.9307,-7.9801,-8.0294,-8.0294,-8.0452,-8.0609,-8.0294,-8.0294,-8.041,-8.1075,-8.2154,-8.3073,-8.3585,-8.4432,-8.5162,-8.5252,-8.5432,-8.5731,-8.618,-8.5282,-8.4504,-8.4295,-8.3876,-8.3517,-8.3217,-8.3187,-8.3307,-8.3606,-8.3696,-8.3696,-8.3636,-8.3389,-8.311,-8.2799,-8.1868,-8.1507,-8.1645,-8.1195,-8.1078,-8.1204,-8.1078,-8.0922,0.0,0.0,0.0,0.0,0.0,0.0,0.0,0.0,0.0,0.0,0.0,0.0,0.0,0.0,0.0,0.0,0.0,0.0,0.0,0.0,0.0,0.0,0.0,0.0,0.0,0.0,0.0,0.0,-7.6882,-7.6754,-7.6604,-7.7203,-7.7113,-7.6185,-7.6604,-7.6455,-7.5647,-7.4809,-7.4629,-7.5138,-7.4121,-7.418,-7.5108,-7.4091,-7.3911,-7.439,-7.454,-7.4629,-7.4629,-7.4629,-7.4629,-7.4689,-7.5377,-7.5647,-7.5707,-7.6016,-7.6144,-7.6011,-7.5869,-7.6141,-7.624,-7.5948,-7.6446,-7.7087,-7.6816,-7.713,-7.7653,-7.7653,-7.8349,-7.9075,-7.923,-7.9841,-8.0452,-8.0452,-8.0766,-8.0922,-8.0609,-8.0452,-8.0755,-8.1694,-8.2407,-8.3021,-8.3651,-8.42,-8.4684,-8.5342,-8.5162,-8.5312,-8.6299,-8.5132,-8.4295,-8.4444,-8.3756,-8.3187,-8.3008,-8.3008,-8.3068,-8.3247,-8.3547,-8.3576,-8.3277,-8.3086,-8.2955,-8.2643,-8.1868,-8.1448,-8.1439,-8.0981,-8.0922,-8.1204,-8.0922,-8.0766,0.0,0.0,0.0,0.0,0.0,0.0,0.0,0.0,0.0,0.0,0.0,0.0,0.0,0.0,0.0,0.0,0.0,0.0,0.0,0.0,0.0,0.0,0.0,0.0,0.0,0.0,0.0,0.0,-7.6514,-7.6574,-7.5976,-7.6544,-7.6844,-7.6784,-7.6814,-7.6215,-7.4929,-7.3672,-7.3043,-7.3073,-7.3013,-7.3013,-7.3073,-7.2984,-7.2984,-7.3043,-7.3672,-7.3941,-7.3941,-7.3941,-7.3941,-7.4001,-7.4659,-7.4929,-7.4929,-7.4545,-7.4823,-7.5468,-7.6103,-7.6632,-7.7064,-7.6724,-7.6643,-7.642,-7.5072,-7.5127,-7.565,-7.565,-7.7014,-7.859,-7.8897,-7.9986,-8.0922,-8.0922,-8.1234,-8.1514,-8.136,-8.1078,-8.1078,-8.1882,-8.2189,-8.2342,-8.2858,-8.3367,-8.3995,-8.4654,-8.5252,-8.5671,-8.5731,-8.5671,-8.5132,-8.3906,-8.4265,-8.4354,-8.3726,-8.3666,-8.3936,-8.4564,-8.4055,-8.3995,-8.4594,-8.3562,-8.311,-8.311,-8.1713,-8.1029,-8.1136,-8.0585,-8.0294,-8.0294,-8.0294,-8.0294,0.0,0.0,0.0,0.0,0.0,0.0,0.0,0.0,0.0,0.0,0.0,0.0,0.0,0.0,0.0,0.0,0.0,0.0,0.0,0.0,0.0,0.0,0.0,0.0,0.0,0.0,0.0,0.0,0.0,-7.5018,-7.5228,-7.5886,-7.5826,-7.4988,-7.5347,-7.454,-7.2355,-7.1846,-7.1427,-7.1038,-7.1427,-7.1846,-7.2265,-7.2265,-7.2505,-7.2894,-7.2684,-7.2864,-7.3283,-7.3732,-7.3881,-7.3971,-7.4629,-7.4869,-7.4869,-7.4456,-7.4851,-7.5715,-7.5685,-7.6486,-7.7409,-7.6343,-7.6335,-7.6383,-7.4926,-7.4982,-7.5504,-7.5504,-7.6608,-7.8009,-7.8751,-7.9342,-7.9935,-8.0807,-8.122,-8.1669,-8.213,-8.1976,-8.1823,-8.1976,-8.2282,-8.2617,-8.2769,-8.2948,-8.3337,-8.3995,-8.4295,-8.4594,-8.5013,-8.4684,-8.4265,-8.3786,-8.3576,-8.3367,-8.3128,-8.3098,-8.3217,-8.3457,-8.3247,-8.3217,-8.3457,-8.2605,-8.2023,-8.2023,-8.1039,-8.0726,-8.1087,-8.0946,-8.0672,-8.0323,-8.0701,-8.0672,-7.8113,0.0,0.0,0.0,0.0,0.0,0.0,0.0,0.0,0.0,0.0,0.0,0.0,0.0,0.0,0.0,0.0,0.0,0.0,0.0,0.0,0.0,0.0,0.0,0.0,0.0,0.0,0.0,0.0,0.0,-7.418,-7.4659,-7.439,-7.3253,-7.3223,-7.2385,-7.062,-7.038,-7.0051,-6.9662,-7.0081,-7.05,-7.0919,-7.1158,-7.1368,-7.1607,-7.1577,-7.1936,-7.2595,-7.3043,-7.3343,-7.3642,-7.43,-7.4689,-7.4869,-7.4456,-7.4702,-7.5218,-7.5324,-7.5971,-7.6574,-7.5653,-7.5677,-7.5757,-7.4283,-7.4343,-7.4924,-7.5127,-7.6263,-7.7549,-7.8645,-7.9295,-8.004,-8.109,-8.1502,-8.1823,-8.2617,-8.2435,-8.213,-8.2282,-8.2617,-8.2769,-8.2769,-8.2769,-8.2978,-8.3636,-8.3726,-8.3906,-8.4325,-8.3995,-8.3636,-8.3427,-8.3008,-8.2769,-8.2769,-8.2617,-8.2617,-8.2617,-8.2465,-8.2282,-8.2282,-8.1698,-8.136,-8.136,-8.0609,-8.0452,-8.0766,-8.0859,-8.0701,-8.0323,-8.0701,-8.0672,0.0,0.0,0.0,0.0,0.0,0.0,0.0,0.0,0.0,0.0,0.0,0.0,0.0,0.0,0.0,0.0,0.0,0.0,0.0,0.0,0.0,0.0,0.0,0.0,0.0,0.0,0.0,0.0,-7.2864,-7.2864,-7.2894,-7.2894,-7.2565,-7.1846,-7.062,-6.9931,-6.9931,-6.9273,-6.8944,-6.8944,-6.8974,-6.8974,-6.9004,-6.9662,-6.9602,-6.9064,-7.032,-7.1218,-7.1846,-7.1876,-7.2265,-7.2954,-7.3642,-7.43,-7.4839,-7.4456,-7.404,-7.404,-7.4916,-7.5022,-7.4719,-7.4719,-7.4719,-7.4445,-7.2999,-7.3095,-7.3734,-7.4343,-7.5742,-7.7355,-7.8241,-7.984,-8.13,-8.1751,-8.1928,-8.2282,-8.2769,-8.2435,-8.2282,-8.2769,-8.2769,-8.2769,-8.2769,-8.2769,-8.2978,-8.3606,-8.3696,-8.3696,-8.3696,-8.3696,-8.3457,-8.2828,-8.2769,-8.2769,-8.2769,-8.2312,-8.2159,-8.213,-8.1698,-8.1544,-8.1514,-8.1049,-8.0922,-8.0922,-8.0452,-8.0294,-8.0294,-8.0323,-8.0323,-8.0294,-8.0294,-8.0294,-7.6192,0.0,0.0,0.0,0.0,0.0,0.0,0.0,0.0,0.0,0.0,0.0,0.0,0.0,0.0,0.0,0.0,0.0,0.0,0.0,0.0,0.0,0.0,0.0,0.0,0.0,0.0,0.0,-7.1727,-7.1667,-7.2146,-7.2176,-7.1667,-7.053,-6.9692,-6.9034,-6.8525,-6.7867,-6.7537,-6.7537,-6.8016,-6.8256,-6.8286,-6.8944,-6.9183,-6.9034,-6.9363,-6.9901,-7.059,-7.1517,-7.1996,-7.2295,-7.3432,-7.3865,-7.3771,-7.3862,-7.4288,-7.4916,-7.4886,-7.5668,-7.6467,-7.5128,-7.4856,-7.4749,-7.314,-7.3095,-7.3734,-7.4343,-7.5422,-7.6652,-7.8005,-7.9604,-8.0914,-8.1063,-8.1422,-8.2019,-8.2649,-8.2769,-8.2617,-8.2769,-8.2769,-8.2769,-8.2769,-8.2769,-8.2828,-8.3008,-8.3038,-8.3038,-8.3038,-8.3038,-8.2978,-8.2769,-8.2769,-8.2617,-8.2282,-8.2575,-8.2635,-8.2159,-8.2112,-8.2171,-8.2006,-8.1234,-8.0922,-8.0922,-8.0452,-8.0294,-8.0294,-8.073,-8.073,-8.0294,-8.0294,-8.0294,-7.5297,-7.543,-7.5628,-7.6556,0.0,0.0,-7.5297,-7.5794,0.0,0.0,0.0,0.0,0.0,0.0,0.0,0.0,0.0,0.0,0.0,0.0,0.0,0.0,0.0,0.0,0.0,-7.1068,-7.0679,-7.0679,-7.032,-7.029,-7.0649,-7.041,-6.9901,-6.9153,-6.8495,-6.7837,-6.7148,-6.7059,-6.6849,-6.658,-6.7238,-6.7567,-6.7597,-6.8256,-6.8435,-6.8196,-6.8764,-6.9064,-6.9243,-7.056,-7.1398,-7.1966,-7.2641,-7.2998,-7.3337,-7.3507,-7.405,-7.4672,-7.4367,-7.4916,-7.5429,-7.4199,-7.3951,-7.3981,-7.2886,-7.3035,-7.3673,-7.4547,-7.589,-7.7151,-7.8265,-7.9421,-8.0464,-8.0734,-8.1302,-8.1961,-8.2619,-8.2769,-8.2769,-8.2769,-8.2769,-8.2769,-8.2769,-8.2769,-8.2769,-8.2769,-8.2769,-8.2769,-8.2769,-8.2769,-8.2769,-8.2769,-8.2769,-8.2769,-8.2465,-8.264,-8.2545,-8.2159,-8.2023,-8.1927,-8.1544,-8.1234,-8.062,-8.0201,-8.0306,-8.0294,-8.0294,-8.0643,-8.0643,-8.0294,-8.0294,-8.0294,-7.4138,-7.4171,-7.4635,-7.6556,-7.5728,0.0,-7.5032,-7.4337,-7.2835,0.0,0.0,0.0,0.0,0.0,0.0,0.0,0.0,0.0,0.0,0.0,0.0,0.0,0.0,0.0,-6.9871,-6.9333,-6.8974,-6.8884,-6.8884,-6.8854,-6.8764,-6.8256,-6.7926,-6.7867,-6.7238,-6.661,-6.6011,-6.652,-6.652,-6.6011,-6.661,-6.6909,-6.6999,-6.7597,-6.7508,-6.6939,-6.8226,-6.8435,-6.7956,-6.9303,-7.056,-7.1565,-7.154,-7.2149,-7.31,-7.323,-7.3507,-7.3672,-7.3591,-7.348,-7.3199,-7.2773,-7.2631,-7.2744,-7.2886,-7.3028,-7.3462,-7.4864,-7.6736,-7.847,-7.8789,-7.9238,-7.9866,-8.0524,-8.1183,-8.1841,-8.2499,-8.286,-8.3041,-8.2769,-8.2769,-8.2769,-8.2769,-8.289,-8.3041,-8.2769,-8.289,-8.3041,-8.2769,-8.2709,-8.2679,-8.2739,-8.2709,-8.2679,-8.2587,-8.2372,-8.2065,-8.1976,-8.1757,-8.1448,-8.0922,-8.0922,-8.0445,-7.9307,-7.9888,-8.0178,-8.0178,-8.0265,-8.0294,-8.0294,-8.0294,-8.0294,-7.4005,-7.4171,-7.427,-7.4701,-7.5363,0.0,-7.4602,-7.5529,-7.5609,0.0,0.0,0.0,0.0,0.0,0.0,0.0,0.0,0.0,0.0,0.0,0.0,0.0,0.0,0.0,-6.9183,-6.9064,-6.8764,-6.8226,-6.8166,-6.7956,-6.7418,-6.7747,-6.7717,-6.7208,-6.655,-6.6131,-6.6011,-6.5622,-6.5622,-6.6011,-6.6131,-6.649,-6.6999,-6.7119,-6.6819,-6.6251,-6.7029,-6.7298,-6.7268,-6.8236,-6.9218,-7.0081,-7.1526,-7.1837,-7.1402,-7.2717,-7.3209,-7.2944,-7.2882,-7.3199,-7.348,-7.2915,-7.2773,-7.334,-7.4307,-7.3951,-7.3633,-7.5466,-7.7965,-7.9668,-7.9046,-7.8878,-7.9148,-7.9866,-8.0524,-8.1183,-8.1841,-8.3365,-8.4142,-8.3041,-8.2769,-8.2769,-8.2769,-8.3729,-8.4172,-8.3041,-8.3729,-8.4172,-8.289,-8.229,-8.217,-8.2709,-8.229,-8.1868,-8.1793,-8.2451,-8.2385,-8.1263,-8.186,-8.2074,-8.1389,-8.1078,-8.06,-7.9773,-7.9579,-7.9511,-7.9511,-8.0033,-8.0294,-8.0294,-8.0294,-8.0294,-7.4072,-7.4171,-7.427,-7.4635,-7.5264,0.0,0.0,-7.5297,-7.5378,0.0,0.0,0.0,0.0,0.0,0.0,0.0,0.0,0.0,0.0,0.0,0.0,0.0,0.0,0.0,-6.7986,-6.7986,-6.7867,-6.7508,-6.7478,-6.7328,-6.6999,-6.7298,-6.7328,-6.6999,-6.667,-6.6191,-6.5533,-6.5533,-6.5353,-6.5024,-6.5353,-6.5682,-6.6011,-6.634,-6.6311,-6.6041,-6.67,-6.6999,-6.7089,-6.8028,-6.8516,-6.8861,-7.0547,-7.1314,-7.1432,-7.2021,-7.265,-7.2955,-7.2584,-7.2841,-7.3209,-7.2799,-7.3281,-7.4199,-7.3922,-7.4144,-7.4852,-7.6993,-7.8558,-7.9557,-7.9839,-7.9332,-7.8968,-7.9656,-8.0315,-8.1269,-8.2607,-8.3947,-8.4896,-8.4557,-8.4222,-8.3877,-8.3877,-8.5133,-8.5819,-8.5102,-8.4988,-8.4697,-8.4025,-8.289,-8.2409,-8.2709,-8.217,-8.1751,-8.1625,-8.1806,-8.1687,-8.0905,-8.1621,-8.1858,-8.1349,-8.1196,-8.0595,-7.9765,-7.9152,-7.9172,-7.9618,-7.9492,-7.9685,-8.0294,-8.0294,-8.0294,-7.4171,-7.4469,-7.4867,-7.5198,-7.5794,-7.6026,0.0,0.0,0.0,0.0,0.0,0.0,0.0,0.0,0.0,0.0,0.0,0.0,0.0,0.0,0.0,0.0,0.0,0.0,-6.6969,-6.6999,-6.6999,-6.6999,-6.6999,-6.6999,-6.6999,-6.6999,-6.6999,-6.6999,-6.6879,-6.6221,-6.5054,-6.5413,-6.5173,-6.4327,-6.4663,-6.5023,-6.538,-6.5802,-6.5951,-6.5862,-6.664,-6.6909,-6.6786,-6.7842,-6.8052,-6.8001,-6.9676,-7.0896,-7.1638,-7.1346,-7.2228,-7.3278,-7.2364,-7.2482,-7.2915,-7.2595,-7.3694,-7.4962,-7.3422,-7.4669,-7.6854,-7.8247,-7.8747,-7.9294,-8.02,-7.9728,-7.8938,-7.9477,-8.0252,-8.1438,-8.3194,-8.4524,-8.5541,-8.5811,-8.5881,-8.5697,-8.5161,-8.6072,-8.6969,-8.6969,-8.6166,-8.5521,-8.5133,-8.3756,-8.2891,-8.2739,-8.205,-8.1482,-8.1631,-8.1302,-8.0973,-8.0676,-8.1601,-8.181,-8.1357,-8.1238,-8.079,-7.9804,-7.9043,-7.9064,-7.9781,-7.891,-7.9104,-8.0091,-7.9975,-7.9917,-7.4171,-7.5595,-7.6755,-7.5562,-7.7682,-7.9372,-7.6689,0.0,-7.7609,-7.5911,0.0,0.0,0.0,0.0,0.0,0.0,0.0,0.0,0.0,0.0,0.0,0.0,0.0,0.0,0.0,-6.6999,-6.6999,-6.6999,-6.6999,-6.6999,-6.6999,-6.6999,-6.6999,-6.6999,-6.643,-6.5772,-6.5054,-6.4485,-6.4709,-6.5525,-6.4503,-6.4981,-6.6568,-6.613,-6.5682,-6.5203,-6.646,-6.6547,-6.5793,-6.7284,-6.7824,-6.7611,-6.9542,-7.0632,-7.1049,-7.1229,-7.2394,-7.355,-7.2002,-7.2423,-7.3444,-7.2216,-7.3616,-7.5564,-7.4426,-7.6617,-7.9146,-7.7577,-7.8413,-7.9606,-7.9182,-7.8933,-7.8819,-7.8878,-8.0365,-8.1814,-8.2047,-8.4717,-8.6527,-8.5398,-8.7179,-8.8046,-8.5493,-8.5727,-8.6274,-8.6274,-8.7221,-8.7175,-8.5184,-8.4031,-8.3179,-8.283,-8.1362,-8.0705,-8.1271,-8.1571,-8.1362,-8.0546,-8.1958,-8.2497,-8.204,-8.1476,-8.0998,-8.0453,-7.9964,-7.9576,-7.9108,-7.9114,-7.9278,-7.9394,-7.8872,-7.8611,-7.4171,-7.543,-7.6622,-7.6026,-7.7682,-7.9107,-7.7881,-7.808,-7.8097,-7.6758,0.0,0.0,0.0,0.0,0.0,0.0,-6.8515,0.0,0.0,0.0,0.0,0.0,0.0,0.0,0.0,0.0,0.0,0.0,-6.6759,-6.6819,-6.643,-6.6789,-6.6999,-6.6999,-6.6729,-6.6251,-6.5592,-6.5293,-6.4991,-6.4759,-6.421,-6.418,-6.4668,-6.5171,-6.5293,-6.5114,-6.643,-6.6727,-6.6425,-6.7115,-6.757,-6.8042,-6.8855,-6.9927,-7.0901,-7.1031,-7.1567,-7.2373,-7.1542,-7.1924,-7.2837,-7.4044,-7.454,-7.4809,-7.5594,-7.6453,-7.7301,-7.747,-7.8702,-7.9834,-7.9451,-7.9676,-7.998,-7.998,-8.103,-8.2358,-8.4062,-8.5789,-8.7114,-8.6979,-8.7525,-8.7777,-8.6585,-8.7239,-8.8149,-8.8571,-8.7434,-8.6736,-8.7476,-8.4516,-8.2854,-8.3934,-8.2319,-8.1183,-8.1451,-8.1273,-8.1064,-8.0735,-8.1661,-8.22,-8.1868,-8.1836,-8.1387,-8.0765,-8.0183,-7.9759,-7.9295,-7.8569,-7.8204,-7.8204,-7.8349,-7.8407,-7.4337,-7.5662,-7.7086,-7.6457,-7.7583,-7.8709,-7.8312,-7.8378,-7.8164,-7.6801,-7.5612,0.0,0.0,0.0,-7.0738,-6.9231,0.0,-6.9123,0.0,-6.7148,0.0,0.0,0.0,0.0,0.0,0.0,0.0,-6.6071,-6.646,-6.652,-6.6041,-6.646,-6.6819,-6.6999,-6.6999,-6.667,-6.6011,-6.6011,-6.565,-6.4988,-6.4327,-6.3996,-6.4075,-6.4748,-6.5024,-6.5114,-6.643,-6.6876,-6.6659,-6.6782,-6.7432,-6.8111,-6.84,-6.9472,-7.074,-7.0711,-7.1569,-7.2547,-7.1449,-7.1385,-7.2264,-7.4872,-7.4916,-7.4179,-7.5893,-7.5851,-7.5478,-7.697,-7.8378,-7.9447,-7.9786,-8.0248,-8.0816,-8.1381,-8.1814,-8.2838,-8.5342,-8.6557,-8.732,-8.7876,-8.7652,-8.7216,-8.7038,-8.7788,-8.863,-8.9281,-8.7018,-8.613,-8.8235,-8.5213,-8.3526,-8.5471,-8.3786,-8.2456,-8.2193,-8.1623,-8.1296,-8.1063,-8.1512,-8.1781,-8.1781,-8.2107,-8.1988,-8.1362,-8.0724,-8.0176,-7.9863,-7.8459,-7.7595,-7.742,-7.774,-7.7885,-7.4734,-7.6788,-7.9007,-7.6854,-7.798,-7.9206,-7.7782,-7.8014,-7.8113,-7.6551,-7.5864,-7.4847,-7.3073,-7.1105,-6.9699,-6.9136,-6.8405,0.0,0.0,-6.7926,-6.7687,-6.7059,-6.6999,0.0,0.0,0.0,-6.6729,-6.6071,-6.6041,-6.6041,-6.6011,-6.6041,-6.634,-6.6969,-6.6999,-6.667,-6.6011,-6.6011,-6.6442,-6.7256,-6.5071,-6.485,-6.6248,-6.5383,-6.5024,-6.5114,-6.643,-6.6629,-6.6066,-6.6686,-6.7049,-6.7594,-6.8501,-6.9572,-7.0426,-7.0426,-7.2741,-7.5249,-7.1708,-7.1022,-7.2128,-7.3734,-7.4318,-7.4318,-7.4869,-7.4899,-7.5048,-7.5707,-7.6955,-7.8278,-7.957,-7.9909,-8.0366,-8.2465,-8.2887,-8.3412,-8.4854,-8.6226,-8.7322,-8.7322,-8.7322,-8.709,-8.6328,-8.6234,-8.6239,-8.6366,-8.6239,-8.6211,-8.6261,-8.5842,-8.5956,-8.6957,-8.5516,-8.4013,-8.3098,-8.2815,-8.258,-8.1841,-8.1781,-8.1781,-8.1781,-8.2409,-8.2739,-8.2709,-8.1947,-8.119,-8.0541,-7.9131,-7.803,-7.7391,-7.6782,-7.6521,-7.5927,-7.7914,-7.9802,-7.7583,-7.8345,-7.9107,-7.7119,-7.6909,-7.6789,-7.5494,-7.4701,-7.3707,-7.1908,-7.1565,-7.1304,-6.9893,-7.0119,-7.0034,0.0,-6.7897,-6.7238,-6.7029,-6.6999,-6.6909,0.0,0.0,0.0,-6.5413,-6.5353,-6.5353,-6.5353,-6.5772,-6.6311,-6.6969,-6.6999,-6.6879,-6.667,-6.667,-6.6342,-6.5772,-6.5019,-6.4774,-6.4767,-6.4928,-6.5263,-6.5742,-6.7059,-6.7379,-6.6938,-6.7716,-6.824,-6.8702,-6.9068,-7.0419,-7.1952,-7.1952,-7.2456,-7.2962,-7.3537,-7.4142,-7.4959,-7.5711,-7.5354,-7.4731,-7.4869,-7.4869,-7.4929,-7.5168,-7.7171,-7.9151,-7.8729,-8.0532,-8.2844,-8.3609,-8.4121,-8.4854,-8.6193,-8.6984,-8.7289,-8.7289,-8.6892,-8.6627,-8.6858,-8.6501,-8.5996,-8.5523,-8.5073,-8.5336,-8.6692,-8.5577,-8.4906,-8.5705,-8.4432,-8.2926,-8.1583,-8.186,-8.1925,-8.1153,-8.1961,-8.2079,-8.1511,-8.2258,-8.2617,-8.1976,-8.1669,-8.1036,-8.0082,-7.9414,-7.8465,-7.7391,-7.7188,-7.6869,-7.6026,-7.7881,-7.9769,-7.7583,-7.7947,-7.8411,-7.6689,-7.6548,-7.643,-7.5135,-7.4484,-7.3707,-7.1933,-7.1728,-7.1464,-6.9832,-7.0119,-7.0127,0.0,-6.7904,-6.7213,-6.7548,-6.7213,-6.6909,-6.667,-6.646,-6.5892,-6.4755,-6.4904,-6.4934,0.0,0.0,-6.5951,-6.661,-6.6879,-6.6999,-6.6999,-6.6759,-6.6552,-6.6223,-6.5546,-6.5062,-6.485,-6.5365,-6.559,-6.5742,-6.7059,-6.7498,-6.7516,-6.7931,-6.8615,-6.9417,-6.9871,-7.1248,-7.2798,-7.2798,-7.2383,-7.2379,-7.5802,-7.6453,-7.5955,-7.6608,-7.6263,-7.5519,-7.5006,-7.4869,-7.5066,-7.5791,-7.7965,-7.9985,-7.9726,-8.1919,-8.4225,-8.4748,-8.4992,-8.5512,-8.6984,-8.7289,-8.7289,-8.7289,-8.6892,-8.6627,-8.6858,-8.6494,-8.6007,-8.5258,-8.4341,-8.4251,-8.5985,-8.51,-8.4733,-8.571,-8.4969,-8.3534,-8.1425,-8.1119,-8.1003,-8.0823,-8.1811,-8.2079,-8.1179,-8.2107,-8.2401,-8.1868,-8.1242,-8.0764,-8.0249,-7.9114,-7.8204,-7.7391,-7.7159,-7.684]}]]